[[{"header":{"parameterUnit":"m.s-1","parameterCategory":1,"la1":30.6,"la2":29.2853,"lo1":-89.7004,"lo2":-87.6739,"dy":0.0162,"dx":0.0183,"nx":112,"ny":82,"refTime":"2023-09-06T06:00:00:Z","depth":0,"parameterNumber":2,"parameterNumberName":"U-component_of_WINDS"},"data":[0.0,0.0,0.0,0.0,0.0,0.0,0.0,0.0,0.0,0.0,0.0,0.0,0.0,0.0,0.0,0.0,0.0,0.0,0.0,0.0,0.0,0.0,0.0,0.0,0.0,0.0,0.0,0.0,0.0,0.0,0.0,0.0,0.0,0.0,0.0,0.0,0.0,0.0,0.0,0.0,0.0,0.0,0.0,0.0,0.0,0.0,0.0,0.0,0.0,0.0,0.0,0.0,0.0,0.0,0.0,0.0,0.0,0.0,0.0,0.0,0.0,0.0,0.0,0.0,0.0,0.0,0.0,0.0,0.0,0.0,0.0,0.0,0.0,0.0,0.0,0.0,0.0,0.0,0.0,0.0,0.0,0.0,0.0,0.0,0.0,0.0,0.0,0.0,0.0,0.0,0.0,-0.5725,-0.6452,-0.6957,-0.725,-0.7225,-0.7212,-0.7398,0.0,0.0,0.0,0.0,0.0,0.0,0.0,0.0,0.0,0.0,0.0,0.0,0.0,0.0,0.0,0.0,0.0,0.0,0.0,0.0,0.0,0.0,0.0,0.0,0.0,0.0,0.0,0.0,0.0,0.0,0.0,0.0,0.0,0.0,0.0,0.0,0.0,0.0,0.0,0.0,0.0,0.0,0.0,0.0,0.0,0.0,0.0,0.0,0.0,0.0,0.0,0.0,0.0,0.0,0.0,0.0,0.0,0.0,0.0,0.0,0.0,0.0,0.0,0.0,0.0,0.0,0.0,0.0,0.0,0.0,0.0,0.0,0.0,0.0,0.0,0.0,0.0,0.0,0.0,0.0,0.0,0.0,0.0,0.0,0.0,0.0,0.0,0.0,0.0,0.0,0.0,0.0,0.0,0.0,0.0,0.0,0.0,0.0,0.0,0.0,0.0,0.0,0.0,0.0,-0.5349,-0.7925,-0.8463,-0.86,-0.868,-0.8074,-0.7673,-0.7719,0.0,0.0,0.0,0.0,0.0,0.0,0.0,0.0,0.0,0.0,0.0,0.0,0.0,0.0,0.0,0.0,0.0,0.0,0.0,0.0,0.0,0.0,0.0,0.0,0.0,0.0,0.0,0.0,0.0,0.0,0.0,0.0,0.0,0.0,0.0,0.0,0.0,0.0,0.0,0.0,0.0,0.0,0.0,0.0,0.0,0.0,0.0,0.0,0.0,0.0,0.0,0.0,0.0,0.0,0.0,0.0,0.0,0.0,0.0,0.0,0.0,0.0,0.0,0.0,0.0,0.0,0.0,0.0,0.0,0.0,0.0,0.0,0.0,0.0,0.0,0.0,0.0,0.0,0.0,0.0,0.0,0.0,0.0,0.0,0.0,0.0,0.0,0.0,0.0,0.0,0.0,0.0,0.0,0.0,0.0,0.0,0.0,0.0,0.0,0.0,0.0,0.0,0.0,-0.6885,-0.7664,-0.8903,-0.9069,-0.9301,-0.9609,-0.891,-0.8505,-0.8758,-0.8638,0.0,0.0,0.0,0.0,0.0,0.0,0.0,0.0,0.0,0.0,0.0,0.0,0.0,0.0,0.0,0.0,0.0,0.0,0.0,0.0,0.0,0.0,0.0,0.0,0.0,0.0,0.0,0.0,0.0,0.0,0.0,0.0,0.0,0.0,0.0,0.0,0.0,0.0,0.0,0.0,0.0,0.0,0.0,0.0,0.0,0.0,0.0,0.0,0.0,0.0,0.0,0.0,0.0,0.0,0.0,0.0,0.0,0.0,0.0,0.0,0.0,0.0,0.0,0.0,0.0,0.0,0.0,0.0,0.0,0.0,0.0,0.0,0.0,0.0,0.0,0.0,0.0,0.0,0.0,0.0,0.0,0.0,0.0,0.0,0.0,0.0,0.0,0.0,0.0,0.0,0.0,0.0,0.0,0.0,0.0,0.0,0.0,0.0,0.0,0.0,0.0,0.0,-0.915,-0.99,-0.975,-0.9976,-1.0276,-1.0738,-1.0051,-0.9675,-0.9867,-0.9947,0.0,0.0,0.0,0.0,0.0,0.0,0.0,0.0,0.0,0.0,0.0,0.0,0.0,0.0,0.0,0.0,0.0,0.0,0.0,0.0,0.0,0.0,0.0,0.0,0.0,0.0,0.0,0.0,0.0,0.0,0.0,0.0,0.0,0.0,0.0,0.0,0.0,0.0,0.0,0.0,0.0,0.0,0.0,0.0,0.0,0.0,0.0,0.0,0.0,0.0,0.0,0.0,0.0,0.0,0.0,0.0,0.0,0.0,0.0,0.0,0.0,0.0,0.0,0.0,0.0,0.0,0.0,0.0,0.0,0.0,0.0,0.0,0.0,0.0,0.0,0.0,0.0,0.0,0.0,0.0,0.0,0.0,0.0,0.0,0.0,0.0,0.0,0.0,0.0,0.0,0.0,0.0,0.0,0.0,0.0,0.0,0.0,0.0,0.0,0.0,0.0,0.0,-1.011,-1.1781,-1.1037,-1.1781,-1.2378,-1.2452,-1.1835,-1.1304,-1.0783,-1.0852,0.0,0.0,0.0,0.0,0.0,0.0,0.0,0.0,0.0,0.0,0.0,0.0,0.0,0.0,0.0,0.0,0.0,0.0,0.0,0.0,0.0,0.0,0.0,0.0,0.0,0.0,0.0,0.0,0.0,0.0,0.0,0.0,0.0,0.0,0.0,0.0,0.0,0.0,0.0,0.0,0.0,0.0,0.0,0.0,0.0,0.0,0.0,0.0,0.0,0.0,0.0,0.0,0.0,0.0,0.0,0.0,0.0,0.0,0.0,0.0,0.0,0.0,0.0,0.0,0.0,0.0,0.0,0.0,0.0,0.0,0.0,0.0,0.0,0.0,0.0,0.0,0.0,0.0,0.0,0.0,0.0,0.0,0.0,0.0,0.0,0.0,0.0,0.0,0.0,0.0,0.0,0.0,0.0,0.0,0.0,0.0,0.0,0.0,0.0,0.0,0.0,0.0,-1.0565,-1.1694,0.0,-1.1929,-1.215,-1.2077,-1.17,-1.1329,-1.1037,0.0,0.0,0.0,0.0,0.0,0.0,0.0,0.0,0.0,0.0,0.0,0.0,0.0,0.0,0.0,0.0,0.0,0.0,0.0,0.0,0.0,0.0,0.0,0.0,0.0,0.0,0.0,0.0,0.0,0.0,0.0,0.0,0.0,0.0,0.0,0.0,0.0,0.0,0.0,0.0,0.0,0.0,0.0,0.0,0.0,0.0,0.0,0.0,0.0,0.0,0.0,0.0,0.0,0.0,0.0,0.0,0.0,0.0,0.0,0.0,0.0,0.0,0.0,0.0,0.0,0.0,0.0,0.0,0.0,0.0,0.0,0.0,0.0,0.0,0.0,0.0,0.0,0.0,0.0,0.0,0.0,0.0,0.0,0.0,0.0,0.0,0.0,0.0,0.0,0.0,0.0,0.0,0.0,0.0,0.0,0.0,0.0,0.0,0.0,0.0,0.0,0.0,-0.9841,-1.095,-1.162,0.0,-1.1929,-1.2157,-1.2003,-1.1929,-1.1706,-1.1409,0.0,0.0,0.0,0.0,0.0,0.0,0.0,0.0,0.0,0.0,0.0,0.0,0.0,0.0,0.0,0.0,0.0,0.0,0.0,0.0,0.0,0.0,0.0,0.0,0.0,0.0,0.0,0.0,0.0,0.0,0.0,0.0,0.0,0.0,0.0,0.0,0.0,0.0,0.0,0.0,0.0,0.0,0.0,0.0,0.0,0.0,0.0,0.0,0.0,0.0,0.0,0.0,0.0,0.0,0.0,0.0,0.0,0.0,0.0,0.0,0.0,0.0,0.0,0.0,0.0,0.0,0.0,0.0,0.0,0.0,0.0,0.0,0.0,0.0,0.0,0.0,0.0,0.0,0.0,0.0,0.0,0.0,0.0,0.0,0.0,0.0,0.0,0.0,0.0,0.0,0.0,0.0,0.0,0.0,0.0,0.0,0.0,0.0,0.0,0.0,0.0,0.0,-0.9997,-1.1335,-1.2003,-1.1186,-1.2003,-1.2599,-1.2599,-1.2746,-1.2599,0.0,0.0,0.0,0.0,0.0,0.0,0.0,0.0,0.0,0.0,0.0,0.0,0.0,0.0,0.0,0.0,0.0,0.0,0.0,0.0,0.0,0.0,0.0,0.0,0.0,0.0,0.0,0.0,0.0,0.0,0.0,0.0,0.0,0.0,0.0,0.0,0.0,0.0,0.0,0.0,0.0,0.0,0.0,0.0,0.0,0.0,0.0,0.0,0.0,0.0,0.0,0.0,0.0,0.0,0.0,0.0,0.0,0.0,0.0,0.0,0.0,0.0,0.0,0.0,0.0,0.0,0.0,0.0,0.0,0.0,0.0,0.0,0.0,0.0,0.0,0.0,0.0,0.0,0.0,0.0,0.0,0.0,0.0,0.0,0.0,0.0,0.0,0.0,0.0,0.0,0.0,0.0,0.0,0.0,0.0,0.0,0.0,0.0,0.0,0.0,0.0,0.0,0.0,-1.0663,-1.126,-1.1632,-1.1558,-1.1929,-1.2003,-1.1558,-1.2003,-1.2003,-1.1409,0.0,0.0,0.0,0.0,0.0,0.0,0.0,0.0,0.0,0.0,0.0,0.0,0.0,0.0,0.0,0.0,0.0,0.0,0.0,0.0,0.0,0.0,0.0,0.0,0.0,0.0,0.0,0.0,0.0,0.0,0.0,0.0,0.0,0.0,0.0,0.0,0.0,0.0,0.0,0.0,0.0,0.0,0.0,0.0,0.0,0.0,0.0,0.0,0.0,0.0,0.0,0.0,0.0,0.0,0.0,0.0,0.0,0.0,0.0,0.0,0.0,0.0,0.0,0.0,0.0,0.0,0.0,0.0,0.0,0.0,0.0,0.0,0.0,0.0,0.0,0.0,0.0,0.0,0.0,0.0,0.0,0.0,0.0,0.0,0.0,0.0,0.0,0.0,0.0,0.0,0.0,0.0,0.0,0.0,0.0,0.0,0.0,0.0,0.0,0.0,0.0,0.0,-1.1037,-1.1186,-1.1335,-1.1484,-1.1558,-1.1484,-1.1111,-1.1409,-1.1484,-1.1111,0.0,0.0,0.0,0.0,0.0,0.0,0.0,0.0,0.0,0.0,0.0,0.0,0.0,0.0,0.0,0.0,0.0,0.0,0.0,0.0,0.0,0.0,0.0,0.0,0.0,0.0,0.0,0.0,0.0,0.0,0.0,0.0,0.0,0.0,0.0,0.0,0.0,0.0,0.0,0.0,0.0,0.0,0.0,0.0,0.0,0.0,0.0,0.0,0.0,0.0,0.0,0.0,0.0,0.0,0.0,0.0,0.0,0.0,0.0,0.0,0.0,0.0,0.0,0.0,0.0,0.0,0.0,0.0,0.0,0.0,0.0,0.0,0.0,0.0,0.0,0.0,0.0,0.0,0.0,0.0,0.0,0.0,0.0,0.0,0.0,0.0,0.0,0.0,0.0,0.0,0.0,0.0,0.0,0.0,0.0,0.0,0.0,0.0,0.0,0.0,0.0,0.0,-1.1037,-1.1111,-1.1111,-1.1111,-1.1111,-1.1111,-1.1111,-1.1111,-1.1111,-1.1111,0.0,0.0,0.0,0.0,0.0,0.0,0.0,0.0,0.0,0.0,0.0,0.0,0.0,0.0,0.0,0.0,0.0,0.0,0.0,0.0,0.0,0.0,0.0,0.0,0.0,0.0,0.0,0.0,0.0,0.0,0.0,0.0,0.0,0.0,0.0,0.0,0.0,0.0,0.0,0.0,0.0,0.0,0.0,0.0,0.0,0.0,0.0,0.0,0.0,0.0,0.0,0.0,0.0,0.0,0.0,0.0,0.0,0.0,0.0,0.0,-2.0397,0.0,0.0,0.0,0.0,0.0,0.0,0.0,0.0,0.0,0.0,0.0,0.0,0.0,0.0,0.0,0.0,0.0,0.0,0.0,0.0,0.0,0.0,0.0,0.0,0.0,0.0,0.0,0.0,0.0,0.0,0.0,0.0,0.0,0.0,0.0,0.0,0.0,0.0,0.0,0.0,0.0,-1.1111,-1.1111,-1.1111,-1.1111,-1.1111,-1.1111,-1.1111,-1.1111,-1.1186,-1.1335,0.0,0.0,0.0,0.0,0.0,0.0,0.0,0.0,0.0,0.0,0.0,0.0,0.0,0.0,0.0,0.0,0.0,0.0,0.0,0.0,0.0,0.0,0.0,0.0,0.0,0.0,0.0,0.0,0.0,0.0,0.0,0.0,0.0,0.0,0.0,0.0,0.0,0.0,0.0,0.0,0.0,0.0,0.0,0.0,0.0,0.0,0.0,0.0,0.0,0.0,0.0,0.0,0.0,0.0,0.0,0.0,0.0,0.0,0.0,0.0,0.0,-2.0387,0.0,0.0,0.0,0.0,0.0,0.0,0.0,0.0,0.0,0.0,0.0,0.0,0.0,0.0,0.0,0.0,0.0,0.0,0.0,0.0,0.0,0.0,0.0,0.0,0.0,0.0,0.0,0.0,0.0,0.0,0.0,0.0,0.0,0.0,0.0,0.0,0.0,0.0,0.0,0.0,-1.1111,-1.1111,-1.1111,-1.126,-1.126,-1.126,-1.1409,-1.1409,-1.1409,-1.1558,-1.1632,0.0,0.0,0.0,0.0,0.0,0.0,0.0,0.0,0.0,0.0,0.0,0.0,0.0,0.0,0.0,0.0,0.0,0.0,0.0,0.0,0.0,0.0,0.0,0.0,0.0,0.0,0.0,0.0,0.0,0.0,0.0,0.0,0.0,0.0,0.0,0.0,0.0,0.0,0.0,0.0,0.0,0.0,0.0,0.0,0.0,0.0,0.0,0.0,0.0,0.0,0.0,0.0,0.0,-2.2817,-2.2924,-2.2921,-2.2813,-2.2716,-2.2633,-2.197,-2.1619,-2.1387,0.0,0.0,0.0,0.0,0.0,0.0,0.0,0.0,0.0,0.0,0.0,0.0,0.0,0.0,0.0,0.0,0.0,0.0,0.0,0.0,0.0,0.0,0.0,0.0,0.0,-1.3171,-1.3237,0.0,0.0,0.0,0.0,0.0,0.0,0.0,0.0,0.0,0.0,0.0,0.0,-1.1111,-1.1111,-1.1186,-1.1409,-1.1409,-1.1484,-1.1706,-1.1706,-1.1706,-1.1781,-1.1929,-1.2003,0.0,0.0,0.0,0.0,0.0,0.0,0.0,0.0,0.0,0.0,0.0,0.0,0.0,0.0,0.0,0.0,0.0,0.0,0.0,0.0,0.0,0.0,0.0,0.0,0.0,0.0,0.0,0.0,0.0,0.0,0.0,0.0,-1.6389,-1.6389,0.0,0.0,0.0,0.0,0.0,0.0,0.0,0.0,0.0,0.0,0.0,0.0,0.0,0.0,-2.1549,-2.2089,-2.2444,-2.2528,-2.3037,-2.3398,-2.3535,-2.3997,-2.378,-2.3031,-2.2635,0.0,-2.1733,-2.0238,0.0,0.0,0.0,0.0,0.0,0.0,0.0,0.0,0.0,0.0,0.0,0.0,0.0,0.0,0.0,0.0,0.0,0.0,0.0,0.0,0.0,0.0,-1.4466,-1.4768,-1.4114,-1.3462,0.0,-1.2512,-1.1706,-1.1706,0.0,0.0,0.0,0.0,0.0,0.0,0.0,0.0,-1.1111,-1.126,-1.1335,-1.1409,-1.1558,-1.1706,-1.1706,-1.1706,-1.1781,-1.1929,-1.2003,-1.2077,-1.2231,-1.2298,0.0,0.0,0.0,0.0,0.0,0.0,0.0,0.0,0.0,0.0,0.0,0.0,0.0,0.0,0.0,0.0,0.0,0.0,0.0,0.0,0.0,0.0,0.0,0.0,0.0,0.0,0.0,0.0,0.0,-1.6113,-1.6806,-1.6227,-1.7575,-1.8222,0.0,0.0,0.0,0.0,0.0,0.0,0.0,0.0,0.0,-2.199,-2.2216,-2.2413,-2.2616,-2.2917,-2.3032,-2.3102,-2.3393,-2.3567,-2.3695,-2.3839,-2.3471,-2.2798,-2.2567,-2.2177,-2.1654,-2.0507,-2.0335,-2.0703,0.0,0.0,0.0,0.0,-1.8461,-1.7079,-1.7432,-1.6524,0.0,0.0,0.0,0.0,0.0,0.0,0.0,0.0,0.0,0.0,0.0,0.0,0.0,-1.3462,-1.3098,-1.2659,-1.2806,-1.2445,-1.2003,0.0,-1.1706,-1.1484,-1.1409,0.0,0.0,0.0,0.0,0.0,-1.126,-1.1409,-1.1632,-1.1706,-1.1855,-1.1929,-1.2003,-1.2003,-1.2077,-1.2157,-1.215,-1.2224,-1.2305,-1.2305,-1.2224,0.0,0.0,0.0,0.0,0.0,0.0,0.0,0.0,0.0,0.0,0.0,0.0,0.0,0.0,0.0,0.0,0.0,0.0,0.0,0.0,0.0,0.0,0.0,0.0,0.0,0.0,0.0,0.0,-1.6815,-1.7204,-1.642,-1.7661,-1.8187,0.0,0.0,0.0,0.0,0.0,0.0,-2.0854,-2.0854,-2.1387,-2.238,-2.251,-2.2892,-2.3435,-2.3568,-2.3631,-2.371,-2.3831,-2.3892,-2.3892,-2.3583,-2.3144,-2.2677,-2.2135,-2.1785,-2.1562,-2.0797,-2.0741,-2.106,-2.0582,-2.0074,-1.9528,-1.9726,-1.8489,-1.6724,-1.7285,-1.6315,-1.4848,-1.5338,0.0,-1.4346,-1.4057,0.0,0.0,0.0,0.0,-1.2077,-1.1929,-1.1855,-1.1929,-1.2298,-1.2284,-1.2269,-1.2418,-1.2404,-1.241,0.0,-1.1855,-1.1632,-1.1558,0.0,0.0,0.0,0.0,-1.1632,-1.1484,-1.1632,-1.1855,-1.2003,-1.2077,-1.215,-1.2298,-1.2305,-1.2305,-1.2305,-1.2305,-1.2305,-1.2305,-1.2305,-1.2305,-1.2305,0.0,0.0,0.0,0.0,0.0,0.0,0.0,0.0,0.0,0.0,0.0,0.0,0.0,0.0,0.0,0.0,0.0,0.0,0.0,0.0,0.0,0.0,0.0,0.0,0.0,0.0,0.0,0.0,0.0,-1.7648,-1.8325,0.0,0.0,0.0,0.0,-2.003,-2.0749,-2.1267,-2.1643,-2.1631,-2.1842,-2.2211,-2.2628,-2.2948,-2.3059,-2.3503,-2.3813,-2.3993,-2.4437,-2.4514,-2.4255,-2.3688,-2.3252,-2.2859,-2.1202,-2.0893,-2.1572,-2.1096,-2.0933,-2.1026,-2.0571,-1.9987,-1.9375,-1.9726,-1.8921,-1.7569,-1.7079,-1.6385,-1.5621,-1.4919,-1.4274,-1.376,-1.3185,-1.2526,0.0,0.0,-1.1558,-1.1781,-1.215,-1.2305,-1.2298,-1.2526,-1.2668,-1.2719,-1.2802,-1.2797,-1.2759,0.0,-1.2305,-1.2157,-1.2003,0.0,-1.1929,-1.1706,-1.1706,-1.1706,-1.1706,-1.1855,-1.2003,-1.2003,-1.215,-1.2298,-1.2305,-1.2305,-1.2305,-1.2305,-1.2305,-1.2305,-1.2305,-1.2305,-1.2305,-1.2305,-1.2305,0.0,0.0,0.0,0.0,0.0,0.0,0.0,0.0,0.0,0.0,0.0,0.0,0.0,0.0,0.0,0.0,0.0,0.0,0.0,0.0,0.0,0.0,0.0,0.0,0.0,0.0,0.0,0.0,-1.752,-1.8395,0.0,0.0,-1.9264,-1.9791,-1.9791,-2.0237,-2.0752,-2.1262,-2.1325,-2.1741,-2.269,-2.288,-2.3198,-2.3668,-2.3798,-2.3961,-2.4222,-2.4353,-2.4484,-2.4496,-2.3872,-2.3489,-2.3293,-2.2379,-2.208,-2.2105,-2.1497,-2.1241,-2.1083,-2.1183,-2.0588,-1.9649,-1.9299,-1.8287,-1.7079,-1.6455,-1.5692,-1.4991,-1.4991,-1.4553,-1.4049,-1.3833,-1.3462,-1.2945,-1.2224,-1.215,-1.2231,-1.215,-1.2153,-1.2303,-1.2667,-1.2826,-1.289,-1.3046,-1.3054,-1.3068,-1.2933,-1.2654,-1.2499,-1.2576,-1.2576,-1.2499,-1.2344,-1.2499,-1.2654,-1.2499,-1.2654,-1.2736,-1.253,-1.2585,-1.2512,-1.2318,-1.2305,-1.2305,-1.2305,-1.2305,-1.2305,-1.2305,-1.2305,-1.2305,-1.2305,-1.2305,-1.2305,0.0,0.0,0.0,0.0,0.0,0.0,0.0,0.0,0.0,0.0,0.0,0.0,0.0,0.0,0.0,0.0,0.0,0.0,0.0,0.0,0.0,0.0,0.0,0.0,0.0,0.0,-1.6594,-1.7028,-1.7842,-1.8317,-1.8202,-1.8998,-1.9528,-1.9528,-1.9911,-2.0433,-2.1043,-2.1388,-2.2016,-2.3025,-2.3308,-2.3758,-2.4347,-2.4359,-2.459,-2.492,-2.492,-2.492,-2.4908,-2.4085,-2.3653,-2.3561,-2.2855,-2.2685,-2.2777,-2.2268,-2.1871,-2.1504,-2.1338,-2.0758,-1.9948,-1.9431,-1.8448,-1.7133,-1.6139,-1.5422,-1.499,-1.5056,-1.4676,-1.4217,-1.377,-1.3477,-1.3098,-1.2224,-1.2297,-1.2452,-1.2159,-1.2305,-1.2609,-1.2828,-1.2975,-1.3193,-1.3273,-1.3434,-1.3507,-1.3507,-1.31,-1.281,-1.2969,-1.2975,-1.2969,-1.281,-1.3055,-1.3134,-1.3048,-1.3134,-1.3133,-1.2926,-1.2889,-1.2741,-1.2472,-1.2365,-1.2305,-1.2305,-1.2305,-1.2305,-1.2305,-1.2305,-1.2305,-1.2305,-1.2305,-1.2305,-1.2305,0.0,0.0,0.0,0.0,0.0,0.0,0.0,0.0,0.0,0.0,0.0,0.0,0.0,0.0,0.0,0.0,0.0,0.0,0.0,0.0,0.0,0.0,0.0,-1.4982,-1.5204,-1.5471,-1.6237,-1.6655,-1.7226,-1.794,-1.8787,-1.9309,-1.933,-1.9987,-2.0522,-2.0996,-2.1904,-2.2686,-2.3147,-2.3905,-2.4583,-2.5124,-2.5124,-2.5531,-2.6213,-2.6213,-2.598,-2.5594,-2.4423,-2.3839,-2.3688,-2.2488,-2.2567,-2.3524,-2.3313,-2.2876,-2.2176,-2.0904,-2.038,-2.0237,-2.0288,-1.9321,-1.7784,-1.6201,-1.5674,-1.5597,-1.4972,-1.453,-1.4043,-1.2822,-1.2401,-1.2177,-1.1583,-1.1929,-1.2459,-1.2248,-1.2694,-1.3141,-1.2982,-1.3286,-1.3661,-1.3661,-1.3881,-1.4088,-1.4088,-1.3627,-1.324,-1.324,-1.324,-1.324,-1.324,-1.324,0.0,-1.324,-1.324,-1.3233,-1.3227,-1.2953,-1.2842,-1.2822,-1.2485,-1.2311,-1.2305,-1.2305,-1.2305,-1.2305,-1.2305,-1.2305,-1.2305,-1.2305,-1.2305,-1.2305,0.0,0.0,0.0,0.0,0.0,0.0,0.0,0.0,0.0,0.0,0.0,0.0,0.0,0.0,0.0,0.0,0.0,0.0,0.0,0.0,0.0,0.0,-1.4689,-1.533,-1.5188,-1.5259,-1.5965,-1.6811,-1.7373,-1.752,-1.8259,-1.8873,-1.9198,-1.9435,-1.9954,-2.0872,-2.1181,-2.1827,-2.2852,-2.3617,-2.4336,-2.5013,-2.5607,-2.6052,-2.6396,-2.6521,-2.6245,-2.5606,-2.5238,-2.4955,-2.4649,-2.4189,-2.3987,-2.3925,-2.3453,-2.2952,-2.2306,-2.1752,-2.1081,-2.0216,-1.9112,-1.7701,-1.6277,-1.5827,-1.5674,-1.575,-1.6141,-1.5304,-1.4156,-1.4282,-1.3459,-1.2492,-1.233,-1.255,-1.2844,-1.2929,-1.3227,-1.3439,-1.3439,-1.3665,-1.3968,-1.3968,-1.4028,-1.4088,-1.4088,-1.3955,-1.3848,-1.3848,-1.3848,-1.3848,-1.3848,-1.3848,0.0,-1.3848,-1.3848,-1.3768,-1.3547,-1.3447,-1.322,-1.2856,-1.2748,-1.2532,-1.2318,-1.2305,-1.2305,-1.2305,-1.2305,-1.2305,-1.2305,-1.2305,-1.2305,0.0,0.0,0.0,0.0,0.0,0.0,0.0,0.0,0.0,0.0,0.0,0.0,0.0,0.0,0.0,0.0,0.0,0.0,0.0,0.0,0.0,0.0,-1.3912,-1.4553,-1.4545,-1.4545,-1.4832,-1.5551,-1.6254,-1.6881,-1.7442,-1.8086,-1.8725,-1.9263,-1.9535,-1.9961,-2.0823,-2.1264,-2.1919,-2.2855,-2.3635,-2.426,-2.4707,-2.5229,-2.5523,-2.5734,-2.5791,-2.5581,-2.517,-2.517,-2.5028,0.0,-2.4562,-2.4394,-2.4204,-2.3361,-2.2852,0.0,0.0,0.0,0.0,0.0,-1.7501,-1.6575,-1.6276,-1.6276,-1.6442,-1.6591,-1.5772,-1.4633,-1.469,-1.375,-1.273,-1.273,-1.2974,-1.3226,-1.3313,-1.3607,-1.3828,-1.3828,-1.3961,-1.4088,-1.4088,-1.4088,-1.4088,-1.4088,-1.4088,0.0,-1.4088,-1.4088,-1.4088,-1.4088,-1.4088,-1.4088,-1.4088,-1.4088,-1.4021,-1.3848,-1.3714,-1.3454,-1.2979,-1.2896,0.0,0.0,0.0,-1.2305,-1.2305,-1.2305,0.0,0.0,0.0,-1.2305,-1.2305,0.0,0.0,0.0,-1.2305,-1.2305,0.0,0.0,0.0,0.0,0.0,0.0,0.0,0.0,0.0,0.0,0.0,0.0,0.0,0.0,0.0,0.0,-1.355,-1.3985,-1.3411,-1.3848,-1.4418,-1.5062,-1.533,-1.6026,-1.7364,-1.7951,-1.8582,-1.9274,-1.9839,-2.0368,-2.09,0.0,0.0,0.0,0.0,-2.412,-2.4276,-2.4409,-2.4492,-2.4707,-2.4779,-2.4731,-2.4515,-2.4587,-2.4683,-2.4646,-2.4189,-2.4105,-2.4154,-2.3139,-2.2703,-2.2553,-2.1721,-2.1021,-2.0226,-1.8638,-1.7997,-1.7844,-1.7049,0.0,0.0,-1.6722,-1.6013,-1.527,-1.4543,-1.3729,-1.2987,-1.2987,-1.3332,-1.3605,-1.3612,-1.3888,-1.4088,-1.4088,-1.4088,-1.4088,-1.4088,-1.4088,-1.4088,-1.4088,-1.4088,-1.4088,-1.4088,-1.4088,-1.4088,-1.4088,-1.4088,-1.4088,-1.4088,-1.4088,-1.4088,-1.4088,0.0,0.0,-1.328,-1.2973,-1.2748,-1.2371,-1.2318,-1.2305,-1.2305,-1.2305,-1.2305,-1.2305,-1.2305,-1.2305,-1.2305,-1.2305,-1.2305,-1.2305,-1.2305,-1.2305,0.0,0.0,0.0,0.0,0.0,0.0,0.0,0.0,0.0,0.0,0.0,0.0,0.0,0.0,0.0,-1.3346,-1.3992,-1.4497,-1.4353,-1.4425,-1.4497,-1.4569,-1.5275,-1.5824,-1.6105,-1.7026,-1.7831,-1.8311,-1.9319,-2.0206,-2.0785,-2.1652,0.0,-2.2478,-2.3287,-2.3728,-2.3728,-2.436,-2.4636,-2.4719,0.0,0.0,-2.4515,-2.5253,-2.5052,-2.4116,-2.4311,-2.379,-2.2767,-2.2703,-2.2478,-2.2101,-2.1088,-2.0382,-1.9825,-1.8479,-1.8006,-1.7951,-1.7473,-1.7554,-1.7789,-1.7359,-1.6659,-1.5786,-1.5119,-1.4261,0.0,-1.3574,-1.3613,-1.3743,-1.3917,-1.4041,-1.4088,-1.4088,-1.4088,-1.4088,-1.4088,-1.4088,-1.4088,-1.4088,-1.4088,-1.4088,-1.4088,-1.4088,-1.4088,-1.4088,-1.4088,-1.4088,-1.4088,-1.4088,-1.4088,-1.4088,-1.4035,-1.3881,-1.3587,-1.3293,-1.2986,-1.2755,-1.2438,-1.2305,-1.2305,-1.2305,-1.2305,-1.2305,-1.2305,-1.2305,-1.2305,-1.2305,-1.2305,-1.2305,-1.2305,-1.2305,0.0,0.0,0.0,0.0,0.0,0.0,0.0,0.0,0.0,0.0,0.0,-1.1186,0.0,0.0,-1.2973,-1.2673,-1.347,-1.4057,-1.3768,-1.4209,-1.4569,-1.4497,-1.4919,-1.5413,-1.5956,-1.6753,-1.7575,-1.8564,-1.944,-2.0245,-2.1088,-2.1568,-2.1959,-2.2402,-2.3001,-2.3372,-2.3446,-2.402,-2.4383,-2.4455,-2.4754,-2.4826,-2.4622,-2.4826,-2.4611,-2.4166,-2.379,-2.3213,-2.2553,-2.2101,-2.1883,-2.1645,-2.0391,-1.9991,-1.9894,-1.8487,-1.8023,-1.7951,-1.7797,-1.7959,-1.8282,-1.761,-1.6944,-1.6206,-1.5462,-1.4566,-1.3913,-1.3913,-1.3913,-1.3913,-1.4088,-1.4088,-1.4088,-1.4088,-1.4088,-1.4088,-1.4088,-1.4088,-1.4088,-1.4088,-1.4088,-1.4088,-1.4088,-1.4088,-1.4088,-1.4088,-1.4088,-1.4088,-1.4088,-1.4088,-1.4088,-1.4088,-1.4088,-1.3968,-1.3667,-1.3233,-1.2913,-1.2835,-1.2465,-1.2305,-1.2305,-1.2305,-1.2305,-1.2305,-1.2305,-1.2305,-1.2305,-1.2305,-1.2305,-1.2305,-1.2305,-1.2305,0.0,0.0,0.0,0.0,0.0,0.0,0.0,0.0,-0.9231,-1.0288,-1.0513,-1.0812,-1.1855,-1.2305,-1.2305,-1.1855,-1.3025,-1.3688,-1.3119,-1.4057,-1.4776,-1.4641,-1.4641,-1.5137,-1.6229,-1.6753,-1.7503,-1.8794,-1.9434,-2.0226,-2.1262,-2.1502,-2.1883,-2.2628,-2.2927,-2.3224,-2.3446,-2.3824,-2.4043,-2.42,-2.4116,-2.4273,-2.4646,-2.4043,-2.3886,-2.4082,-2.299,-2.2553,-2.2478,-2.1578,-2.1359,-2.1425,-2.001,-1.9756,-2.0051,-1.8576,-1.8112,-1.8273,-1.8201,-1.8442,-1.8683,-1.7602,-1.7025,-1.6535,-1.5477,-1.4657,-1.4088,-1.4088,-1.4088,-1.4088,-1.4088,-1.4088,-1.4088,-1.4088,-1.4088,-1.4088,-1.4088,-1.4088,-1.4088,-1.4088,-1.4088,-1.4088,-1.4088,-1.4088,-1.4088,-1.4088,-1.4088,-1.4088,-1.4088,-1.4088,-1.4088,-1.4088,-1.4088,-1.3968,-1.3667,-1.3146,-1.2889,-1.2829,-1.2465,-1.2305,-1.2305,-1.2305,-1.2305,-1.2305,-1.2305,-1.2305,-1.2305,-1.2305,-1.2298,-1.2378,-1.2378,-1.2378,-0.172,-0.3979,0.0,-0.7923,-0.8466,-0.8851,0.0,0.0,-0.9916,-1.0363,-1.0513,-1.0663,-1.1111,-1.1706,-1.2077,-1.2224,-1.339,-1.4057,-1.3492,-1.4697,-1.5409,-1.4713,-1.4919,-1.5488,-1.631,-1.6696,-1.7149,-1.7666,-1.8758,-1.9756,-2.0585,-2.1318,-2.2327,-2.3446,-2.3519,-2.3751,-2.4127,-2.4116,-2.4189,-2.42,-2.3824,-2.3751,-2.397,-2.353,-2.3224,-2.2841,-2.2176,-2.2035,-2.2101,-2.1512,-2.1436,-2.1655,-2.0323,-2.001,-2.0001,-1.8505,-1.8514,-1.9063,-1.8772,-1.8922,-1.8984,-1.735,-1.678,-1.637,-1.4741,-1.4166,-1.4088,-1.4088,-1.4088,-1.4088,-1.4088,-1.4088,-1.4088,-1.4088,-1.4088,-1.4088,-1.4088,-1.4088,-1.4088,-1.4088,-1.4088,-1.4088,-1.4088,-1.4088,-1.4088,-1.4088,-1.4088,-1.4088,-1.4088,-1.4088,-1.4088,-1.4088,-1.4088,-1.3968,-1.3667,-1.3347,-1.3039,-1.2842,-1.2465,-1.2305,-1.2305,-1.2305,-1.2305,-1.2305,-1.2305,-1.2305,-1.2305,-1.2305,-1.2378,-1.2599,-1.2599,-1.2599,-0.172,0.0,0.0,0.0,-0.8012,-0.878,-0.9155,-0.9539,-0.9992,-1.0443,-1.0513,-1.0588,-1.1037,-1.1409,-1.1706,0.0,-1.2666,-1.3258,-1.3046,-1.4194,-1.5133,-1.5117,-1.5879,-1.6468,-1.6644,-1.6891,-1.7464,-1.8311,-1.8973,-1.9687,-2.0682,-2.1088,-2.1711,-2.2703,-2.2927,-2.3446,-2.4166,-2.397,-2.4032,-2.4443,-2.3886,-2.3666,-2.3677,-2.3224,-2.2703,-2.2176,-2.1655,-2.1578,-2.1655,-2.0799,-2.0644,-2.0789,-1.9932,-1.9618,-1.9618,-1.8984,-1.8984,-1.9301,-1.9073,-1.9152,-1.8975,-1.7269,-1.6698,-1.637,-1.4664,-1.4088,-1.4088,-1.4088,-1.4088,-1.4088,-1.4088,-1.4088,-1.4088,-1.4088,-1.4088,-1.4088,-1.4088,-1.4088,-1.4088,-1.4088,-1.4088,-1.4088,-1.4088,-1.4088,-1.4088,-1.4088,-1.4088,-1.4088,-1.4088,-1.4088,-1.4088,-1.4088,-1.4088,-1.4035,-1.3915,-1.3634,-1.3333,-1.3033,-1.2726,-1.2485,-1.2311,-1.2305,-1.2305,-1.2305,-1.2305,-1.2305,-1.2305,-1.2305,-1.2378,-1.2599,-1.2599,-1.2753,-0.2189,0.0,0.0,-0.6398,-0.7399,-0.8475,-0.9003,-0.9539,-1.0143,-1.0738,-1.0812,-1.0887,-1.1186,-1.1409,-1.1484,-1.1558,-1.2224,-1.2746,-1.2599,-1.4053,-1.5209,-1.5185,-1.6676,-1.7605,-1.7258,-1.7596,-1.8177,-1.9177,-1.9469,-2.001,-2.0954,-2.1031,-2.1492,-2.2327,-2.2628,-2.3213,-2.4009,-2.374,-2.3875,-2.436,-2.3655,-2.3298,-2.3298,-2.2628,-2.2025,-2.1578,-2.1195,-2.1118,-2.1272,-2.0333,-2.001,-2.0157,-1.9539,-1.9301,-1.9301,-1.9301,-1.9301,-1.9301,-1.9301,-1.9134,-1.8709,-1.7073,-1.6393,-1.5889,-1.4358,-1.3848,-1.3848,-1.3848,-1.3901,-1.3968,-1.3968,-1.4021,-1.4088,-1.4088,-1.4088,-1.4088,-1.4088,-1.4088,-1.4088,-1.4088,-1.4088,-1.4166,-1.4412,-1.425,-1.4166,-1.4412,-1.425,-1.4088,-1.4088,-1.4088,-1.4088,-1.4088,-1.4088,-1.4088,-1.4088,-1.3814,-1.352,-1.3227,-1.2919,-1.2612,-1.2311,-1.2305,-1.2305,-1.2305,-1.2305,-1.2305,-1.2305,-1.2378,-1.2526,-1.2673,-1.2746,-1.2973,-0.329,0.0,-0.5935,-0.5915,-0.6769,-0.8016,-0.9765,-1.0143,-1.0443,-1.1484,-1.1632,-1.1706,-1.1706,-1.1706,-1.1781,-1.1929,-1.2659,-1.3025,-1.2673,-1.4903,-1.6091,-1.4687,-1.6989,-1.8536,0.0,-1.8773,-1.941,-1.9835,-2.0108,-2.0498,-2.1128,-2.1359,-2.1949,-2.2927,-2.3001,-2.3224,-2.3593,-2.3593,-2.3593,-2.3593,-2.2852,-2.2553,-2.2703,-2.1731,-2.1205,-2.1205,-2.0799,-2.0712,-2.0867,-2.0167,-2.001,-2.0157,-1.9539,-1.9301,-1.9301,-1.9301,-1.9301,-1.9301,-1.9301,-1.8736,-1.7857,-1.6708,-1.572,-1.4706,-1.3552,-1.324,-1.324,-1.324,-1.344,-1.3661,-1.3661,-1.3874,-1.4088,-1.4088,-1.4088,-1.4088,-1.4088,-1.4088,-1.4088,-1.4088,-1.4088,-1.4334,-1.5235,-1.4657,-1.4419,-1.5235,-1.4664,-1.4088,-1.4088,-1.4088,-1.4088,-1.4088,-1.4088,-1.4088,-1.4088,-1.3814,-1.352,-1.3227,-1.2919,-1.2612,-1.2311,-1.2305,-1.2305,-1.2305,-1.2305,-1.2305,-1.2305,-1.2526,-1.2673,-1.29,-1.3119,-1.3273,-0.2744,0.0,-0.5312,-0.5458,-0.6619,-0.7859,-0.8618,-0.9604,-1.0513,-1.0812,-1.1335,-1.1706,-1.1706,-1.1781,-1.1929,-1.2003,-1.2445,-1.2739,-1.2599,-1.4618,-1.5733,-1.4828,-1.7468,0.0,0.0,0.0,0.0,-2.0304,-2.0576,-2.0819,-2.1205,-2.1282,-2.1512,-2.1949,-2.2025,-2.2402,-2.3224,-2.2703,-2.2703,-2.3224,-2.2553,-2.2035,-2.1731,-2.1502,-2.1195,-2.0809,-2.0489,-2.0333,-2.0177,-1.9872,-1.9627,-1.9608,-1.9381,-1.9301,-1.9301,-1.9301,-1.9301,-1.9222,-1.8647,-1.8247,-1.7738,-1.6238,-1.5323,-1.4728,-1.3763,-1.336,-1.3213,-1.3213,-1.328,-1.3353,-1.3353,-1.3427,-1.3554,-1.3748,-1.3794,-1.4007,-1.4775,-1.4496,-1.425,-1.4824,-1.4985,-1.4901,-1.458,-1.4741,-1.4908,-1.458,-1.425,-1.4088,-1.4088,-1.4088,-1.4088,-1.4088,-1.4088,-1.4088,-1.4088,-1.3995,-1.3734,-1.324,-1.3113,-1.2826,-1.2325,-1.2305,-1.2305,-1.2305,-1.2452,-1.2526,-1.2526,-1.2673,-1.29,-1.3119,-1.3193,-1.3462,-0.2196,-0.3446,-0.4849,-0.4921,-0.6005,-0.7238,-0.8003,-0.9221,-1.0282,-1.0663,-1.1409,-1.2003,-1.2003,-1.2157,-1.2445,-1.2659,-1.3051,-1.3343,-1.3417,-1.5048,-1.5953,-1.505,-1.7723,0.0,0.0,0.0,0.0,-2.0789,-2.0974,-2.1205,-2.1282,-2.1359,-2.1512,-2.1578,-2.1578,-2.1959,-2.2703,-2.2187,-2.2176,-2.2777,-2.2176,-2.1655,-2.1282,-2.1041,-2.0799,-2.0489,-2.0186,-1.9951,-1.9794,-1.9636,-1.9478,-1.9301,-1.9301,-1.9301,-1.9301,-1.9301,-1.9301,-1.9222,-1.8647,-1.8078,-1.7326,-1.6149,-1.5087,-1.417,-1.3507,-1.312,-1.2886,-1.2886,-1.2959,-1.3046,-1.3046,-1.3126,-1.326,-1.3447,-1.3487,-1.3777,-1.4756,-1.4561,-1.4323,-1.488,-1.5205,-1.5286,-1.4739,-1.5234,-1.5262,-1.4237,-1.4088,-1.4088,-1.4088,-1.4088,-1.425,-1.4496,-1.458,-1.458,-1.458,-1.458,-1.42,-1.3394,-1.3267,-1.2986,-1.2485,-1.2432,-1.2378,-1.2378,-1.2599,-1.2673,-1.2673,-1.29,-1.3046,-1.32,-1.3388,-1.3703,-0.1649,-0.2979,-0.4382,-0.4384,-0.5002,-0.616,-0.7923,-0.8988,-0.9825,-1.0807,-1.1855,-1.2526,0.0,-1.2746,-1.3112,-1.3825,-1.4309,-1.4672,-1.4746,-1.6158,-1.6702,0.0,0.0,0.0,0.0,0.0,0.0,-2.1128,0.0,-2.1502,-2.1502,-2.1731,-2.1807,-2.1807,-2.1807,-2.1883,-2.2101,-2.2101,-2.2187,-2.2327,-2.1807,-2.1502,-2.1349,-2.0411,-2.002,-2.0264,-1.9803,-1.9645,-1.9645,-1.9645,-1.9478,-1.9301,-1.9301,-1.9301,-1.9301,-1.9301,-1.9301,-1.9301,-1.9301,-1.8158,-1.6724,-1.6397,-1.4872,-1.3232,-1.2936,-1.2552,-1.2305,-1.2305,-1.2505,-1.2802,-1.2802,-1.2939,-1.3166,-1.318,-1.3186,-1.3416,-1.418,-1.4328,-1.4328,-1.4328,-1.4949,-1.5496,-1.5674,-1.5866,-1.5556,-1.4246,-1.4126,-1.4132,-1.4082,-1.4173,-1.4496,-1.5311,-1.5477,-1.5477,-1.5394,-1.5394,-1.4842,-1.3641,-1.336,-1.306,-1.2815,-1.2682,-1.2599,-1.2599,-1.2826,-1.29,-1.29,-1.3119,-1.3193,-1.3207,-1.3754,-1.3989,-0.2198,-0.3057,-0.3995,-0.4148,-0.5386,-0.6626,-0.6927,-0.8223,-0.9448,-0.9674,-1.0956,-1.1929,0.0,-1.2452,-1.2966,-1.3185,-1.3404,0.0,-1.3931,-1.537,0.0,-1.5378,0.0,-1.9353,-1.8014,-2.0079,0.0,0.0,-2.0867,-2.1589,-2.1731,-2.1807,-2.1807,-2.1807,-2.1959,-2.2025,-2.2101,-2.2252,-2.2101,-2.1731,-2.1731,-2.1262,-2.0333,-2.0411,-2.0186,-1.9794,-2.0029,-2.0029,-1.9784,-1.9784,-1.9715,-1.9478,-1.9381,-1.9301,-1.9301,-1.9301,-1.9301,-1.9301,-1.9301,-1.8567,-1.7415,-1.6106,-1.4977,-1.4038,-1.3348,-1.2719,-1.2305,-1.2305,-1.2358,-1.2418,-1.2418,-1.2472,-1.2592,-1.2812,-1.2866,-1.3383,-1.4996,-1.4802,-1.4491,-1.5204,-1.4957,-1.4879,-1.5597,-1.5196,-1.4496,-1.3574,-1.3888,-1.4209,-1.4112,-1.4664,-1.5151,-1.5394,-1.5966,-1.6124,-1.5477,-1.5394,-1.4832,-1.3353,-1.3398,-1.3185,-1.2662,-1.2788,-1.2826,-1.2826,-1.3046,-1.3119,-1.3119,-1.3346,-1.3419,-1.3426,-1.3828,-1.4114,-0.282,-0.36,-0.4382,-0.5157,-0.6005,-0.678,-0.7165,-0.8232,-0.9296,-0.9744,-1.0875,0.0,-1.2298,-1.282,0.0,0.0,0.0,0.0,-1.4585,-1.5605,-1.6188,0.0,-1.7629,0.0,-1.7925,-1.9432,-2.0226,0.0,-2.0934,-2.1645,-2.1405,-2.1797,-2.2025,-2.2025,-2.2176,-2.2252,-2.2327,-2.2553,-2.2327,-2.1731,-2.1645,-2.1021,-2.001,-2.0098,-2.002,-1.9715,0.0,-2.0186,-2.0108,-2.0108,-1.9951,-1.9715,-1.9469,-1.939,-1.939,-1.9301,-1.9301,-1.9301,-1.9301,-1.8975,-1.8238,-1.6535,-1.5036,-1.3824,-1.3365,-1.2786,-1.2298,-1.2378,-1.2452,-1.2452,-1.2526,-1.2526,-1.2647,-1.2811,-1.2852,-1.3269,-1.5016,-1.4973,-1.5048,-1.6249,-1.5782,-1.5378,-1.5997,-1.5344,-1.456,-1.3945,-1.381,-1.3936,-1.4123,-1.5094,-1.5889,-1.6519,-1.6944,-1.6944,-1.6041,-1.5966,-1.5264,-1.3588,-1.3498,-1.3283,-1.2893,-1.297,-1.3046,-1.3046,-1.32,-1.3346,-1.3346,-1.3419,-1.3492,-1.3506,-1.3975,-1.4296,-0.3593,-0.4453,-0.5231,-0.6475,-0.67,-0.693,-0.7791,-0.8551,-0.9377,-1.0271,0.0,-1.2231,-1.2973,-1.3346,-1.3702,-1.433,0.0,-1.5213,-1.5639,-1.6068,-1.6341,-1.6374,-1.718,-1.7772,-1.7925,-1.8789,-1.9423,-1.9668,-2.1165,-2.1711,-2.0924,-2.1852,-2.2402,-2.2478,-2.2478,-2.2478,-2.2628,-2.2777,-2.2542,-2.1873,-2.1318,-2.0702,-2.0079,-1.9784,-1.9715,-1.9942,0.0,0.0,-2.0342,-2.0342,-2.0186,-1.9942,-1.9715,-1.9636,-1.9636,-1.939,-1.9301,-1.9301,-1.9301,-1.9143,-1.8727,-1.7131,-1.524,-1.3509,-1.3239,-1.2752,-1.2378,-1.2599,-1.2599,-1.2673,-1.2826,-1.29,-1.29,-1.29,-1.29,-1.3258,-1.4617,-1.5125,-1.5762,-1.7107,-1.6811,-1.6342,-1.6454,-1.5788,-1.5083,-1.4552,-1.3769,-1.3478,-1.4193,-1.5349,-1.6476,-1.7738,-1.7931,-1.7709,-1.6871,-1.6668,-1.5871,-1.4163,-1.3691,-1.3459,-1.3306,-1.3262,-1.3273,-1.3273,-1.3419,-1.3492,-1.3492,-1.3492,-1.3492,-1.3514,-1.4165,-1.4472,-0.5148,-0.5693,-0.6009,-0.624,-0.6934,-0.7548,-0.7399,-0.8618,0.0,0.0,-1.1186,-1.2298,-1.2452,-1.3046,-1.3564,-1.371,0.0,0.0,0.0,0.0,-1.5521,0.0,0.0,0.0,0.0,0.0,0.0,0.0,0.0,0.0,-2.1425,-2.2025,-2.2478,-2.2628,-2.2628,-2.2478,-2.2176,-2.2252,-2.1711,-2.0557,-2.0391,-2.0079,-1.946,-1.9706,-1.9863,-1.9942,0.0,0.0,-2.0566,-2.0342,-2.0264,-2.0186,-1.9942,-1.9863,-1.9784,-1.9636,-1.9557,-1.9557,-1.9381,-1.8327,-1.7058,-1.6525,-1.5913,-1.5065,-1.3502,-1.2729,-1.2378,-1.2746,-1.2753,-1.2673,-1.2826,-1.29,-1.29,-1.29,-1.29,-1.3331,-1.484,-1.5683,-1.6167,-1.6455,-1.6376,-1.6114,-1.5556,-1.5215,-1.472,-1.3975,-1.3623,-1.3585,-1.4079,-1.5088,-1.6094,-1.6928,-1.7632,-1.784,-1.7282,-1.6546,-1.5646,-1.4687,-1.3993,-1.345,-1.3212,-1.3375,-1.3419,-1.3419,-1.3499,-1.3492,-1.3492,-1.3492,-1.3492,-1.3514,-1.4165,-1.4472,-0.6157,-0.6777,-0.7088,-0.7395,-0.7783,-0.8093,-0.8008,0.0,0.0,0.0,-1.1484,-1.2452,-1.2826,0.0,0.0,0.0,0.0,0.0,0.0,0.0,0.0,0.0,0.0,0.0,0.0,0.0,0.0,0.0,0.0,0.0,-2.0991,-2.208,-2.2777,-2.2852,-2.2852,-2.2628,-2.2101,-2.2101,-2.1482,-2.0167,-2.0167,-1.9932,-1.9469,-1.9784,-1.9942,-2.0098,-2.0489,0.0,-2.0566,-2.0489,-2.0498,-2.0411,-2.0177,-2.0108,-2.0108,-1.9872,-1.9794,-1.9715,-1.9627,-1.8919,-1.7883,-1.6727,-1.556,-1.444,-1.3439,-1.2914,-1.2673,-1.2973,-1.2973,-1.3039,-1.3608,-1.3477,-1.3339,-1.368,-1.3688,-1.3977,-1.5188,-1.5965,-1.6594,-1.7088,-1.6862,-1.6585,-1.6673,-1.5824,-1.5108,-1.4673,-1.4106,-1.3812,-1.4058,-1.4433,-1.5062,-1.6144,-1.6657,-1.6573,-1.588,-1.5331,-1.4712,-1.3785,-1.333,-1.3028,-1.2854,-1.2917,-1.3067,-1.3243,-1.3243,-1.3323,-1.3492,-1.3492,-1.3492,-1.3514,-1.4165,-1.4472,-0.7234,-0.7931,-0.8389,-0.9079,-0.9079,-0.9003,-0.9155,-0.975,0.0,0.0,-1.2003,-1.2746,-1.3346,0.0,-1.3848,0.0,0.0,0.0,0.0,0.0,0.0,0.0,0.0,0.0,0.0,0.0,0.0,0.0,0.0,0.0,-2.1038,-2.2295,-2.3001,-2.3001,-2.2852,-2.2553,-2.1939,-2.1797,-2.1175,-2.0089,-2.0089,-1.9942,-1.9636,-1.9872,-2.0108,-2.0342,-2.0489,0.0,0.0,-2.0566,-2.0566,-2.0566,-2.042,-2.0342,-2.0342,-2.0108,-2.0029,-1.9932,-1.9847,-1.9446,-1.8776,-1.7128,-1.5531,-1.4099,-1.3492,-1.323,-1.3185,-1.3266,-1.32,-1.3411,-1.4186,-1.3912,-1.3637,-1.4258,-1.433,-1.4545,-1.5321,-1.6105,-1.6811,-1.7373,-1.7295,-1.7226,-1.7442,-1.6314,-1.5345,-1.5134,-1.4222,-1.3543,-1.3622,-1.3397,-1.3674,-1.4821,-1.5287,-1.52,-1.4494,-1.4197,-1.3745,-1.3023,-1.2796,-1.2575,-1.2533,-1.2519,-1.2643,-1.2899,-1.2899,-1.3067,-1.3389,-1.3389,-1.3426,-1.3506,-1.4092,-1.4406,-0.8689,-0.9382,-0.9916,-1.0663,-1.0887,-1.0887,-1.0887,0.0,0.0,-1.215,-1.282,-1.3419,-1.3492,-1.4201,-1.476,0.0,0.0,-1.5895,0.0,0.0,0.0,0.0,0.0,0.0,0.0,0.0,0.0,0.0,0.0,0.0,0.0,-2.2927,-2.3001,-2.3001,-2.2478,-2.1863,-2.1318,-2.0944,-2.0411,-1.9636,-1.9863,-1.9942,-1.9863,-2.0108,-2.0264,-2.0342,0.0,0.0,0.0,-2.0566,-2.0566,-2.0566,-2.0566,-2.0566,-2.0566,-2.0342,-2.0264,-2.0207,-1.9602,-1.881,-1.8024,-1.734,-1.6863,-1.6122,-1.3902,-1.3499,-1.3833,-1.3564,-1.3346,-1.3273,-1.3564,-1.3564,-1.3492,-1.3564,-1.4122,-1.4609,-1.4673,-1.5807,-1.6655,-1.6026,-1.7019,-1.751,-1.6167,-1.5454,-1.4822,-1.4071,-1.2912,-1.2114,-1.2114,-1.2093,-1.2107,-1.2261,-1.3489,-1.4488,-1.4709,-1.397,-1.3635,-1.387,-1.2998,-1.248,-1.2519,-1.2519,-1.2533,-1.257,-1.257,-1.2731,-1.3053,-1.3053,-1.3206,-1.3506,-1.3857,-1.4187,-0.9064,-0.9685,-1.0067,-1.0887,-1.1111,-1.1111,-1.1111,0.0,-1.2305,-1.2305,-1.2973,-1.371,-1.4274,-1.4274,-1.4625,-1.5737,-1.5745,0.0,0.0,0.0,0.0,0.0,0.0,0.0,0.0,0.0,0.0,0.0,0.0,0.0,0.0,-2.2327,-2.2402,-2.3001,-2.2327,-2.1863,-2.1766,-2.1088,-2.0401,-1.9794,-1.9863,-1.9942,-2.0108,-2.0264,-2.0342,-2.0498,0.0,0.0,0.0,-2.0566,-2.0566,-2.0566,-2.0566,-2.0566,-2.0537,-2.0197,-2.0023,-1.9965,-1.9474,-1.8924,-1.8274,-1.7587,-1.7454,-1.7223,-1.5292,-1.4537,-1.4322,-1.4186,-1.3768,-1.3492,-1.4049,-1.4186,-1.4049,-1.3637,-1.3702,-1.4049,-1.453,-1.5455,-1.6166,-1.5996,-1.6505,-1.6701,-1.5918,-1.5207,-1.4513,-1.3858,-1.3344,-1.2781,-1.2308,-1.2076,-1.1961,-1.1961,-1.2454,-1.2878,-1.3009,-1.263,-1.246,-1.2523,-1.2208,-1.1948,-1.1948,-1.1948,-1.2028,-1.2226,-1.2226,-1.2387,-1.2716,-1.2914,-1.3075,-1.3214,-1.3889,-1.4282,-0.9588,-1.0276,-1.0812,-1.1632,-1.1781,-1.1855,0.0,0.0,-1.2673,-1.2753,-1.3193,-1.3848,-1.476,-1.4768,-1.5117,-1.6636,-1.6576,-1.6585,-1.7207,0.0,0.0,0.0,0.0,0.0,0.0,0.0,0.0,0.0,0.0,0.0,0.0,-2.1797,-2.1949,-2.3001,-2.2025,-2.1634,-2.1766,-2.1088,-2.0489,-2.002,-2.0098,-2.0177,-2.042,-2.042,-2.0498,-2.0566,0.0,0.0,0.0,-2.042,-2.0371,-2.0361,-2.0234,-2.0185,-2.0156,-1.9844,-1.9727,-1.9668,-1.9238,-1.8896,-1.8472,-1.7854,-1.7827,-1.7803,-1.6733,-1.5666,-1.4887,-1.4673,-1.4049,-1.371,-1.4394,-1.4466,-1.4186,-1.3912,-1.363,-1.3608,-1.4063,-1.4733,-1.5255,-1.5423,-1.5818,-1.5926,-1.5513,-1.4918,-1.4202,-1.3557,-1.3288,-1.2891,-1.2307,-1.2036,-1.1897,-1.1897,-1.1833,-1.181,-1.1725,-1.1775,-1.1674,-1.1637,-1.1622,-1.1622,-1.1622,-1.1622,-1.167,-1.1889,-1.1897,-1.205,-1.238,-1.2606,-1.2819,-1.3094,-1.3702,-1.4171,-1.064,-1.1539,-1.2452,-1.3273,-1.3499,-1.3499,0.0,-1.3645,-1.3572,-1.3717,-1.379,-1.4,-1.476,-1.5807,-1.6844,-1.756,-1.8452,0.0,0.0,0.0,0.0,0.0,0.0,0.0,0.0,0.0,0.0,0.0,0.0,0.0,0.0,-2.1461,-2.1993,-2.3001,-2.1624,-2.0944,-2.0944,-2.0489,-2.0264,-2.0264,-2.0489,-2.0566,-2.0566,-2.0566,-2.0566,0.0,0.0,0.0,0.0,-2.0098,-1.9922,-1.9883,-1.9463,-1.9297,-1.9297,-1.9297,-1.9297,-1.9238,-1.8799,-1.8572,-1.8494,-1.8154,-1.8018,-1.8008,-1.8008,-1.6872,-1.5525,-1.4816,-1.4049,-1.371,-1.4394,-1.4049,-1.3702,-1.4394,-1.4049,-1.3404,-1.3082,-1.3615,-1.4058,-1.3806,-1.4837,-1.5542,-1.4754,-1.4316,-1.387,-1.3108,-1.2201,-1.1637,-1.163,-1.163,-1.163,-1.163,-1.163,-1.163,-1.163,-1.163,-1.163,-1.1622,-1.1622,-1.1622,-1.1622,-1.1622,-1.1622,-1.163,-1.163,-1.1721,-1.2036,-1.1978,-1.2446,-1.3297,-1.3304,-1.3799,-1.1896,-1.2345,-1.2872,-1.3695,-1.392,-1.392,-1.3992,-1.3992,-1.392,-1.3992,-1.4425,-1.5054,-1.5877,-1.6358,-1.7051,-1.8452,-1.8452,-1.8519,0.0,0.0,0.0,0.0,0.0,0.0,0.0,0.0,0.0,0.0,0.0,0.0,0.0,-2.2968,-2.3202,-2.3694,-2.2285,-2.1756,-2.236,-2.1088,-2.0489,-2.0489,-2.0731,-2.0731,-2.0557,-2.0407,0.0,0.0,0.0,0.0,0.0,-1.9541,-1.9482,-1.9473,-1.9336,-1.9287,-1.9248,-1.8955,-1.8848,-1.8779,-1.8359,-1.8213,-1.8184,-1.8057,-1.8008,-1.8008,-1.8008,-1.7295,-1.6376,-1.5596,-1.518,-1.5046,-1.5313,-1.518,-1.4966,-1.4681,-1.4285,-1.3746,-1.3094,-1.3447,-1.3715,-1.3282,-1.3983,-1.4342,-1.3326,-1.3062,-1.2811,-1.214,-1.1814,-1.1622,-1.1622,-1.1622,-1.1622,-1.1622,-1.1622,-1.1622,-1.1622,-1.1622,-1.1622,-1.1622,-1.1622,-1.1622,-1.1622,-1.1622,-1.1622,-1.1622,-1.1685,-1.1799,-1.1833,-1.2183,-1.2764,-1.3631,-1.3939,-1.4374,0.0,-1.3852,-1.4299,-1.4824,-1.4697,0.0,0.0,-1.4553,-1.4489,-1.4274,-1.5046,-1.5886,-1.6498,-1.6913,-1.7541,-1.8865,-1.8731,0.0,0.0,0.0,0.0,0.0,0.0,0.0,0.0,0.0,0.0,0.0,0.0,0.0,0.0,0.0,-2.3918,-2.4213,-2.2922,-2.2275,-2.2316,-2.1281,-2.0539,-2.0088,-2.0335,-2.0335,-2.0078,-2.0093,0.0,0.0,0.0,0.0,0.0,-1.9111,-1.9043,-1.9023,-1.8867,-1.8809,-1.8769,-1.8496,-1.8398,-1.8359,-1.8105,-1.8008,-1.8008,-1.8008,-1.8008,-1.8008,-1.8008,-1.7501,-1.6724,-1.5956,-1.5675,-1.5745,-1.6088,-1.5956,-1.557,-1.5006,-1.4445,-1.3799,-1.2824,-1.2818,-1.2964,-1.2544,-1.3034,-1.3265,-1.2605,-1.2512,-1.2389,-1.1981,-1.174,-1.1622,-1.1622,-1.1622,-1.1622,-1.1622,-1.1622,-1.1622,-1.1622,-1.1622,-1.1622,-1.1622,-1.1622,-1.1622,-1.1685,-1.1685,-1.1685,-1.1817,-1.1872,-1.1934,-1.1934,-1.2531,-1.3099,-1.366,-1.4206,-1.4615,0.0,-1.5913,-1.6376,0.0,0.0,0.0,-1.5534,-1.5471,0.0,-1.4713,-1.5745,-1.6706,-1.6706,-1.7472,-1.8307,-1.8998,-1.9208,0.0,0.0,0.0,0.0,0.0,0.0,0.0,0.0,0.0,0.0,0.0,0.0,0.0,0.0,0.0,-2.4213,-2.4462,-2.3583,-2.2421,-2.1167,-2.1094,-2.0459,-1.9287,-1.9525,-1.9525,-1.936,-1.962,0.0,0.0,0.0,0.0,0.0,-1.876,-1.8594,-1.8555,-1.8164,-1.8008,-1.8008,-1.8008,-1.8008,-1.8008,-1.8008,-1.8008,-1.8008,-1.8008,-1.8008,-1.8008,-1.8008,-1.751,-1.6793,-1.6097,-1.5886,-1.6026,-1.6793,-1.6419,-1.5756,-1.5411,-1.473,-1.3763,-1.2349,-1.2014,-1.1911,-1.1619,-1.2035,-1.2451,-1.2451,-1.2451,-1.2451,-1.2451,-1.1981,-1.1622,-1.1622,-1.1622,-1.1622,-1.1622,-1.1622,-1.1622,-1.1622,-1.1622,-1.1622,-1.1622,-1.1622,-1.1685,-1.1809,-1.1802,-1.1934,-1.2127,-1.2127,-1.2135,-1.2158,-1.3022,-1.3439,-1.3478,-1.4269,-1.4569,-1.9509,0.0,-1.6793,-1.6793,-1.6655,-1.6515,0.0,-1.6515,-1.6446,-1.6306,-1.707,-1.7687,-1.7687,-1.8307,-1.8931,-1.9208,-1.9285,0.0,0.0,0.0,0.0,0.0,0.0,0.0,0.0,0.0,0.0,0.0,0.0,0.0,0.0,0.0,-2.4431,-2.453,-2.3914,-2.2937,-2.1398,-2.077,-2.0082,-1.9287,-1.967,-1.9753,-1.9525,-1.9525,0.0,0.0,0.0,0.0,-1.8645,-1.8272,-1.8223,-1.835,-1.8115,-1.8008,-1.8008,-1.8008,-1.8008,-1.8008,-1.8008,-1.8008,-1.8008,-1.8008,-1.8008,-1.8008,-1.8008,-1.7872,-1.7725,-1.751,-1.7442,-1.751,-1.7725,-1.735,-1.6806,-1.6151,-1.4998,-1.3816,-1.2948,-1.2213,-1.1655,-1.1637,-1.1677,-1.1802,-1.1802,-1.1802,-1.1802,-1.1802,-1.1685,-1.1622,-1.1622,-1.1622,-1.1622,-1.1622,-1.1685,-1.174,-1.174,-1.174,-1.174,-1.174,-1.1872,-1.1996,-1.2058,-1.2058,-1.2058,-1.2127,-1.2182,-1.2438,-1.2838,-1.332,-1.366,-1.3937,-1.4364,-1.4569,-2.1101,-2.0052,-1.8803,-1.8803,-1.8335,-1.7862,-1.7862,-1.7609,-1.7276,0.0,0.0,0.0,0.0,0.0,0.0,0.0,0.0,0.0,0.0,0.0,0.0,0.0,0.0,0.0,0.0,0.0,0.0,0.0,0.0,0.0,0.0,0.0,-2.4128,-2.3821,-2.361,-2.2904,-2.1665,-2.1257,-2.0461,-1.9303,-1.9612,-1.9553,-1.9134,-1.9229,-1.9175,0.0,0.0,0.0,-1.8482,-1.8279,-1.8279,-1.8269,-1.8279,-1.8212,-1.8144,-1.8212,-1.8212,-1.8144,-1.8144,-1.8076,-1.8008,-1.8008,-1.8008,-1.8008,-1.8008,-1.8008,-1.8008,-1.8008,-1.8008,-1.8008,-1.8008,-1.7695,-1.7062,-1.5839,-1.4801,-1.3756,-1.2593,-1.1992,-1.1622,-1.1622,-1.1622,-1.1622,-1.1622,-1.1622,-1.1622,-1.1622,-1.1622,-1.1622,-1.1622,-1.1622,-1.1622,-1.1685,-1.174,-1.1872,-1.1934,-1.1996,-1.1988,-1.1934,-1.2058,-1.2127,-1.2182,-1.2182,-1.2251,-1.2313,-1.2375,-1.2672,-1.3092,-1.3631,-1.4044,-1.4393,-1.489,-1.5062,-2.2053,-2.1892,-2.1604,-2.1187,-2.0193,-1.9333,-1.9333,0.0,0.0,0.0,0.0,0.0,0.0,0.0,0.0,0.0,0.0,0.0,0.0,0.0,0.0,0.0,0.0,0.0,0.0,0.0,0.0,0.0,0.0,0.0,0.0,0.0,0.0,-2.3119,-2.2947,-2.2567,-2.1832,-2.1766,-2.0951,-1.9299,-1.9528,-1.9208,-1.8549,-1.8942,-1.8942,0.0,0.0,0.0,-1.8617,-1.8549,-1.8482,-1.8405,-1.8482,-1.8405,-1.8337,-1.8482,-1.8414,-1.8337,-1.8337,-1.8212,-1.8076,-1.8076,-1.8008,-1.8008,-1.8008,-1.8008,-1.8008,-1.8008,-1.8008,-1.7998,-1.793,-1.7598,-1.6908,-1.5219,-1.4438,-1.3576,-1.2049,-1.1685,-1.1622,-1.1622,-1.1622,-1.1622,-1.1622,-1.1622,-1.1622,-1.1622,-1.1622,-1.1622,-1.1622,-1.1622,-1.1622,-1.1809,-1.1802,-1.1934,-1.212,-1.2243,-1.2305,-1.2189,-1.2189,-1.2243,-1.2367,-1.2367,-1.2436,-1.2621,-1.2621,-1.2829,-1.33,-1.3925,-1.4413,-1.488,-1.5539,-1.5621,-2.4155,-2.4341,-2.3878,-2.1667,-2.0933,-2.0794,-2.0794,-2.0666,0.0,0.0,0.0,0.0,0.0,0.0,0.0,0.0,0.0,0.0,0.0,0.0,0.0,0.0,0.0,0.0,0.0,0.0,0.0,0.0,0.0,0.0,0.0,0.0,0.0,-2.3426,-2.2258,-2.1631,-2.1504,-2.1314,-2.0551,-1.9299,-1.9528,-1.9274,-1.8741,-1.9008,-1.9075,0.0,0.0,-1.8875,-1.9008,-1.8617,-1.8617,-1.8674,-1.8549,-1.8482,-1.8482,-1.8482,-1.8482,-1.8482,-1.8482,-1.8347,-1.8269,-1.8269,-1.8144,-1.8008,-1.8008,-1.8008,-1.8008,-1.8008,-1.8008,-1.793,-1.7568,-1.7158,-1.6519,-1.5311,-1.4294,-1.3388,-1.2528,-1.1981,-1.1622,-1.1622,-1.1622,-1.1622,-1.1622,-1.1622,-1.1622,-1.1622,-1.1622,-1.1622,-1.1622,-1.1622,-1.1622,-1.1809,-1.1934,-1.212,-1.2243,-1.2428,-1.256,-1.2498,-1.2498,-1.2498,-1.256,-1.256,-1.256,-1.2621,-1.2621,-1.3074,-1.4057,-1.4115,-1.4681,-1.5607,-1.5737,-1.5762,-2.5036,-2.5356,-2.5204,-2.3618,-2.2688,-2.2027,-2.1729,-2.1376,0.0,0.0,0.0,0.0,0.0,0.0,0.0,0.0,0.0,0.0,0.0,0.0,0.0,0.0,0.0,0.0,0.0,0.0,0.0,0.0,0.0,0.0,0.0,0.0,0.0,0.0,-2.2157,-2.1639,-2.1502,-2.1071,-2.0366,-1.9452,-2.0053,-1.9857,-1.8942,-1.9075,-1.9075,-1.9065,0.0,-1.9008,-1.9075,-1.8875,-1.8808,-1.8808,-1.8808,-1.8741,-1.8674,-1.8674,-1.8674,-1.8684,-1.8549,-1.8482,-1.8414,-1.8337,-1.8269,-1.8144,-1.8008,-1.8008,-1.8008,-1.8008,-1.8008,-1.791,-1.749,-1.7061,-1.636,-1.4908,-1.4022,-1.3199,-1.222,-1.1802,-1.1622,-1.1622,-1.1622,-1.1622,-1.1622,-1.1622,-1.1622,-1.1685,-1.1685,-1.1747,-1.1879,-1.1872,-1.1934,-1.2058,-1.2182,-1.2305,-1.2436,-1.256,-1.2621,-1.2621,-1.2621,-1.2621,-1.2621,-1.2621,-1.2683,-1.2805,-1.3054,-1.3531,-1.4453,-1.4855,-1.5444,-1.6053,-1.6263,-1.6263,-2.5957,-2.625,-2.6366,-2.5727,0.0,-2.3382,-2.2701,-2.2163,0.0,0.0,0.0,0.0,0.0,0.0,0.0,0.0,0.0,0.0,0.0,0.0,0.0,0.0,0.0,0.0,0.0,0.0,0.0,0.0,0.0,0.0,0.0,0.0,0.0,0.0,-2.2199,-2.1815,-2.1678,-2.0996,-2.0302,-1.9671,-2.0324,-2.0118,-1.9075,-1.9075,-1.9075,-1.9075,-1.9075,-1.9075,-1.9075,-1.9075,-1.9008,-1.8875,-1.9075,-1.9008,-1.8875,-1.8875,-1.8875,-1.8875,-1.8674,-1.8617,-1.8549,-1.8472,-1.8337,-1.8269,-1.8144,-1.8008,-1.7988,-1.7891,-1.7861,-1.7764,-1.7334,-1.6904,-1.6143,-1.4391,-1.3716,-1.3147,-1.1864,-1.1622,-1.1622,-1.1622,-1.1622,-1.1622,-1.1622,-1.1622,-1.1685,-1.1802,-1.1872,-1.1934,-1.2065,-1.2127,-1.212,-1.2305,-1.2305,-1.2367,-1.256,-1.2621,-1.2621,-1.2621,-1.2621,-1.2629,-1.2683,-1.2683,-1.2805,-1.3103,-1.3522,-1.4072,-1.4763,-1.5428,-1.6029,-1.6421,-1.6769,-1.676,-2.765,-2.7735,-2.767,-2.7309,-2.6246,0.0,-2.415,-2.3943,0.0,-2.3065,0.0,0.0,0.0,0.0,0.0,0.0,0.0,0.0,0.0,0.0,0.0,0.0,0.0,0.0,0.0,0.0,0.0,0.0,0.0,0.0,0.0,0.0,0.0,0.0,0.0,-2.1877,-2.1877,-2.1152,-2.0462,-1.9868,-1.9933,-1.9671,-1.9075,-1.9075,-1.9075,-1.9075,-1.9075,-1.9075,-1.9075,-1.9075,-1.9075,-1.9065,-1.9065,-1.9075,-1.9065,-1.9065,-1.9065,-1.9075,-1.9075,-1.8942,-1.8808,-1.8741,-1.8539,-1.8269,-1.8269,-1.8144,-1.793,-1.7539,-1.7432,-1.7334,-1.6894,-1.6445,-1.5693,-1.3943,-1.3528,-1.3147,-1.1864,-1.1622,-1.1622,-1.1622,-1.1622,-1.1622,-1.1622,-1.1685,-1.1809,-1.1802,-1.1934,-1.2065,-1.2127,-1.2127,-1.212,-1.2305,-1.2305,-1.2367,-1.256,-1.2621,-1.2621,-1.2621,-1.2621,-1.2683,-1.2989,-1.2981,-1.3103,-1.345,-1.3834,-1.4409,-1.5189,-1.557,-1.6165,-1.6839,-1.6908,-1.6908,-2.8143,-2.8415,-2.8559,-2.8258,-2.7902,0.0,0.0,-2.5134,-2.4851,-2.461,-2.4337,0.0,0.0,0.0,0.0,0.0,0.0,0.0,0.0,0.0,0.0,0.0,0.0,0.0,0.0,0.0,0.0,0.0,0.0,0.0,0.0,0.0,0.0,0.0,0.0,-2.199,-2.199,-2.1353,-2.0858,-2.0624,-2.0237,-1.9715,-1.9075,-1.9075,-1.9075,-1.9075,-1.9075,-1.9075,-1.9075,-1.9075,-1.9075,-1.9075,-1.9075,-1.9075,-1.9075,-1.9075,-1.9075,-1.9075,-1.9075,-1.9065,-1.8942,-1.8808,-1.8741,-1.8607,-1.8472,-1.8225,-1.7843,-1.7609,-1.7111,-1.6658,-1.6481,-1.6253,-1.5766,-1.4561,-1.3872,-1.326,-1.2336,-1.1856,-1.1622,-1.1622,-1.1685,-1.1747,-1.1747,-1.1872,-1.1996,-1.212,-1.2182,-1.2243,-1.2375,-1.2436,-1.2436,-1.2498,-1.2498,-1.2498,-1.256,-1.2621,-1.2621,-1.2621,-1.2621,-1.2744,-1.2989,-1.2989,-1.3386,-1.4171,-1.4565,-1.5163,-1.5885,-1.6283,-1.6615,-1.6908,-1.6908,-1.6908,-2.8857,-2.912,-2.938,0.0,0.0,0.0,-2.733,-2.6433,-2.5809,-2.5453,-2.5175,0.0,0.0,0.0,0.0,0.0,0.0,0.0,0.0,0.0,0.0,0.0,0.0,0.0,0.0,0.0,0.0,0.0,0.0,0.0,0.0,0.0,0.0,0.0,0.0,-2.1921,-2.1921,-2.1268,-2.0981,-2.1132,-2.0504,-1.9889,-1.9396,-1.9198,-1.9075,-1.9075,-1.9075,-1.9075,-1.9075,-1.9075,-1.9075,-1.9075,-1.9075,-1.9075,-1.9075,-1.9075,-1.9075,-1.9075,-1.9075,-1.9075,-1.9044,-1.8777,-1.866,-1.8507,-1.8233,-1.7926,-1.76,-1.7302,-1.6773,-1.6337,-1.6208,-1.6049,-1.5671,-1.4593,-1.3923,-1.3312,-1.2458,-1.1981,-1.1685,-1.1747,-1.1809,-1.1872,-1.1872,-1.2058,-1.2182,-1.2305,-1.2367,-1.2428,-1.256,-1.2621,-1.2621,-1.2621,-1.2621,-1.2621,-1.2621,-1.2621,-1.2621,-1.2744,-1.2744,-1.2867,-1.3164,-1.3285,-1.376,-1.4764,-1.5168,-1.5638,-1.6321,-1.6716,-1.6908,-1.6908,-1.6908,-1.6908,-2.9924,-3.0,-3.0146,0.0,0.0,0.0,-2.9166,-2.8033,-2.6709,-2.5645,0.0,0.0,0.0,0.0,0.0,0.0,0.0,0.0,0.0,0.0,0.0,0.0,0.0,0.0,0.0,0.0,0.0,0.0,0.0,0.0,0.0,0.0,0.0,0.0,-2.1769,-2.1493,-2.1493,-2.086,-2.0768,-2.1308,-2.0598,-2.0256,-2.0107,-1.9386,-1.9142,-1.9142,-1.9142,-1.9142,-1.9142,-1.9131,-1.9131,-1.9131,-1.9075,-1.9075,-1.9065,-1.9065,-1.9065,-1.9054,-1.9054,-1.9054,-1.8982,-1.8526,-1.8243,-1.8042,-1.7604,-1.7357,-1.7069,-1.6496,-1.6377,-1.6397,-1.6024,-1.5798,-1.5313,-1.3863,-1.3606,-1.3347,-1.2104,-1.1802,-1.1872,-1.2058,-1.2127,-1.2127,-1.2127,-1.2182,-1.2305,-1.2305,-1.2498,-1.2621,-1.2621,-1.2621,-1.2621,-1.2621,-1.2621,-1.2621,-1.2621,-1.2621,-1.2744,-1.2989,-1.2989,-1.3164,-1.3511,-1.383,-1.4317,-1.5102,-1.5496,-1.59,-1.6321,-1.6716,-1.6908,-1.6908,-1.6908,-1.6908,-3.0601,-3.041,0.0,-3.0593,0.0,0.0,0.0,-2.8764,0.0,0.0,0.0,0.0,0.0,0.0,0.0,0.0,0.0,0.0,0.0,0.0,0.0,0.0,0.0,0.0,0.0,0.0,0.0,0.0,0.0,0.0,0.0,0.0,0.0,0.0,-2.1312,-2.1281,-2.1338,-2.1156,-2.1173,-2.1423,-2.0744,-2.0552,-2.0805,-2.0613,-2.0484,-2.0484,-2.0484,-2.0484,-2.0484,-1.9977,-1.9781,-1.9781,-1.9264,-1.8868,-1.8589,-1.8589,-1.8392,-1.8133,-1.8133,-1.8133,-1.8112,-1.7968,-1.7864,-1.778,-1.7709,-1.7379,-1.6971,-1.6708,-1.6445,-1.6171,-1.5944,-1.5961,-1.5884,-1.54,-1.4264,-1.3243,-1.3304,-1.2658,-1.2058,-1.2058,-1.2182,-1.2243,-1.2243,-1.2367,-1.2498,-1.2498,-1.256,-1.2621,-1.2621,-1.2621,-1.2621,-1.2621,-1.2621,-1.2621,-1.2621,-1.2744,-1.2928,-1.2981,-1.3467,-1.3769,-1.3821,-1.4206,-1.4782,-1.5505,-1.5918,-1.6331,-1.6734,-1.6844,-1.6908,-1.6908,-1.6908,-1.6908,-3.1083,-3.0821,0.0,-3.0773,-3.0568,-3.013,-2.9528,0.0,0.0,0.0,0.0,0.0,0.0,0.0,0.0,0.0,0.0,0.0,0.0,0.0,0.0,0.0,0.0,0.0,0.0,0.0,0.0,0.0,0.0,0.0,0.0,0.0,0.0,0.0,-2.0527,-2.0471,-2.0623,-2.0623,-2.0832,-2.1167,-2.0767,-2.081,-2.1271,-2.0919,-2.0751,-2.0677,-2.042,-2.0302,-2.0279,-1.9641,-1.9426,-1.935,-1.8793,-1.8371,-1.8123,-1.8123,-1.7957,-1.7668,-1.7668,-1.7668,-1.7637,-1.7461,-1.7399,-1.7368,-1.7243,-1.7005,-1.6719,-1.6581,-1.6386,-1.6192,-1.6019,-1.571,-1.5468,-1.5575,-1.4737,-1.3855,-1.3734,-1.3147,-1.2544,-1.2313,-1.2375,-1.2428,-1.2428,-1.2498,-1.2621,-1.2621,-1.2621,-1.2621,-1.2621,-1.2621,-1.2621,-1.2621,-1.2621,-1.2621,-1.2621,-1.2867,-1.3042,-1.3164,-1.37,-1.4141,-1.4423,-1.4648,-1.5088,-1.568,-1.6101,-1.6514,-1.6908,-1.6908,-1.6908,-1.6908,-1.6908,-1.6908,-3.1414,0.0,0.0,-3.0692,-3.051,0.0,0.0,0.0,0.0,0.0,0.0,0.0,0.0,0.0,0.0,0.0,0.0,0.0,0.0,0.0,0.0,0.0,0.0,0.0,0.0,0.0,0.0,0.0,0.0,0.0,0.0,0.0,0.0,0.0,-1.9625,-1.942,-1.9565,-1.9565,-1.9918,0.0,-2.0589,-2.0878,-2.143,-2.0736,-2.0364,-2.0222,-1.9586,-1.9259,-1.9228,-1.8678,-1.85,-1.8405,-1.7885,-1.7647,-1.7606,-1.7606,-1.7585,-1.7605,-1.7605,-1.7605,-1.7482,-1.7059,-1.6925,-1.6901,-1.6498,-1.6384,-1.6374,-1.6181,-1.6249,-1.6259,-1.6056,-1.5294,-1.4579,-1.4796,-1.4982,-1.4756,-1.3563,-1.3329,-1.3147,-1.2683,-1.2621,-1.2621,-1.2621,-1.2621,-1.2621,-1.2621,-1.2621,-1.2621,-1.2621,-1.2621,-1.2621,-1.2621,-1.2621,-1.2621,-1.2621,-1.2928,-1.3224,-1.3511,-1.3916,-1.4405,-1.5084,-1.5139,-1.534,-1.5735,-1.6156,-1.6551,-1.6908,-1.6908,-1.6908,-1.6908,-1.6908,-1.6908,-3.2127,-3.1657,0.0,0.0,-3.0518,0.0,0.0,0.0,0.0,0.0,0.0,0.0,0.0,0.0,0.0,0.0,0.0,0.0,0.0,0.0,0.0,0.0,0.0,0.0,0.0,0.0,0.0,0.0,0.0,0.0,0.0,0.0,0.0,-1.9274,-1.9153,-1.9158,-1.9275,-1.9368,-1.9574,0.0,-1.9935,-2.0288,-2.0865,-2.1126,-2.1252,-2.1189,-2.1061,-2.0699,-2.0264,-1.9624,-1.905,-1.8552,-1.7936,-1.7451,-1.7131,-1.7131,-1.6974,-1.6674,-1.6674,-1.6674,-1.6653,-1.656,-1.6529,-1.6508,-1.6415,-1.6384,-1.6374,-1.6374,-1.6009,-1.5594,-1.5584,-1.5001,-1.4529,-1.4588,-1.4222,-1.3803,-1.3511,-1.345,-1.3277,-1.2683,-1.2621,-1.2621,-1.2621,-1.2621,-1.2621,-1.2621,-1.2621,-1.2621,-1.2621,-1.2621,-1.2621,-1.2621,-1.2805,-1.2928,-1.2928,-1.3467,-1.383,-1.389,-1.4486,-1.4939,-1.5093,-1.5395,-1.5762,-1.6175,-1.6578,-1.6817,-1.6908,-1.6908,-1.6908,-1.6908,-1.6908,-1.6908,-3.2437,0.0,0.0,-3.1257,0.0,0.0,0.0,0.0,0.0,0.0,0.0,0.0,0.0,0.0,0.0,0.0,0.0,0.0,0.0,0.0,0.0,0.0,0.0,0.0,0.0,0.0,0.0,0.0,0.0,0.0,0.0,-1.9143,-1.8987,-1.8987,-1.8987,-1.9052,-1.9182,-1.9275,-1.9368,-1.9512,-1.9656,-1.991,-2.0275,-2.0773,-2.1031,-2.0974,-2.0677,-2.0377,-1.9995,-1.9169,-1.86,-1.8224,-1.7389,-1.6933,-1.6726,-1.6726,-1.6581,-1.6384,-1.6384,-1.6384,-1.6384,-1.6384,-1.6384,-1.6384,-1.6384,-1.6384,-1.6316,-1.6009,-1.5652,-1.5352,-1.5059,-1.4529,-1.4052,-1.4052,-1.3992,-1.3863,-1.3571,-1.3511,-1.3329,-1.2744,-1.2621,-1.2621,-1.2621,-1.2621,-1.2621,-1.2621,-1.2621,-1.2621,-1.2621,-1.2621,-1.2629,-1.2805,-1.2928,-1.3042,-1.3216,-1.3865,-1.4285,-1.4285,-1.497,-1.5469,-1.568,-1.5881,-1.6092,-1.6312,-1.6707,-1.6908,-1.6908,-1.6908,-1.6908,-1.6908,-1.6908,-1.6908,-3.2619,0.0,-3.1862,-3.114,0.0,0.0,0.0,0.0,0.0,0.0,0.0,0.0,0.0,0.0,0.0,0.0,0.0,0.0,0.0,0.0,0.0,0.0,0.0,0.0,0.0,0.0,0.0,0.0,0.0,0.0,-1.8934,-1.8934,-1.8934,-1.8987,-1.8987,-1.9052,-1.917,-1.9182,-1.9275,-1.9368,-1.9512,-1.9656,-1.9836,-2.022,-2.0354,-2.0354,-1.976,-1.9414,-1.9205,-1.8324,-1.7813,-1.755,-1.6738,-1.6384,-1.6384,-1.6384,-1.6384,-1.6384,-1.6384,-1.6384,-1.6384,-1.6384,-1.6384,-1.6384,-1.6384,-1.6384,-1.6259,-1.572,-1.541,-1.5118,-1.4647,-1.3932,-1.3329,-1.3329,-1.3752,-1.3992,-1.345,-1.345,-1.3329,-1.2744,-1.2621,-1.2621,-1.2621,-1.2621,-1.2621,-1.2621,-1.2621,-1.2621,-1.2621,-1.2621,-1.2744,-1.2989,-1.3103,-1.3285,-1.3571,-1.4233,-1.4711,-1.4711,-1.5405,-1.5955,-1.6303,-1.6386,-1.6422,-1.6422,-1.6743,-1.6908,-1.6908,-1.6908,-1.6908,-1.6908,-1.6908,-1.6908,0.0,0.0,-3.1317,0.0,0.0,0.0,0.0,0.0,0.0,0.0,0.0,0.0,0.0,0.0,0.0,0.0,0.0,0.0,0.0,0.0,0.0,0.0,0.0,0.0,0.0,0.0,0.0,0.0,0.0,0.0,-1.8614,-1.8667,-1.8774,-1.8987,-1.8987,-1.8999,-1.9052,-1.9117,-1.9235,-1.9223,-1.946,-1.9656,-1.9811,-1.9845,-1.9868,-1.9868,-1.9815,-1.9221,-1.8299,-1.8109,-1.749,-1.6571,-1.6452,-1.6384,-1.6384,-1.6384,-1.6384,-1.6384,-1.6384,-1.6384,-1.6384,-1.6384,-1.6384,-1.6384,-1.6384,-1.6384,-1.6374,-1.6316,-1.5478,-1.4588,-1.4529,-1.3631,-1.2744,-1.2744,-1.2805,-1.2805,-1.2744,-1.3155,-1.3329,-1.2744,-1.2621,-1.2621,-1.2621,-1.2621,-1.2621,-1.2621,-1.2621,-1.2621,-1.2621,-1.2805,-1.2989,-1.2989,-1.3528,-1.389,-1.395,-1.4619,-1.504,-1.504,-1.5752,-1.6257,-1.6321,-1.6642,-1.6826,-1.6826,-1.6881,-1.6908,-1.6908,-1.6908,-1.6908,-1.6908,-1.6908,-1.6908,-3.2595,-3.1916,-3.1249,0.0,0.0,0.0,0.0,0.0,0.0,0.0,0.0,0.0,0.0,0.0,0.0,0.0,0.0,0.0,0.0,0.0,0.0,0.0,0.0,0.0,0.0,0.0,0.0,0.0,0.0,-1.8084,-1.856,-1.8614,-1.8721,-1.8987,-1.8987,-1.8987,-1.8987,-1.9052,-1.9158,-1.9328,-1.942,-1.9617,-1.9798,-1.9798,-1.9798,-1.9798,-1.9798,-1.954,-1.9004,-1.8363,-1.7776,-1.729,-1.6648,-1.6384,-1.6384,-1.6384,-1.6384,-1.6384,-1.6384,-1.6384,-1.6384,-1.6384,-1.6384,-1.6384,-1.6384,-1.6384,-1.6259,-1.5546,-1.4942,-1.435,-1.364,-1.3042,-1.2621,-1.2621,-1.2621,-1.2621,-1.2621,-1.2797,-1.292,-1.2621,-1.2621,-1.2621,-1.2621,-1.2621,-1.2621,-1.2621,-1.2744,-1.2805,-1.2805,-1.3103,-1.3338,-1.3528,-1.383,-1.4159,-1.4565,-1.514,-1.5533,-1.5771,-1.6331,-1.6652,-1.6652,-1.6817,-1.6908,-1.6908,-1.6908,-1.6908,-1.6908,-1.6908,-1.6908,-1.6908,-1.7038,-1.7038,0.0,0.0,0.0,0.0,0.0,0.0,0.0,0.0,0.0,0.0,0.0,0.0,0.0,0.0,0.0,0.0,0.0,0.0,0.0,0.0,0.0,0.0,0.0,0.0,0.0,0.0,0.0,0.0,0.0,-1.8002,-1.853,-1.8522,-1.8614,-1.8881,-1.8934,-1.8987,-1.8987,-1.8987,-1.9146,-1.942,-1.942,-1.9565,-1.9798,-1.9798,-1.9798,-1.9798,-1.9798,-1.9643,-1.9319,-1.8471,-1.7929,-1.7556,-1.6705,-1.6384,-1.6384,-1.6384,-1.6384,-1.6384,-1.6384,-1.6384,-1.6384,-1.6384,-1.6384,-1.6384,-1.6384,-1.6384,-1.6202,-1.5245,-1.4765,-1.4291,-1.3338,-1.2858,-1.2621,-1.2621,-1.2621,-1.2621,-1.2621,-1.2621,-1.2621,-1.2621,-1.2621,-1.2621,-1.2621,-1.2621,-1.2621,-1.2683,-1.2867,-1.3042,-1.3103,-1.3398,-1.37,-1.395,-1.4159,-1.452,-1.5074,-1.556,-1.5982,-1.6294,-1.6688,-1.6908,-1.6908,-1.6908,-1.6908,-1.6908,-1.6908,-1.6908,-1.6908,-1.6908,-1.6908,-1.6908,-1.7038,-1.7038,0.0,0.0,0.0,0.0,0.0,0.0,0.0,0.0,0.0,0.0,0.0,0.0,0.0,0.0,0.0,0.0,0.0,0.0,0.0,0.0,0.0,0.0,0.0,0.0,0.0,0.0,0.0,0.0,0.0,-1.8129,-1.8372,-1.8225,-1.8302,-1.8614,-1.8881,-1.8987,-1.8987,-1.8987,-1.9146,-1.942,-1.942,-1.9565,-1.9798,-1.9798,-1.9798,-1.9798,-1.9798,-1.9214,-1.8201,-1.8147,-1.7457,-1.6488,-1.6431,-1.6384,-1.6384,-1.6384,-1.6384,-1.6384,-1.6384,-1.6384,-1.6384,-1.6384,-1.6384,-1.6384,-1.6384,-1.6384,-1.6384,-1.6316,-1.542,-1.4469,-1.441,-1.3519,-1.2621,-1.2621,-1.2621,-1.2621,-1.2621,-1.2621,-1.2621,-1.2621,-1.2621,-1.2621,-1.2621,-1.2621,-1.2683,-1.2928,-1.2981,-1.3103,-1.345,-1.3761,-1.401,-1.401,-1.4653,-1.5084,-1.5102,-1.5835,-1.6294,-1.6321,-1.6688,-1.6908,-1.6908,-1.6908,-1.6908,-1.6908,-1.6908,-1.6908,-1.6908,-1.6908,-1.6908,-1.6908,-1.6908,-1.7038,0.0,0.0,0.0,0.0,0.0,0.0,0.0,0.0,0.0,0.0,0.0,0.0,0.0,0.0,0.0,0.0,0.0,0.0,0.0,0.0,0.0,0.0,0.0,0.0,0.0,0.0,0.0,0.0,0.0,0.0,-1.8829,-1.8952,-1.9056,-1.9077,-1.9601,-1.9858,-1.9772,-1.95,-1.946,-1.9656,-1.946,-1.9512,-1.9656,-1.9759,-1.9798,-1.9798,-1.9448,-1.9239,-1.9109,-1.8417,-1.7875,-1.7401,-1.6705,-1.6384,-1.6384,-1.6384,-1.6384,-1.6316,-1.5894,-1.5768,-1.571,-1.5303,-1.5186,-1.5186,-1.5186,-1.5186,-1.5069,-1.4647,-1.4231,-1.3752,-1.3398,-1.292,-1.2621,-1.2621,-1.2621,-1.2621,-1.2621,-1.2621,-1.2621,-1.2621,-1.2621,-1.2621,-1.2621,-1.2744,-1.2867,-1.2989,-1.3346,-1.3709,-1.3821,-1.413,-1.4327,-1.4327,-1.4574,-1.4827,-1.5084,-1.5368,-1.5643,-1.59,-1.6046,-1.6248,-1.6514,-1.6523,-1.6652,-1.6899,-1.6908,-1.6908,-1.6908,-1.6908,-1.6908,-1.6908,-1.7038,-1.7107,-3.1287,0.0,0.0,0.0,0.0,0.0,0.0,0.0,0.0,0.0,0.0,0.0,0.0,0.0,0.0,0.0,0.0,0.0,0.0,0.0,0.0,0.0,0.0,0.0,0.0,0.0,0.0,0.0,0.0,0.0,-1.9171,-1.9355,-1.947,-1.9561,-2.0045,-2.0219,-2.0047,-1.9784,-1.9685,-1.9656,-1.946,-1.946,-1.9656,-1.9552,-1.954,-1.95,-1.9133,-1.9081,-1.9162,-1.819,-1.771,-1.7446,-1.6705,-1.6384,-1.6384,-1.6384,-1.6384,-1.6316,-1.5894,-1.5594,-1.5352,-1.4942,-1.4647,-1.4469,-1.4469,-1.4469,-1.441,-1.4052,-1.3812,-1.358,-1.3338,-1.2981,-1.2683,-1.2621,-1.2621,-1.2621,-1.2621,-1.2621,-1.2621,-1.2621,-1.2683,-1.2744,-1.2744,-1.2981,-1.3224,-1.3346,-1.3709,-1.407,-1.4139,-1.4387,-1.4515,-1.4515,-1.4634,-1.4818,-1.5084,-1.5221,-1.5414,-1.567,-1.5689,-1.5817,-1.6101,-1.6111,-1.623,-1.6496,-1.6496,-1.6496,-1.6496,-1.6771,-1.6908,-1.6908,-1.7107,-1.7166,0.0,0.0,0.0,0.0,0.0,0.0,0.0,0.0,0.0,0.0,0.0,0.0,0.0,0.0,0.0,0.0,0.0,0.0,0.0,0.0,0.0,0.0,0.0,0.0,0.0,0.0,0.0,0.0,0.0,-1.9441,-1.9441,-1.9216,-1.9417,-2.0135,-2.0123,-2.0037,-1.986,-1.986,-1.9715,-1.947,-1.9405,-1.9537,-1.9772,-1.9251,-1.8987,-1.8987,-1.8987,-1.8655,-1.8038,-1.7479,-1.6899,-1.6431,-1.6431,-1.6384,-1.6384,-1.6384,-1.6374,-1.6353,-1.6353,-1.5864,-1.5313,-1.5313,-1.4914,-1.4451,-1.4451,-1.446,-1.4469,-1.4775,-1.4419,-1.407,-1.435,-1.3761,-1.2928,-1.2683,-1.2621,-1.2621,-1.2621,-1.2629,-1.2621,-1.2621,-1.2805,-1.2989,-1.2981,-1.3277,-1.3631,-1.395,-1.401,-1.4139,-1.4455,-1.4515,-1.4515,-1.4515,-1.4854,-1.5084,-1.5084,-1.5432,-1.5652,-1.5652,-1.5652,-1.5661,-1.567,-1.567,-1.568,-1.5689,-1.5689,-1.5689,-1.5689,-1.6486,-1.6881,-1.689,-1.7028,-1.7166,-3.0649,0.0,0.0,0.0,0.0,0.0,0.0,0.0,0.0,0.0,0.0,0.0,0.0,0.0,0.0,0.0,0.0,0.0,0.0,0.0,0.0,0.0,0.0,0.0,0.0,0.0,0.0,0.0,-1.9955,-1.9878,-1.9878,-1.9736,-2.0133,-2.1068,-2.11,-2.1101,-2.1242,-2.1285,-2.1154,-2.0827,-1.983,-1.9649,-2.0266,-1.9381,-1.8987,-1.8999,-1.8548,-1.7984,-1.7479,-1.7754,-1.749,-1.6944,-1.6534,-1.6384,-1.6384,-1.6384,-1.593,-1.5233,-1.4762,-1.4054,-1.3244,-1.2737,-1.2638,-1.2688,-1.2688,-1.2879,-1.3164,-1.3459,-1.3407,-1.3285,-1.3398,-1.3042,-1.2683,-1.2621,-1.2621,-1.2621,-1.2621,-1.2744,-1.2867,-1.2867,-1.2928,-1.3103,-1.3338,-1.364,-1.3881,-1.401,-1.4198,-1.4387,-1.4506,-1.4515,-1.4515,-1.4515,-1.4607,-1.4671,-1.4671,-1.4772,-1.4836,-1.4836,-1.4836,-1.4964,-1.5249,-1.5258,-1.5395,-1.568,-1.5689,-1.5689,-1.5689,-1.5918,-1.5975,-1.5789,-1.5782,-1.5692,0.0,0.0,0.0,0.0,0.0,0.0,0.0,-2.7333,0.0,0.0,0.0,0.0,0.0,0.0,0.0,0.0,0.0,0.0,0.0,0.0,0.0,0.0,0.0,0.0,0.0,0.0,0.0,-1.9594,-1.9868,-2.0009,-2.0085,-2.0017,-2.0347,-2.112,-2.1248,-2.1338,-2.1408,-2.1592,-2.1425,-2.0785,-2.0024,-1.9703,-1.9768,-1.8959,-1.8483,-1.8201,-1.7875,-1.7379,-1.6899,-1.749,-1.7379,-1.6842,-1.6534,-1.6384,-1.6353,-1.6156,-1.5741,-1.5134,-1.433,-1.3497,-1.2758,-1.2095,-1.185,-1.1797,-1.1797,-1.1948,-1.2265,-1.2837,-1.3168,-1.3407,-1.3216,-1.2981,-1.2744,-1.2629,-1.2621,-1.2621,-1.2621,-1.2805,-1.2989,-1.2989,-1.3224,-1.3467,-1.37,-1.401,-1.4198,-1.4198,-1.4387,-1.4515,-1.4515,-1.4515,-1.4515,-1.4515,-1.4515,-1.4515,-1.4515,-1.4515,-1.4515,-1.4515,-1.4515,-1.4616,-1.4845,-1.4854,-1.4964,-1.5194,-1.4935,-1.4666,-1.4342,-1.5323,-1.5743,-1.5707,-1.5528,-1.53,0.0,0.0,0.0,0.0,0.0,0.0,-2.6424,-2.6226,0.0,0.0,0.0,0.0,0.0,0.0,0.0,0.0,0.0,0.0,0.0,0.0,0.0,0.0,0.0,0.0,0.0,-1.8988,-1.9121,-1.87,-1.9386,-1.9868,-2.0085,-2.0085,-2.027,-2.0571,-2.1031,-2.1128,-2.0969,-2.1296,-2.0969,-2.0084,-2.0006,-1.957,-1.878,-1.8224,-1.771,-1.7202,-1.7202,-1.6899,-1.6431,-1.6888,-1.6786,-1.6316,-1.6265,-1.6187,-1.6069,-1.5608,-1.5348,-1.5138,-1.4233,-1.3534,-1.2905,-1.2408,-1.1892,-1.1431,-1.1431,-1.1519,-1.1728,-1.2694,-1.3386,-1.3758,-1.3442,-1.3091,-1.2744,-1.2501,-1.2533,-1.2565,-1.2565,-1.2834,-1.3042,-1.3103,-1.3588,-1.401,-1.407,-1.4327,-1.4515,-1.4515,-1.4515,-1.4515,-1.4515,-1.4515,-1.4515,-1.4515,-1.4515,-1.4515,-1.4515,-1.4515,-1.4515,-1.4515,-1.4515,-1.4515,-1.4515,-1.4446,-1.4387,-1.4387,-1.3761,-1.313,-1.2512,-1.4602,-1.5679,-1.5734,-1.5395,-1.516,0.0,0.0,0.0,0.0,0.0,0.0,-2.452,-2.4319,-2.4032,0.0,0.0,0.0,0.0,0.0,0.0,0.0,0.0,0.0,0.0,0.0,0.0,0.0,0.0,0.0,0.0,-1.7939,-1.7599,-1.7677,-1.8499,-1.932,-2.0074,-2.0085,-2.027,-2.0571,-2.1083,-2.1416,-2.1561,-2.1572,-2.1247,-2.0558,-1.9241,-1.8623,-1.8667,-1.7668,-1.7213,-1.7202,-1.7202,-1.6899,-1.6431,-1.6534,-1.6181,-1.5555,-1.5322,-1.4883,-1.4317,-1.4003,-1.332,-1.2609,-1.2431,-1.1782,-1.1025,-1.0921,-1.0966,-1.109,-1.109,-1.1454,-1.1977,-1.2651,-1.2785,-1.2724,-1.2612,-1.2215,-1.1759,-1.1759,-1.1916,-1.2182,-1.2486,-1.3007,-1.3459,-1.3769,-1.389,-1.4079,-1.4387,-1.4455,-1.4515,-1.4515,-1.4515,-1.4515,-1.4515,-1.4515,-1.4515,-1.4515,-1.4515,-1.4515,-1.4515,-1.4515,-1.4515,-1.4515,-1.4515,-1.4515,-1.4515,-1.401,-1.37,-1.37,-1.3009,-1.2696,-1.2765,-1.358,-1.3669,-1.3034,-1.2646,-1.2604,0.0,0.0,0.0,-2.5534,0.0,0.0,0.0,-2.1788,-2.126,0.0,0.0,0.0,0.0,0.0,0.0,0.0,0.0,0.0,0.0,0.0,0.0,0.0,0.0,0.0,0.0,-1.7404,-1.7813,-1.8442,-1.8777,-1.9187,-1.966,-1.9726,-1.9791,-1.9966,-2.0624,-2.102,-2.1028,-2.0871,-2.0474,-1.9784,-1.8688,-1.8032,-1.7619,-1.722,-1.6888,-1.6662,-1.6786,-1.6637,-1.6363,-1.5833,-1.5268,-1.4649,-1.4844,-1.4574,-1.3993,-1.3299,-1.2748,-1.2244,-1.1766,-1.1277,-1.0871,-1.0573,-1.0589,-1.0732,-1.0732,-1.1292,-1.1952,-1.2269,-1.2353,-1.2389,-1.2389,-1.1936,-1.1487,-1.1487,-1.1872,-1.2313,-1.2438,-1.3135,-1.3821,-1.395,-1.4139,-1.4327,-1.4446,-1.4515,-1.4515,-1.4515,-1.4515,-1.4515,-1.4515,-1.4515,-1.4515,-1.4515,-1.4515,-1.4515,-1.4515,-1.4515,-1.4515,-1.4515,-1.4515,-1.4515,-1.4515,-1.4198,-1.3821,-1.3511,-1.326,-1.2765,-1.2158,-1.2508,-1.2594,-1.2554,-1.2435,-1.2304,0.0,0.0,0.0,0.0,0.0,-2.1495,0.0,0.0,0.0,-1.7841,0.0,0.0,0.0,0.0,0.0,0.0,0.0,0.0,0.0,0.0,0.0,0.0,0.0,0.0,0.0,-1.6862,-1.7959,-1.8844,-1.8854,-1.8921,-1.9166,-1.9233,-1.9375,-1.9441,-2.0019,-2.0299,-2.0154,-1.9817,-1.925,-1.8498,-1.8065,-1.7367,-1.64,-1.6684,-1.657,-1.6114,-1.6192,-1.6151,-1.6038,-1.5081,-1.4315,-1.3719,-1.4181,-1.4026,-1.3459,-1.262,-1.2259,-1.2162,-1.1421,-1.1175,-1.1074,-1.0624,-1.0522,-1.0573,-1.0624,-1.1224,-1.187,-1.187,-1.2042,-1.2175,-1.2121,-1.1738,-1.1296,-1.1296,-1.1841,-1.239,-1.2514,-1.327,-1.401,-1.407,-1.4318,-1.4515,-1.4515,-1.4515,-1.4515,-1.4515,-1.4515,-1.4515,-1.4515,-1.4515,-1.4515,-1.4515,-1.4515,-1.4515,-1.4515,-1.4515,-1.4515,-1.4515,-1.4515,-1.4446,-1.4318,-1.4079,-1.358,-1.2956,-1.3078,-1.2528,-1.1303,-1.1476,-1.1841,-1.2405,-1.2561,-1.2452,0.0,0.0,0.0,0.0,-2.0705,0.0,0.0,0.0,-1.6318,-1.5861,0.0,0.0,0.0,0.0,0.0,0.0,0.0,0.0,0.0,0.0,0.0,0.0,0.0,0.0,0.0,0.0,-1.6167,-1.6419,-1.7335,-1.8172,-1.8834,-1.9166,-1.9518,-2.0009,-1.9725,-1.9452,-1.9364,-1.8594,-1.7889,-1.7113,-1.6696,-1.6259,-1.5788,-1.5972,-1.6077,-1.6056,-1.57,-1.531,-1.5012,-1.4317,-1.3525,-1.2816,-1.2422,-1.1873,-1.1325,-1.0913,-1.0775,-1.0724,-1.0632,-1.0565,-1.0573,-1.0522,-1.0667,-1.0922,-1.1124,-1.1453,-1.174,-1.174,-1.1573,-1.1353,-1.1149,-1.084,-1.0633,-1.0633,-1.1353,-1.2122,-1.241,-1.3322,-1.407,-1.4387,-1.4446,-1.4515,-1.4515,-1.4515,-1.4515,-1.4515,-1.4515,-1.4515,-1.4515,-1.4515,-1.4515,-1.4515,-1.4515,-1.4515,-1.4515,-1.4515,-1.4515,-1.4515,-1.4515,-1.4198,-1.3631,-1.2466,-1.1545,-1.0933,-1.0926,-1.087,-1.0681,-1.0744,-1.0807,-1.0877,-1.1115,-1.1342,0.0,0.0,0.0,0.0,0.0,0.0,0.0,0.0,-1.3201,0.0,0.0,0.0,0.0,0.0,0.0,0.0,0.0,0.0,0.0,0.0,0.0,0.0,0.0,0.0,0.0,0.0,0.0,0.0,0.0,-1.7139,-1.7755,-1.7959,-1.8255,-1.8757,-1.8881,-1.8762,-1.8315,-1.7631,-1.7009,-1.6448,-1.5527,-1.504,-1.501,-1.4756,-1.4746,-1.4845,-1.4552,-1.4412,-1.427,-1.3186,-1.252,-1.2149,-1.1091,-1.0869,-1.1137,-1.068,-1.0522,-1.0522,-1.0522,-1.0522,-1.0462,-1.019,-1.019,-1.0285,-1.0387,-1.049,-1.0744,-1.1318,-1.1116,-1.0812,-1.1074,-1.082,-1.0522,-1.0522,-1.1263,-1.212,-1.2406,-1.3287,-1.407,-1.4446,-1.4515,-1.4515,-1.4515,-1.4515,-1.4515,-1.4515,-1.4515,-1.4515,-1.4515,-1.4515,-1.4515,-1.4515,-1.4515,-1.4515,-1.4515,-1.4515,-1.4515,-1.4515,-1.4139,-1.3631,-1.2948,-1.2397,-1.1965,-1.1725,-1.1296,-1.1115,-1.1115,-1.0744,-1.0712,-1.0822,-1.1109,-1.1309,-2.1522,0.0,0.0,0.0,0.0,0.0,0.0,0.0,0.0,0.0,0.0,0.0,0.0,0.0,0.0,0.0,0.0,0.0,0.0,0.0,0.0,0.0,0.0,0.0,0.0,0.0,0.0,0.0,-1.6009,-1.6228,-1.6715,-1.6958,-1.7379,-1.8015,-1.8143,-1.7945,-1.7381,-1.6724,-1.6206,-1.5768,-1.4883,-1.446,-1.4469,-1.4145,-1.3957,-1.4007,-1.3607,-1.3432,-1.3401,-1.2197,-1.15,-1.1209,-1.0223,-1.0182,-1.0659,-1.0308,-1.0154,-1.0154,-1.0154,-1.0205,-1.0249,-0.9925,-0.9917,-1.0079,-0.9969,-0.9961,-1.0123,-1.0702,-1.0498,-1.0241,-1.0651,-1.0506,-1.03,-1.03,-1.1148,-1.212,-1.2406,-1.3287,-1.407,-1.4446,-1.4327,-1.4198,-1.4198,-1.4387,-1.4515,-1.4515,-1.4515,-1.4515,-1.4515,-1.4515,-1.4515,-1.4515,-1.4515,-1.4515,-1.4515,-1.4515,-1.4515,-1.4515,-1.37,-1.3009,-1.2512,-1.2143,-1.1965,-1.1965,-1.1483,-1.124,-1.124,-1.0807,-1.0708,-1.1002,-1.1289,-1.147,0.0,0.0,0.0,-1.5337,0.0,0.0,0.0,0.0,-0.8799,0.0,0.0,0.0,0.0,0.0,0.7202,0.7186,0.0,0.0,0.0,0.0,0.0,0.0,0.0,0.0,0.0,0.0,0.0,-1.3105,-1.4522,-1.5508,-1.5703,-1.6652,-1.765,-1.852,-1.7777,-1.7116,-1.6668,-1.5822,-1.5323,-1.5039,-1.5156,-1.4902,-1.4469,-1.4588,-1.4401,-1.3948,-1.3083,-1.2658,-1.2474,-1.1456,-1.0568,-0.988,-0.9814,-0.9562,-0.9263,-0.9263,-0.9263,-0.9263,-0.9263,-0.9517,-0.9814,-0.9814,-1.0285,-1.0761,-1.0328,-1.0364,-1.0466,-0.9814,-0.9666,-0.9562,-0.9316,-0.9562,-0.9814,-0.9814,-1.0925,-1.212,-1.2406,-1.3287,-1.407,-1.4446,-1.401,-1.3511,-1.3511,-1.407,-1.4515,-1.4515,-1.4515,-1.4515,-1.4515,-1.4515,-1.4515,-1.4515,-1.4515,-1.4515,-1.4515,-1.4515,-1.4515,-1.4515,-1.326,-1.2512,-1.2512,-1.1296,-1.0681,-1.0681,-1.0624,-1.0624,-1.0624,-1.0624,-1.0708,-1.1002,-1.1289,-1.1583,0.0,0.0,-1.4229,-1.3129,0.0,0.0,0.0,0.0,0.0,0.0,0.0,0.0,0.0,0.0,0.7532,0.7475,0.7046,0.6426,0.0,0.0,0.0,0.0,0.0,0.0,0.0,0.0,0.0,-1.282,-1.3258,-1.3894,0.0,-1.4925,-1.5532,-1.67,-1.6465,-1.6108,-1.5684,-1.542,-1.4883,-1.4121,-1.3863,-1.3494,-1.3061,-1.2773,-1.2461,-1.2154,-1.1689,-1.1166,-1.0599,-1.0234,-0.9716,-0.9138,-0.904,-0.8935,-0.8837,-0.9106,-0.9211,-0.9211,-0.9211,-0.9316,-0.9361,-0.9093,-0.9197,-0.9354,-0.919,-0.9287,-0.9496,-0.9909,-0.9762,-0.951,-0.9814,-0.9614,-0.9413,-0.9413,-1.0337,-1.1382,-1.1936,-1.2913,-1.3821,-1.4387,-1.4327,-1.4139,-1.4139,-1.401,-1.3692,-1.326,-1.3199,-1.3199,-1.3199,-1.3571,-1.3821,-1.3821,-1.3821,-1.3821,-1.3821,-1.345,-1.3017,-1.2536,-1.2097,-1.1663,-1.1233,-1.0807,-1.0624,-1.0624,-1.0624,-1.0624,-1.0624,-1.0624,-1.0808,-1.1283,-1.1376,-1.1583,-1.4877,-1.3454,0.0,-1.1601,-1.0271,0.0,-0.6056,0.0,0.0,0.0,0.0,0.0,0.0,0.0,0.9412,0.9412,0.9396,0.9301,0.0,0.967,0.0,0.0,0.0,0.0,0.0,0.0,-0.9043,-1.1681,-1.1307,-1.1825,0.0,0.0,-1.4362,-1.525,-1.5486,-1.5336,-1.4874,-1.4951,-1.4656,-1.4052,-1.3502,-1.2879,-1.2251,-1.1903,-1.1363,-1.0675,-1.0719,-1.0221,-0.9405,-0.9429,-0.9093,-0.8508,-0.8249,-0.8096,-0.8096,-0.858,-0.8738,-0.8738,-0.8738,-0.8844,-0.8949,-0.8679,-0.8679,-0.8784,-0.8626,-0.8679,-0.885,-0.9369,-0.9228,-0.9015,-0.9633,-0.9492,-0.9239,-0.9291,-1.0144,-1.0959,-1.1402,-1.2233,-1.3086,-1.364,-1.358,-1.3459,-1.3459,-1.2903,-1.2589,-1.2826,-1.2634,-1.2512,-1.2512,-1.2887,-1.313,-1.313,-1.313,-1.313,-1.313,-1.2757,-1.2328,-1.1911,-1.16,-1.1303,-1.0933,-1.0681,-1.0624,-1.0624,-1.0624,-1.0624,-1.0624,-1.0624,-1.0862,-1.1423,-1.1423,-1.1637]},{"header":{"parameterUnit":"m.s-1","parameterCategory":1,"la1":30.6,"la2":29.2853,"lo1":-89.7004,"lo2":-87.6739,"dy":0.0162,"dx":0.0183,"nx":112,"ny":82,"refTime":"2023-09-06T06:00:00:Z","depth":0,"parameterNumber":3,"parameterNumberName":"V-component_of_WINDS"},"data":[0.0,0.0,0.0,0.0,0.0,0.0,0.0,0.0,0.0,0.0,0.0,0.0,0.0,0.0,0.0,0.0,0.0,0.0,0.0,0.0,0.0,0.0,0.0,0.0,0.0,0.0,0.0,0.0,0.0,0.0,0.0,0.0,0.0,0.0,0.0,0.0,0.0,0.0,0.0,0.0,0.0,0.0,0.0,0.0,0.0,0.0,0.0,0.0,0.0,0.0,0.0,0.0,0.0,0.0,0.0,0.0,0.0,0.0,0.0,0.0,0.0,0.0,0.0,0.0,0.0,0.0,0.0,0.0,0.0,0.0,0.0,0.0,0.0,0.0,0.0,0.0,0.0,0.0,0.0,0.0,0.0,0.0,0.0,0.0,0.0,0.0,0.0,0.0,0.0,0.0,0.0,-3.4212,-3.3585,-3.3085,-3.3042,-3.2928,-3.253,-3.1727,0.0,0.0,0.0,0.0,0.0,0.0,0.0,0.0,0.0,0.0,0.0,0.0,0.0,0.0,0.0,0.0,0.0,0.0,0.0,0.0,0.0,0.0,0.0,0.0,0.0,0.0,0.0,0.0,0.0,0.0,0.0,0.0,0.0,0.0,0.0,0.0,0.0,0.0,0.0,0.0,0.0,0.0,0.0,0.0,0.0,0.0,0.0,0.0,0.0,0.0,0.0,0.0,0.0,0.0,0.0,0.0,0.0,0.0,0.0,0.0,0.0,0.0,0.0,0.0,0.0,0.0,0.0,0.0,0.0,0.0,0.0,0.0,0.0,0.0,0.0,0.0,0.0,0.0,0.0,0.0,0.0,0.0,0.0,0.0,0.0,0.0,0.0,0.0,0.0,0.0,0.0,0.0,0.0,0.0,0.0,0.0,0.0,0.0,0.0,0.0,0.0,0.0,0.0,0.0,-3.4253,-3.4672,-3.4585,-3.4491,-3.4491,-3.3956,-3.3568,-3.3437,0.0,0.0,0.0,0.0,0.0,0.0,0.0,0.0,0.0,0.0,0.0,0.0,0.0,0.0,0.0,0.0,0.0,0.0,0.0,0.0,0.0,0.0,0.0,0.0,0.0,0.0,0.0,0.0,0.0,0.0,0.0,0.0,0.0,0.0,0.0,0.0,0.0,0.0,0.0,0.0,0.0,0.0,0.0,0.0,0.0,0.0,0.0,0.0,0.0,0.0,0.0,0.0,0.0,0.0,0.0,0.0,0.0,0.0,0.0,0.0,0.0,0.0,0.0,0.0,0.0,0.0,0.0,0.0,0.0,0.0,0.0,0.0,0.0,0.0,0.0,0.0,0.0,0.0,0.0,0.0,0.0,0.0,0.0,0.0,0.0,0.0,0.0,0.0,0.0,0.0,0.0,0.0,0.0,0.0,0.0,0.0,0.0,0.0,0.0,0.0,0.0,0.0,0.0,-3.4615,-3.4571,-3.4737,-3.4754,-3.4713,-3.4649,-3.4452,-3.4112,-3.3564,-3.2808,0.0,0.0,0.0,0.0,0.0,0.0,0.0,0.0,0.0,0.0,0.0,0.0,0.0,0.0,0.0,0.0,0.0,0.0,0.0,0.0,0.0,0.0,0.0,0.0,0.0,0.0,0.0,0.0,0.0,0.0,0.0,0.0,0.0,0.0,0.0,0.0,0.0,0.0,0.0,0.0,0.0,0.0,0.0,0.0,0.0,0.0,0.0,0.0,0.0,0.0,0.0,0.0,0.0,0.0,0.0,0.0,0.0,0.0,0.0,0.0,0.0,0.0,0.0,0.0,0.0,0.0,0.0,0.0,0.0,0.0,0.0,0.0,0.0,0.0,0.0,0.0,0.0,0.0,0.0,0.0,0.0,0.0,0.0,0.0,0.0,0.0,0.0,0.0,0.0,0.0,0.0,0.0,0.0,0.0,0.0,0.0,0.0,0.0,0.0,0.0,0.0,0.0,-3.4753,-3.4526,-3.4569,-3.4505,-3.4416,-3.4316,-3.4483,-3.4306,-3.358,-3.3312,0.0,0.0,0.0,0.0,0.0,0.0,0.0,0.0,0.0,0.0,0.0,0.0,0.0,0.0,0.0,0.0,0.0,0.0,0.0,0.0,0.0,0.0,0.0,0.0,0.0,0.0,0.0,0.0,0.0,0.0,0.0,0.0,0.0,0.0,0.0,0.0,0.0,0.0,0.0,0.0,0.0,0.0,0.0,0.0,0.0,0.0,0.0,0.0,0.0,0.0,0.0,0.0,0.0,0.0,0.0,0.0,0.0,0.0,0.0,0.0,0.0,0.0,0.0,0.0,0.0,0.0,0.0,0.0,0.0,0.0,0.0,0.0,0.0,0.0,0.0,0.0,0.0,0.0,0.0,0.0,0.0,0.0,0.0,0.0,0.0,0.0,0.0,0.0,0.0,0.0,0.0,0.0,0.0,0.0,0.0,0.0,0.0,0.0,0.0,0.0,0.0,0.0,-3.4405,-3.3972,-3.4221,-3.3972,-3.378,-3.3753,-3.3891,-3.4031,-3.42,-3.3398,0.0,0.0,0.0,0.0,0.0,0.0,0.0,0.0,0.0,0.0,0.0,0.0,0.0,0.0,0.0,0.0,0.0,0.0,0.0,0.0,0.0,0.0,0.0,0.0,0.0,0.0,0.0,0.0,0.0,0.0,0.0,0.0,0.0,0.0,0.0,0.0,0.0,0.0,0.0,0.0,0.0,0.0,0.0,0.0,0.0,0.0,0.0,0.0,0.0,0.0,0.0,0.0,0.0,0.0,0.0,0.0,0.0,0.0,0.0,0.0,0.0,0.0,0.0,0.0,0.0,0.0,0.0,0.0,0.0,0.0,0.0,0.0,0.0,0.0,0.0,0.0,0.0,0.0,0.0,0.0,0.0,0.0,0.0,0.0,0.0,0.0,0.0,0.0,0.0,0.0,0.0,0.0,0.0,0.0,0.0,0.0,0.0,0.0,0.0,0.0,0.0,0.0,-3.4288,-3.3961,0.0,-3.3921,-3.3842,-3.3868,-3.3979,-3.4105,-3.4221,0.0,0.0,0.0,0.0,0.0,0.0,0.0,0.0,0.0,0.0,0.0,0.0,0.0,0.0,0.0,0.0,0.0,0.0,0.0,0.0,0.0,0.0,0.0,0.0,0.0,0.0,0.0,0.0,0.0,0.0,0.0,0.0,0.0,0.0,0.0,0.0,0.0,0.0,0.0,0.0,0.0,0.0,0.0,0.0,0.0,0.0,0.0,0.0,0.0,0.0,0.0,0.0,0.0,0.0,0.0,0.0,0.0,0.0,0.0,0.0,0.0,0.0,0.0,0.0,0.0,0.0,0.0,0.0,0.0,0.0,0.0,0.0,0.0,0.0,0.0,0.0,0.0,0.0,0.0,0.0,0.0,0.0,0.0,0.0,0.0,0.0,0.0,0.0,0.0,0.0,0.0,0.0,0.0,0.0,0.0,0.0,0.0,0.0,0.0,0.0,0.0,0.0,-3.4604,-3.4208,-3.3986,0.0,-3.3921,-3.386,-3.3895,-3.3921,-3.3998,-3.4099,0.0,0.0,0.0,0.0,0.0,0.0,0.0,0.0,0.0,0.0,0.0,0.0,0.0,0.0,0.0,0.0,0.0,0.0,0.0,0.0,0.0,0.0,0.0,0.0,0.0,0.0,0.0,0.0,0.0,0.0,0.0,0.0,0.0,0.0,0.0,0.0,0.0,0.0,0.0,0.0,0.0,0.0,0.0,0.0,0.0,0.0,0.0,0.0,0.0,0.0,0.0,0.0,0.0,0.0,0.0,0.0,0.0,0.0,0.0,0.0,0.0,0.0,0.0,0.0,0.0,0.0,0.0,0.0,0.0,0.0,0.0,0.0,0.0,0.0,0.0,0.0,0.0,0.0,0.0,0.0,0.0,0.0,0.0,0.0,0.0,0.0,0.0,0.0,0.0,0.0,0.0,0.0,0.0,0.0,0.0,0.0,0.0,0.0,0.0,0.0,0.0,0.0,-3.458,-3.4124,-3.3895,-3.4173,-3.3895,-3.3698,-3.3698,-3.3643,-3.3698,0.0,0.0,0.0,0.0,0.0,0.0,0.0,0.0,0.0,0.0,0.0,0.0,0.0,0.0,0.0,0.0,0.0,0.0,0.0,0.0,0.0,0.0,0.0,0.0,0.0,0.0,0.0,0.0,0.0,0.0,0.0,0.0,0.0,0.0,0.0,0.0,0.0,0.0,0.0,0.0,0.0,0.0,0.0,0.0,0.0,0.0,0.0,0.0,0.0,0.0,0.0,0.0,0.0,0.0,0.0,0.0,0.0,0.0,0.0,0.0,0.0,0.0,0.0,0.0,0.0,0.0,0.0,0.0,0.0,0.0,0.0,0.0,0.0,0.0,0.0,0.0,0.0,0.0,0.0,0.0,0.0,0.0,0.0,0.0,0.0,0.0,0.0,0.0,0.0,0.0,0.0,0.0,0.0,0.0,0.0,0.0,0.0,0.0,0.0,0.0,0.0,0.0,0.0,-3.434,-3.4148,-3.4023,-3.4049,-3.3921,-3.3895,-3.4049,-3.3895,-3.3895,-3.4099,0.0,0.0,0.0,0.0,0.0,0.0,0.0,0.0,0.0,0.0,0.0,0.0,0.0,0.0,0.0,0.0,0.0,0.0,0.0,0.0,0.0,0.0,0.0,0.0,0.0,0.0,0.0,0.0,0.0,0.0,0.0,0.0,0.0,0.0,0.0,0.0,0.0,0.0,0.0,0.0,0.0,0.0,0.0,0.0,0.0,0.0,0.0,0.0,0.0,0.0,0.0,0.0,0.0,0.0,0.0,0.0,0.0,0.0,0.0,0.0,0.0,0.0,0.0,0.0,0.0,0.0,0.0,0.0,0.0,0.0,0.0,0.0,0.0,0.0,0.0,0.0,0.0,0.0,0.0,0.0,0.0,0.0,0.0,0.0,0.0,0.0,0.0,0.0,0.0,0.0,0.0,0.0,0.0,0.0,0.0,0.0,0.0,0.0,0.0,0.0,0.0,0.0,-3.4221,-3.4173,-3.4124,-3.4074,-3.4049,-3.4074,-3.4197,-3.4099,-3.4074,-3.4197,0.0,0.0,0.0,0.0,0.0,0.0,0.0,0.0,0.0,0.0,0.0,0.0,0.0,0.0,0.0,0.0,0.0,0.0,0.0,0.0,0.0,0.0,0.0,0.0,0.0,0.0,0.0,0.0,0.0,0.0,0.0,0.0,0.0,0.0,0.0,0.0,0.0,0.0,0.0,0.0,0.0,0.0,0.0,0.0,0.0,0.0,0.0,0.0,0.0,0.0,0.0,0.0,0.0,0.0,0.0,0.0,0.0,0.0,0.0,0.0,0.0,0.0,0.0,0.0,0.0,0.0,0.0,0.0,0.0,0.0,0.0,0.0,0.0,0.0,0.0,0.0,0.0,0.0,0.0,0.0,0.0,0.0,0.0,0.0,0.0,0.0,0.0,0.0,0.0,0.0,0.0,0.0,0.0,0.0,0.0,0.0,0.0,0.0,0.0,0.0,0.0,0.0,-3.4221,-3.4197,-3.4197,-3.4197,-3.4197,-3.4197,-3.4197,-3.4197,-3.4197,-3.4197,0.0,0.0,0.0,0.0,0.0,0.0,0.0,0.0,0.0,0.0,0.0,0.0,0.0,0.0,0.0,0.0,0.0,0.0,0.0,0.0,0.0,0.0,0.0,0.0,0.0,0.0,0.0,0.0,0.0,0.0,0.0,0.0,0.0,0.0,0.0,0.0,0.0,0.0,0.0,0.0,0.0,0.0,0.0,0.0,0.0,0.0,0.0,0.0,0.0,0.0,0.0,0.0,0.0,0.0,0.0,0.0,0.0,0.0,0.0,0.0,-2.3881,0.0,0.0,0.0,0.0,0.0,0.0,0.0,0.0,0.0,0.0,0.0,0.0,0.0,0.0,0.0,0.0,0.0,0.0,0.0,0.0,0.0,0.0,0.0,0.0,0.0,0.0,0.0,0.0,0.0,0.0,0.0,0.0,0.0,0.0,0.0,0.0,0.0,0.0,0.0,0.0,0.0,-3.4197,-3.4197,-3.4197,-3.4197,-3.4197,-3.4197,-3.4197,-3.4197,-3.4173,-3.4124,0.0,0.0,0.0,0.0,0.0,0.0,0.0,0.0,0.0,0.0,0.0,0.0,0.0,0.0,0.0,0.0,0.0,0.0,0.0,0.0,0.0,0.0,0.0,0.0,0.0,0.0,0.0,0.0,0.0,0.0,0.0,0.0,0.0,0.0,0.0,0.0,0.0,0.0,0.0,0.0,0.0,0.0,0.0,0.0,0.0,0.0,0.0,0.0,0.0,0.0,0.0,0.0,0.0,0.0,0.0,0.0,0.0,0.0,0.0,0.0,0.0,-2.4731,0.0,0.0,0.0,0.0,0.0,0.0,0.0,0.0,0.0,0.0,0.0,0.0,0.0,0.0,0.0,0.0,0.0,0.0,0.0,0.0,0.0,0.0,0.0,0.0,0.0,0.0,0.0,0.0,0.0,0.0,0.0,0.0,0.0,0.0,0.0,0.0,0.0,0.0,0.0,0.0,-3.4197,-3.4197,-3.4197,-3.4148,-3.4148,-3.4148,-3.4099,-3.4099,-3.4099,-3.4049,-3.4023,0.0,0.0,0.0,0.0,0.0,0.0,0.0,0.0,0.0,0.0,0.0,0.0,0.0,0.0,0.0,0.0,0.0,0.0,0.0,0.0,0.0,0.0,0.0,0.0,0.0,0.0,0.0,0.0,0.0,0.0,0.0,0.0,0.0,0.0,0.0,0.0,0.0,0.0,0.0,0.0,0.0,0.0,0.0,0.0,0.0,0.0,0.0,0.0,0.0,0.0,0.0,0.0,0.0,-2.4683,-2.469,-2.4905,-2.5005,-2.5119,-2.5247,-2.5723,-2.5764,-2.5601,0.0,0.0,0.0,0.0,0.0,0.0,0.0,0.0,0.0,0.0,0.0,0.0,0.0,0.0,0.0,0.0,0.0,0.0,0.0,0.0,0.0,0.0,0.0,0.0,0.0,-3.3437,-3.339,0.0,0.0,0.0,0.0,0.0,0.0,0.0,0.0,0.0,0.0,0.0,0.0,-3.4197,-3.4197,-3.4173,-3.4099,-3.4099,-3.4074,-3.3998,-3.3998,-3.3998,-3.3972,-3.3921,-3.3895,0.0,0.0,0.0,0.0,0.0,0.0,0.0,0.0,0.0,0.0,0.0,0.0,0.0,0.0,0.0,0.0,0.0,0.0,0.0,0.0,0.0,0.0,0.0,0.0,0.0,0.0,0.0,0.0,0.0,0.0,0.0,0.0,-2.8674,-2.8674,0.0,0.0,0.0,0.0,0.0,0.0,0.0,0.0,0.0,0.0,0.0,0.0,0.0,0.0,-2.5568,-2.5077,-2.5258,-2.6145,-2.5697,-2.5872,-2.6718,-2.6303,-2.6526,-2.7205,-2.7459,0.0,-2.5334,-2.6494,0.0,0.0,0.0,0.0,0.0,0.0,0.0,0.0,0.0,0.0,0.0,0.0,0.0,0.0,0.0,0.0,0.0,0.0,0.0,0.0,0.0,0.0,-3.2876,-3.2784,-3.305,-3.3321,0.0,-3.3689,-3.3998,-3.3998,0.0,0.0,0.0,0.0,0.0,0.0,0.0,0.0,-3.4197,-3.4148,-3.4124,-3.4099,-3.4049,-3.3998,-3.3998,-3.3998,-3.3972,-3.3921,-3.3895,-3.3868,-3.3834,-3.3788,0.0,0.0,0.0,0.0,0.0,0.0,0.0,0.0,0.0,0.0,0.0,0.0,0.0,0.0,0.0,0.0,0.0,0.0,0.0,0.0,0.0,0.0,0.0,0.0,0.0,0.0,0.0,0.0,0.0,-2.892,-2.8817,-2.9124,-2.84,-2.8059,0.0,0.0,0.0,0.0,0.0,0.0,0.0,0.0,0.0,-2.609,-2.5897,-2.6012,-2.648,-2.6247,-2.6379,-2.6811,-2.6557,-2.6638,-2.7019,-2.6945,-2.724,-2.778,-2.7993,-2.7756,-2.7223,-2.8097,-2.8247,-2.7978,0.0,0.0,0.0,0.0,-3.0423,-3.162,-3.1449,-3.1913,0.0,0.0,0.0,0.0,0.0,0.0,0.0,0.0,0.0,0.0,0.0,0.0,0.0,-3.3321,-3.3465,-3.3634,-3.3578,-3.3734,-3.3895,0.0,-3.3998,-3.4074,-3.4099,0.0,0.0,0.0,0.0,0.0,-3.4148,-3.4099,-3.4023,-3.3998,-3.3947,-3.3921,-3.3895,-3.3895,-3.3868,-3.386,-3.3842,-3.3815,-3.3807,-3.3807,-3.3815,0.0,0.0,0.0,0.0,0.0,0.0,0.0,0.0,0.0,0.0,0.0,0.0,0.0,0.0,0.0,0.0,0.0,0.0,0.0,0.0,0.0,0.0,0.0,0.0,0.0,0.0,0.0,0.0,-2.942,-2.9353,-2.9776,-2.9104,-2.8824,0.0,0.0,0.0,0.0,0.0,0.0,-2.6933,-2.6933,-2.6887,-2.6909,-2.6826,-2.7041,-2.7682,-2.7594,-2.7669,-2.7884,-2.778,-2.7728,-2.7728,-2.7735,-2.7951,-2.8256,-2.846,-2.8778,-2.914,-2.9428,-2.9348,-2.912,-2.9531,-2.9902,-3.0215,-3.0087,-3.0771,-3.1787,-3.1507,-3.202,-3.277,-3.2521,0.0,-3.2993,-3.3117,0.0,0.0,0.0,0.0,-3.3868,-3.3921,-3.3947,-3.3921,-3.3788,-3.3981,-3.4173,-3.4119,-3.4311,-3.433,0.0,-3.3947,-3.4023,-3.4049,0.0,0.0,0.0,0.0,-3.4023,-3.4074,-3.4023,-3.3947,-3.3895,-3.3868,-3.3842,-3.3788,-3.3807,-3.3807,-3.3807,-3.3807,-3.3807,-3.3807,-3.3807,-3.3807,-3.3807,0.0,0.0,0.0,0.0,0.0,0.0,0.0,0.0,0.0,0.0,0.0,0.0,0.0,0.0,0.0,0.0,0.0,0.0,0.0,0.0,0.0,0.0,0.0,0.0,0.0,0.0,0.0,0.0,0.0,-3.1193,-3.0801,0.0,0.0,0.0,0.0,-2.9696,-2.9223,-2.8872,-2.8591,-2.8576,-2.8465,-2.8301,-2.7944,-2.8213,-2.925,-2.8894,-2.9146,-3.0029,-2.9644,-2.9606,-2.9819,-2.9122,-2.8971,-2.9258,-2.9451,-2.9838,-3.0243,-2.9575,-2.9212,-2.9073,-2.9515,-2.9913,-3.0267,-3.0087,-3.0576,-3.1372,-3.162,-3.1985,-3.2386,-3.2737,-3.3024,-3.322,-3.3473,-3.3726,0.0,0.0,-3.4049,-3.3972,-3.3842,-3.3807,-3.3788,-3.3726,-3.4339,-3.4945,-3.4935,-3.5643,-3.5781,0.0,-3.3807,-3.386,-3.3895,0.0,-3.3921,-3.3998,-3.3998,-3.3998,-3.3998,-3.3947,-3.3895,-3.3895,-3.3842,-3.3788,-3.3807,-3.3807,-3.3807,-3.3807,-3.3807,-3.3807,-3.3807,-3.3807,-3.3807,-3.3807,-3.3807,0.0,0.0,0.0,0.0,0.0,0.0,0.0,0.0,0.0,0.0,0.0,0.0,0.0,0.0,0.0,0.0,0.0,0.0,0.0,0.0,0.0,0.0,0.0,0.0,0.0,0.0,0.0,0.0,-3.1445,-3.0918,0.0,0.0,-3.0384,-3.0044,-3.0044,-2.9722,-2.9364,-2.8997,-2.8951,-2.8982,-2.9042,-2.8893,-2.9164,-2.9889,-2.9785,-2.9855,-3.0046,-2.994,-2.9833,-2.9848,-2.9877,-2.993,-3.0083,-3.0382,-3.0672,-3.099,-3.0988,-3.0619,-3.011,-3.0112,-3.0097,-3.0113,-3.0293,-3.0891,-3.162,-3.1949,-3.2352,-3.2705,-3.2705,-3.288,-3.3099,-3.319,-3.3321,-3.3504,-3.3815,-3.3842,-3.3834,-3.3842,-3.4318,-3.4741,-3.4568,-3.5238,-3.5901,-3.5844,-3.6111,-3.6148,-3.5532,-3.5487,-3.5542,-3.5515,-3.5515,-3.5542,-3.5596,-3.5542,-3.5487,-3.5542,-3.5487,-3.523,-3.466,-3.4578,-3.4376,-3.3844,-3.3807,-3.3807,-3.3807,-3.3807,-3.3807,-3.3807,-3.3807,-3.3807,-3.3807,-3.3807,-3.3807,0.0,0.0,0.0,0.0,0.0,0.0,0.0,0.0,0.0,0.0,0.0,0.0,0.0,0.0,0.0,0.0,0.0,0.0,0.0,0.0,0.0,0.0,0.0,0.0,0.0,0.0,-3.1877,-3.1691,-3.1218,-3.0942,-3.1055,-3.0551,-3.0215,-3.0215,-2.9941,-2.973,-2.9637,-2.9437,-2.9484,-2.9871,-2.97,-2.9867,-3.0472,-3.0487,-3.0502,-3.0637,-3.0637,-3.0637,-3.0622,-3.0828,-3.0964,-3.0985,-3.1171,-3.1367,-3.1639,-3.1951,-3.1822,-3.1435,-3.1193,-3.1066,-3.1013,-3.1248,-3.1793,-3.2565,-3.309,-3.3452,-3.3669,-3.3618,-3.3552,-3.3494,-3.3659,-3.3567,-3.3465,-3.3815,-3.4017,-3.4211,-3.4336,-3.4989,-3.5607,-3.5487,-3.614,-3.6746,-3.6717,-3.6909,-3.711,-3.711,-3.6738,-3.6426,-3.637,-3.6389,-3.637,-3.6426,-3.636,-3.6332,-3.6342,-3.6332,-3.6083,-3.5514,-3.5174,-3.477,-3.4266,-3.3972,-3.3807,-3.3807,-3.3807,-3.3807,-3.3807,-3.3807,-3.3807,-3.3807,-3.3807,-3.3807,-3.3807,0.0,0.0,0.0,0.0,0.0,0.0,0.0,0.0,0.0,0.0,0.0,0.0,0.0,0.0,0.0,0.0,0.0,0.0,0.0,0.0,0.0,0.0,0.0,-3.2687,-3.2606,-3.2437,-3.2039,-3.1823,-3.1562,-3.123,-3.0658,-3.0309,-3.0342,-2.9913,-3.0,-3.0693,-3.0148,-3.0105,-3.0857,-3.0324,-3.0357,-3.1025,-3.1025,-3.1248,-3.1799,-3.1799,-3.194,-3.2176,-3.1973,-3.1925,-3.2013,-3.182,-3.1932,-3.223,-3.2384,-3.267,-3.3032,-3.2813,-3.2774,-3.2862,-3.2785,-3.3296,-3.4164,-3.4942,-3.5204,-3.5238,-3.5486,-3.5078,-3.454,-3.499,-3.454,-3.3915,-3.4123,-3.4644,-3.5183,-3.5319,-3.5846,-3.635,-3.6407,-3.7004,-3.7533,-3.7533,-3.8138,-3.8707,-3.8707,-3.7441,-3.6376,-3.6376,-3.6376,-3.6376,-3.6376,-3.6376,0.0,-3.6376,-3.6376,-3.6358,-3.634,-3.5587,-3.5045,-3.499,-3.4302,-3.3825,-3.3807,-3.3807,-3.3807,-3.3807,-3.3807,-3.3807,-3.3807,-3.3807,-3.3807,-3.3807,0.0,0.0,0.0,0.0,0.0,0.0,0.0,0.0,0.0,0.0,0.0,0.0,0.0,0.0,0.0,0.0,0.0,0.0,0.0,0.0,0.0,0.0,-3.2798,-3.2504,-3.257,-3.2537,-3.2197,-3.1785,-3.1504,-3.1445,-3.0998,-3.0949,-3.1483,-3.1406,-3.1473,-3.1834,-3.17,-3.1758,-3.2185,-3.1628,-3.1573,-3.216,-3.1764,-3.1603,-3.1597,-3.1467,-3.1697,-3.2191,-3.2158,-3.223,-3.2415,-3.2541,-3.2714,-3.2929,-3.3339,-3.3709,-3.4023,-3.3336,-3.2932,-3.2829,-3.3439,-3.4185,-3.4907,-3.5135,-3.5204,-3.5169,-3.5013,-3.5196,-3.5483,-3.5349,-3.5524,-3.5772,-3.5808,-3.5938,-3.6021,-3.6011,-3.6589,-3.7177,-3.7177,-3.7801,-3.8377,-3.8377,-3.8542,-3.8707,-3.8707,-3.834,-3.8046,-3.8046,-3.8046,-3.8046,-3.8046,-3.8046,0.0,-3.8046,-3.8046,-3.7826,-3.7221,-3.6945,-3.6321,-3.5082,-3.4789,-3.4431,-3.3844,-3.3807,-3.3807,-3.3807,-3.3807,-3.3807,-3.3807,-3.3807,-3.3807,0.0,0.0,0.0,0.0,0.0,0.0,0.0,0.0,0.0,0.0,0.0,0.0,0.0,0.0,0.0,0.0,0.0,0.0,0.0,0.0,0.0,0.0,-3.3178,-3.288,-3.2862,-3.2862,-3.2734,-3.242,-3.2073,-3.1748,-3.1466,-3.1484,-3.1631,-3.1901,-3.2193,-3.2573,-3.3003,-3.2744,-3.2804,-3.3255,-3.2681,-3.2488,-3.2788,-3.2437,-3.2231,-3.2064,-3.1992,-3.216,-3.2508,-3.2508,-3.2617,0.0,-3.3043,-3.3118,-3.3161,-3.3832,-3.4201,0.0,0.0,0.0,0.0,0.0,-3.5489,-3.5953,-3.6132,-3.6132,-3.6078,-3.5989,-3.6057,-3.6218,-3.6132,-3.6291,-3.6454,-3.6454,-3.6638,-3.6838,-3.6828,-3.7386,-3.7991,-3.7991,-3.8358,-3.8707,-3.8707,-3.8707,-3.8707,-3.8707,-3.8707,0.0,-3.8707,-3.8707,-3.8707,-3.8707,-3.8707,-3.8707,-3.8707,-3.8707,-3.8524,-3.8046,-3.7679,-3.6964,-3.5661,-3.5192,0.0,0.0,0.0,-3.3807,-3.3807,-3.3807,0.0,0.0,0.0,-3.3807,-3.3807,0.0,0.0,0.0,-3.3807,-3.3807,0.0,0.0,0.0,0.0,0.0,0.0,0.0,0.0,0.0,0.0,0.0,0.0,0.0,0.0,0.0,0.0,-3.3327,-3.3147,-3.3404,-3.3226,-3.2961,-3.2672,-3.2504,-3.2144,-3.1487,-3.2054,-3.2347,-3.2077,-3.2694,-3.3401,-3.4106,0.0,0.0,0.0,0.0,-3.3198,-3.3108,-3.2986,-3.2949,-3.2788,-3.2734,-3.2819,-3.298,-3.2926,-3.2904,-3.3005,-3.3293,-3.333,-3.3245,-3.3984,-3.43,-3.4399,-3.493,-3.5333,-3.5749,-3.658,-3.69,-3.6995,-3.7411,0.0,0.0,-3.7559,-3.7272,-3.6865,-3.7158,-3.6966,-3.6675,-3.6675,-3.7132,-3.7636,-3.7654,-3.8157,-3.8707,-3.8707,-3.8707,-3.8707,-3.8707,-3.8707,-3.8707,-3.8707,-3.8707,-3.8707,-3.8707,-3.8707,-3.8707,-3.8707,-3.8707,-3.8707,-3.8707,-3.8707,-3.8707,-3.8707,0.0,0.0,-3.6486,-3.5642,-3.4789,-3.399,-3.3844,-3.3807,-3.3807,-3.3807,-3.3807,-3.3807,-3.3807,-3.3807,-3.3807,-3.3807,-3.3807,-3.3807,-3.3807,-3.3807,0.0,0.0,0.0,0.0,0.0,0.0,0.0,0.0,0.0,0.0,0.0,0.0,0.0,0.0,0.0,-3.3452,-3.3165,-3.2948,-3.3011,-3.2979,-3.2948,-3.2916,-3.2573,-3.2266,-3.2127,-3.2533,-3.3012,-3.3551,-3.3973,-3.4476,-3.511,-3.4651,0.0,-3.4448,-3.3882,-3.3575,-3.3575,-3.3071,-3.2841,-3.2803,0.0,0.0,-3.298,-3.2468,-3.2648,-3.3346,-3.3156,-3.3507,-3.4234,-3.43,-3.4448,-3.4691,-3.527,-3.5661,-3.595,-3.6661,-3.6917,-3.7009,-3.7259,-3.722,-3.7087,-3.7226,-3.7416,-3.7644,-3.7896,-3.8144,0.0,-3.8332,-3.8442,-3.8541,-3.8499,-3.8579,-3.8707,-3.8707,-3.8707,-3.8707,-3.8707,-3.8707,-3.8707,-3.8707,-3.8707,-3.8707,-3.8707,-3.8707,-3.8707,-3.8707,-3.8707,-3.8707,-3.8707,-3.8707,-3.8707,-3.8707,-3.856,-3.8138,-3.7331,-3.6523,-3.5679,-3.4807,-3.4174,-3.3807,-3.3807,-3.3807,-3.3807,-3.3807,-3.3807,-3.3807,-3.3807,-3.3807,-3.3807,-3.3807,-3.3807,-3.3807,0.0,0.0,0.0,0.0,0.0,0.0,0.0,0.0,0.0,0.0,0.0,-3.4173,0.0,0.0,-3.3577,-3.3671,-3.3339,-3.3117,-3.3238,-3.3073,-3.2916,-3.2948,-3.2737,-3.268,-3.2897,-3.3419,-3.3942,-3.4369,-3.4891,-3.5243,-3.527,-3.5024,-3.4804,-3.4497,-3.4101,-3.3848,-3.3797,-3.3366,-3.3102,-3.3049,-3.285,-3.2796,-3.2973,-3.2796,-3.2958,-3.3261,-3.3507,-3.3933,-3.4399,-3.4691,-3.4851,-3.4977,-3.5677,-3.5881,-3.589,-3.6678,-3.6952,-3.7009,-3.7105,-3.7027,-3.6869,-3.7129,-3.7395,-3.7721,-3.8032,-3.8446,-3.875,-3.875,-3.875,-3.875,-3.8707,-3.8707,-3.8707,-3.8707,-3.8707,-3.8707,-3.8707,-3.8707,-3.8707,-3.8707,-3.8707,-3.8707,-3.8707,-3.8707,-3.8707,-3.8707,-3.8707,-3.8707,-3.8707,-3.8707,-3.8707,-3.8707,-3.8707,-3.8377,-3.7551,-3.6358,-3.5477,-3.5027,-3.4247,-3.3807,-3.3807,-3.3807,-3.3807,-3.3807,-3.3807,-3.3807,-3.3807,-3.3807,-3.3807,-3.3807,-3.3807,-3.3807,0.0,0.0,0.0,0.0,0.0,0.0,0.0,0.0,-3.4752,-3.4454,-3.4386,-3.4293,-3.3947,-3.3807,-3.3807,-3.3947,-3.3494,-3.325,-3.352,-3.3117,-3.2802,-3.2884,-3.2884,-3.3024,-3.3459,-3.416,-3.4725,-3.4977,-3.5608,-3.5749,-3.5211,-3.5088,-3.4851,-3.4349,-3.4151,-3.3949,-3.3797,-3.3555,-3.3398,-3.3309,-3.3346,-3.3256,-3.3005,-3.3398,-3.3487,-3.3298,-3.4084,-3.4399,-3.4448,-3.5041,-3.5198,-3.5135,-3.5915,-3.6011,-3.5803,-3.6655,-3.693,-3.6851,-3.6908,-3.6788,-3.6667,-3.7111,-3.7358,-3.7578,-3.8068,-3.8433,-3.8707,-3.8707,-3.8707,-3.8707,-3.8707,-3.8707,-3.8707,-3.8707,-3.8707,-3.8707,-3.8707,-3.8707,-3.8707,-3.8707,-3.8707,-3.8707,-3.8707,-3.8707,-3.8707,-3.8707,-3.8707,-3.8707,-3.8707,-3.8707,-3.8707,-3.8707,-3.8707,-3.8377,-3.7551,-3.6119,-3.5174,-3.5009,-3.4247,-3.3807,-3.3807,-3.3807,-3.3807,-3.3807,-3.3807,-3.3807,-3.3807,-3.3807,-3.3788,-3.378,-3.378,-3.378,-3.5798,-3.5618,0.0,-3.5013,-3.4926,-3.4851,0.0,0.0,-3.4583,-3.4431,-3.4386,-3.434,-3.4197,-3.3998,-3.3868,-3.3815,-3.335,-3.3117,-3.3393,-3.2816,-3.2488,-3.2852,-3.2737,-3.2839,-3.3441,-3.4231,-3.4966,-3.5626,-3.6035,-3.6011,-3.5476,-3.5131,-3.4546,-3.3797,-3.3745,-3.3607,-3.3361,-3.3346,-3.3293,-3.3309,-3.3555,-3.3607,-3.345,-3.3761,-3.3949,-3.4184,-3.4643,-3.4756,-3.4691,-3.5105,-3.5152,-3.4994,-3.5739,-3.5915,-3.5898,-3.6713,-3.6731,-3.6426,-3.6643,-3.6544,-3.6468,-3.7208,-3.7469,-3.765,-3.8401,-3.8658,-3.8707,-3.8707,-3.8707,-3.8707,-3.8707,-3.8707,-3.8707,-3.8707,-3.8707,-3.8707,-3.8707,-3.8707,-3.8707,-3.8707,-3.8707,-3.8707,-3.8707,-3.8707,-3.8707,-3.8707,-3.8707,-3.8707,-3.8707,-3.8707,-3.8707,-3.8707,-3.8707,-3.8377,-3.7551,-3.667,-3.5826,-3.5045,-3.4247,-3.3807,-3.3807,-3.3807,-3.3807,-3.3807,-3.3807,-3.3807,-3.3807,-3.3807,-3.378,-3.3698,-3.3698,-3.3698,-3.5798,0.0,0.0,0.0,-3.5053,-3.4889,-3.4772,-3.4689,-3.4561,-3.4427,-3.4386,-3.4363,-3.4221,-3.4099,-3.3998,0.0,-3.3652,-3.3444,-3.3549,-3.3037,-3.2639,-3.2603,-3.2739,-3.3211,-3.4126,-3.444,-3.5028,-3.6133,-3.6253,-3.6071,-3.5464,-3.527,-3.4913,-3.43,-3.4151,-3.3797,-3.3261,-3.345,-3.3382,-3.3033,-3.3487,-3.3642,-3.3658,-3.3949,-3.43,-3.4643,-3.4994,-3.5041,-3.4994,-3.5487,-3.5577,-3.547,-3.5958,-3.6131,-3.6131,-3.6468,-3.6468,-3.6301,-3.6444,-3.6402,-3.6451,-3.7246,-3.7505,-3.765,-3.8451,-3.8707,-3.8707,-3.8707,-3.8707,-3.8707,-3.8707,-3.8707,-3.8707,-3.8707,-3.8707,-3.8707,-3.8707,-3.8707,-3.8707,-3.8707,-3.8707,-3.8707,-3.8707,-3.8707,-3.8707,-3.8707,-3.8707,-3.8707,-3.8707,-3.8707,-3.8707,-3.8707,-3.8707,-3.856,-3.823,-3.7459,-3.6633,-3.5807,-3.4963,-3.4302,-3.3825,-3.3807,-3.3807,-3.3807,-3.3807,-3.3807,-3.3807,-3.3807,-3.378,-3.3698,-3.3698,-3.3661,-3.5792,0.0,0.0,-3.5383,-3.5187,-3.4964,-3.4812,-3.4689,-3.4517,-3.4316,-3.4293,-3.4269,-3.4173,-3.4099,-3.4074,-3.4049,-3.3815,-3.3643,-3.3698,-3.3309,-3.2991,-3.2938,-3.3085,-3.364,-3.4804,-3.4722,-3.5104,-3.6256,-3.6233,-3.5915,-3.5396,-3.535,-3.5071,-3.4546,-3.4349,-3.3933,-3.3351,-3.3591,-3.3471,-3.3071,-3.3626,-3.3899,-3.3899,-3.4349,-3.4739,-3.5041,-3.5274,-3.5321,-3.5228,-3.5756,-3.5915,-3.581,-3.6174,-3.6301,-3.6301,-3.6301,-3.6301,-3.6301,-3.6301,-3.6367,-3.6522,-3.7035,-3.7256,-3.7431,-3.7898,-3.8046,-3.8046,-3.8046,-3.8193,-3.8377,-3.8377,-3.8524,-3.8707,-3.8707,-3.8707,-3.8707,-3.8707,-3.8707,-3.8707,-3.8707,-3.8707,-3.8658,-3.8546,-3.8627,-3.8658,-3.8546,-3.8627,-3.8707,-3.8707,-3.8707,-3.8707,-3.8707,-3.8707,-3.8707,-3.8707,-3.7955,-3.7147,-3.634,-3.5495,-3.4651,-3.3825,-3.3807,-3.3807,-3.3807,-3.3807,-3.3807,-3.3807,-3.378,-3.3726,-3.3671,-3.3643,-3.3577,-3.5806,0.0,-3.5464,-3.5348,-3.5234,-3.5072,-3.4626,-3.4517,-3.4427,-3.4074,-3.4023,-3.3998,-3.3998,-3.3998,-3.3972,-3.3921,-3.3634,-3.3494,-3.3671,-3.3473,-3.3547,-3.4185,-3.389,-3.414,0.0,-3.5122,-3.5198,-3.5968,-3.5905,-3.5684,-3.5337,-3.5198,-3.4787,-3.4151,-3.4101,-3.3949,-3.3694,-3.3694,-3.3694,-3.3694,-3.4201,-3.4399,-3.43,-3.4947,-3.5291,-3.5291,-3.5487,-3.5515,-3.5424,-3.5827,-3.5915,-3.581,-3.6174,-3.6301,-3.6301,-3.6301,-3.6301,-3.6301,-3.6301,-3.6574,-3.6816,-3.6451,-3.659,-3.6862,-3.649,-3.6376,-3.6376,-3.6376,-3.6927,-3.7533,-3.7533,-3.812,-3.8707,-3.8707,-3.8707,-3.8707,-3.8707,-3.8707,-3.8707,-3.8707,-3.8707,-3.8596,-3.8186,-3.8433,-3.8564,-3.8186,-3.8451,-3.8707,-3.8707,-3.8707,-3.8707,-3.8707,-3.8707,-3.8707,-3.8707,-3.7955,-3.7147,-3.634,-3.5495,-3.4651,-3.3825,-3.3807,-3.3807,-3.3807,-3.3807,-3.3807,-3.3807,-3.3726,-3.3671,-3.3605,-3.352,-3.3481,-3.5872,0.0,-3.5543,-3.5461,-3.5283,-3.5088,-3.4889,-3.463,-3.4386,-3.4293,-3.4124,-3.3998,-3.3998,-3.3972,-3.3921,-3.3895,-3.3734,-3.3625,-3.3698,-3.3619,-3.3739,-3.4103,-3.4283,0.0,0.0,0.0,0.0,-3.5705,-3.5639,-3.552,-3.5291,-3.5245,-3.5105,-3.4787,-3.4739,-3.4497,-3.3949,-3.43,-3.43,-3.3949,-3.4399,-3.4756,-3.4947,-3.5088,-3.5274,-3.5503,-3.5667,-3.5756,-3.5844,-3.6036,-3.6148,-3.6114,-3.6259,-3.6301,-3.6301,-3.6301,-3.6301,-3.6343,-3.6597,-3.6799,-3.6981,-3.7345,-3.7223,-3.6916,-3.7058,-3.6707,-3.6303,-3.6303,-3.6486,-3.6688,-3.6688,-3.689,-3.7239,-3.7771,-3.79,-3.7967,-3.8241,-3.8515,-3.8627,-3.8368,-3.8285,-3.8318,-3.8483,-3.8401,-3.8336,-3.8483,-3.8627,-3.8707,-3.8707,-3.8707,-3.8707,-3.8707,-3.8707,-3.8707,-3.8707,-3.845,-3.7734,-3.6376,-3.6028,-3.5238,-3.3862,-3.3807,-3.3807,-3.3807,-3.3753,-3.3726,-3.3726,-3.3671,-3.3605,-3.352,-3.3491,-3.3742,-3.5909,-3.5791,-3.5629,-3.5579,-3.5412,-3.5181,-3.5015,-3.4714,-3.4435,-3.434,-3.4099,-3.3895,-3.3895,-3.386,-3.3734,-3.3634,-3.3777,-3.3873,-3.3844,-3.4199,-3.4605,-3.5029,-3.5161,0.0,0.0,0.0,0.0,-3.547,-3.5429,-3.5291,-3.5245,-3.5198,-3.5105,-3.5041,-3.5041,-3.4804,-3.43,-3.4659,-3.4643,-3.425,-3.4643,-3.4994,-3.5245,-3.5367,-3.5487,-3.5667,-3.5861,-3.5993,-3.6079,-3.6165,-3.6251,-3.6301,-3.6301,-3.6301,-3.6301,-3.6301,-3.6301,-3.6343,-3.6597,-3.686,-3.7155,-3.7362,-3.7109,-3.6674,-3.6611,-3.6046,-3.5404,-3.5404,-3.5605,-3.5844,-3.5844,-3.6064,-3.6431,-3.6945,-3.7055,-3.7094,-3.7221,-3.7444,-3.7557,-3.7297,-3.7166,-3.7133,-3.7417,-3.7471,-3.7775,-3.859,-3.8707,-3.8707,-3.8707,-3.8707,-3.8627,-3.8515,-3.8483,-3.8483,-3.8483,-3.8483,-3.7979,-3.6798,-3.645,-3.5679,-3.4302,-3.3927,-3.378,-3.378,-3.3698,-3.3671,-3.3671,-3.3605,-3.3549,-3.3509,-3.3771,-3.4129,-3.5958,-3.5853,-3.5689,-3.5708,-3.5588,-3.5386,-3.5013,-3.4755,-3.4548,-3.4274,-3.3947,-3.3726,0.0,-3.3643,-3.3502,-3.3172,-3.371,-3.415,-3.4117,-3.5049,-3.6023,0.0,0.0,0.0,0.0,0.0,0.0,-3.5337,0.0,-3.5088,-3.5088,-3.4947,-3.4899,-3.4899,-3.4899,-3.4851,-3.4691,-3.4691,-3.4659,-3.4546,-3.4899,-3.5088,-3.5182,-3.5711,-3.5932,-3.5817,-3.6096,-3.6182,-3.6182,-3.6182,-3.6251,-3.6301,-3.6301,-3.6301,-3.6301,-3.6301,-3.6301,-3.6301,-3.6301,-3.6821,-3.7344,-3.6613,-3.6353,-3.6109,-3.5302,-3.4486,-3.3807,-3.3807,-3.4357,-3.4935,-3.4935,-3.555,-3.6174,-3.6211,-3.6229,-3.6124,-3.5768,-3.5688,-3.5688,-3.5688,-3.5432,-3.5218,-3.5204,-3.5845,-3.6872,-3.8358,-3.8548,-3.8566,-3.8689,-3.8676,-3.8515,-3.8135,-3.8068,-3.8068,-3.8101,-3.8101,-3.7921,-3.7477,-3.6707,-3.5881,-3.4972,-3.4147,-3.3698,-3.3698,-3.3633,-3.3605,-3.3605,-3.352,-3.3491,-3.3528,-3.4256,-3.4624,-3.5929,-3.5846,-3.5754,-3.5717,-3.5512,-3.5321,-3.5224,-3.4924,-3.4653,-3.4591,-3.4227,-3.3921,0.0,-3.3753,-3.3559,-3.3473,-3.3597,0.0,-3.448,-3.4932,0.0,-3.6672,0.0,-3.6207,-3.6935,-3.5854,0.0,0.0,-3.5424,-3.5058,-3.4947,-3.4899,-3.4899,-3.4899,-3.4804,-3.4739,-3.4691,-3.4594,-3.4691,-3.4947,-3.4947,-3.5211,-3.5756,-3.5711,-3.5861,-3.6079,-3.5949,-3.5949,-3.6062,-3.6062,-3.6122,-3.6251,-3.6259,-3.6301,-3.6301,-3.6301,-3.6301,-3.6301,-3.6301,-3.6638,-3.7135,-3.7487,-3.6837,-3.5866,-3.5941,-3.4945,-3.3807,-3.3807,-3.3954,-3.4119,-3.4119,-3.4266,-3.4596,-3.5202,-3.5349,-3.5323,-3.5328,-3.5515,-3.5643,-3.5388,-3.545,-3.5483,-3.5238,-3.5582,-3.6105,-3.6795,-3.6656,-3.7015,-3.8511,-3.8451,-3.8219,-3.8101,-3.7844,-3.7756,-3.8068,-3.8101,-3.7653,-3.6688,-3.6318,-3.5502,-3.4092,-3.3752,-3.3633,-3.3633,-3.3549,-3.352,-3.352,-3.3452,-3.3422,-3.3441,-3.4226,-3.4932,-3.5827,-3.5757,-3.5689,-3.5566,-3.5412,-3.5292,-3.5216,-3.4962,-3.4694,-3.4551,-3.4232,0.0,-3.3788,-3.3615,0.0,0.0,0.0,0.0,-3.4781,-3.5256,-3.5936,0.0,-3.6752,0.0,-3.6956,-3.6165,-3.5749,0.0,-3.5362,-3.4977,-3.5102,-3.4883,-3.4739,-3.4739,-3.4643,-3.4594,-3.4546,-3.4399,-3.4546,-3.4947,-3.4977,-3.5333,-3.5915,-3.5888,-3.5932,-3.6122,0.0,-3.5861,-3.5905,-3.5905,-3.5993,-3.6122,-3.6233,-3.6276,-3.6276,-3.6301,-3.6301,-3.6301,-3.6301,-3.6451,-3.6781,-3.7578,-3.6982,-3.6012,-3.6227,-3.5128,-3.3788,-3.378,-3.3753,-3.3753,-3.3726,-3.3726,-3.3826,-3.4265,-3.4375,-3.4342,-3.4127,-3.4232,-3.4199,-3.3688,-3.3845,-3.4138,-3.4305,-3.4666,-3.5151,-3.586,-3.5976,-3.6304,-3.7277,-3.7359,-3.7431,-3.7542,-3.7395,-3.7395,-3.7791,-3.7844,-3.7543,-3.6831,-3.6344,-3.5528,-3.4256,-3.3788,-3.3549,-3.3549,-3.3509,-3.3452,-3.3452,-3.3422,-3.3393,-3.3429,-3.4588,-3.5385,-3.5679,-3.5621,-3.5535,-3.5369,-3.5288,-3.5243,-3.5143,-3.4945,-3.4693,-3.4398,0.0,-3.3834,-3.3577,-3.3452,-3.3286,-3.2957,0.0,-3.4169,-3.492,-3.5669,-3.6488,-3.7435,-3.7266,-3.7052,-3.6956,-3.6481,-3.6147,-3.6037,-3.5224,-3.4913,-3.5345,-3.4802,-3.4497,-3.4448,-3.4448,-3.4448,-3.4349,-3.425,-3.4382,-3.4835,-3.5131,-3.5498,-3.5854,-3.6062,-3.6122,-3.5975,0.0,0.0,-3.5773,-3.5773,-3.5861,-3.5975,-3.6122,-3.6165,-3.6165,-3.6276,-3.6301,-3.6301,-3.6301,-3.6385,-3.6557,-3.7159,-3.6793,-3.6131,-3.6127,-3.5037,-3.378,-3.3698,-3.3698,-3.3671,-3.3633,-3.3605,-3.3605,-3.3605,-3.3605,-3.3444,-3.283,-3.2621,-3.2318,-3.1671,-3.1785,-3.2248,-3.3001,-3.3475,-3.4077,-3.5133,-3.5636,-3.5809,-3.5574,-3.5942,-3.6363,-3.657,-3.6562,-3.6714,-3.7235,-3.7219,-3.7163,-3.7137,-3.6376,-3.5524,-3.4663,-3.3884,-3.3481,-3.3481,-3.3422,-3.3393,-3.3393,-3.3393,-3.3393,-3.3447,-3.5059,-3.582,-3.5508,-3.5444,-3.5432,-3.5391,-3.5262,-3.5136,-3.5187,-3.4889,0.0,0.0,-3.4173,-3.3788,-3.3753,-3.3549,-3.3364,-3.3304,0.0,0.0,0.0,0.0,-3.591,0.0,0.0,0.0,0.0,0.0,0.0,0.0,0.0,0.0,-3.5135,-3.4739,-3.4448,-3.4349,-3.4349,-3.4448,-3.4643,-3.4594,-3.4913,-3.5605,-3.5677,-3.5854,-3.6216,-3.6105,-3.6019,-3.5975,0.0,0.0,-3.5622,-3.5773,-3.5817,-3.5861,-3.5975,-3.6019,-3.6062,-3.6165,-3.6208,-3.6208,-3.6259,-3.6759,-3.7214,-3.6684,-3.5952,-3.5277,-3.5173,-3.4504,-3.378,-3.3643,-3.3661,-3.3671,-3.3633,-3.3605,-3.3605,-3.3605,-3.3605,-3.3415,-3.2752,-3.2335,-3.2074,-3.1949,-3.1967,-3.2144,-3.2613,-3.2816,-3.3062,-3.3532,-3.3719,-3.405,-3.463,-3.5119,-3.5314,-3.5095,-3.4791,-3.5014,-3.603,-3.5687,-3.5558,-3.5901,-3.5296,-3.4586,-3.3756,-3.3524,-3.3422,-3.3422,-3.3411,-3.3393,-3.3393,-3.3393,-3.3393,-3.3447,-3.5059,-3.582,-3.5366,-3.5273,-3.5232,-3.5168,-3.5105,-3.5054,-3.5034,0.0,0.0,0.0,-3.4074,-3.3753,-3.3633,0.0,0.0,0.0,0.0,0.0,0.0,0.0,0.0,0.0,0.0,0.0,0.0,0.0,0.0,0.0,0.0,0.0,-3.5283,-3.4658,-3.425,-3.4201,-3.4201,-3.4349,-3.4691,-3.4691,-3.5055,-3.5827,-3.5827,-3.5958,-3.6233,-3.6062,-3.5975,-3.5888,-3.5667,0.0,-3.5622,-3.5667,-3.5684,-3.5711,-3.5844,-3.5905,-3.5905,-3.6036,-3.6079,-3.6122,-3.6148,-3.6149,-3.6064,-3.5667,-3.5574,-3.5517,-3.5009,-3.431,-3.3671,-3.3577,-3.3577,-3.353,-3.3262,-3.3357,-3.3433,-3.3232,-3.325,-3.3129,-3.257,-3.2197,-3.1877,-3.1637,-3.1714,-3.186,-3.1858,-3.2266,-3.2586,-3.2763,-3.3032,-3.3346,-3.3731,-3.3593,-3.383,-3.4818,-3.4727,-3.4746,-3.5047,-3.4843,-3.4451,-3.3906,-3.3626,-3.3073,-3.2218,-3.2172,-3.2343,-3.2777,-3.2777,-3.2977,-3.3393,-3.3393,-3.3393,-3.3447,-3.5059,-3.582,-3.5162,-3.5051,-3.4944,-3.4792,-3.4792,-3.4812,-3.4772,-3.4569,0.0,0.0,-3.3895,-3.3643,-3.3452,0.0,-3.3226,0.0,0.0,0.0,0.0,0.0,0.0,0.0,0.0,0.0,0.0,0.0,0.0,0.0,0.0,0.0,-3.5186,-3.4496,-3.4101,-3.4101,-3.4201,-3.4399,-3.4771,-3.4883,-3.5241,-3.5871,-3.5871,-3.5975,-3.6165,-3.6036,-3.5905,-3.5773,-3.5667,0.0,0.0,-3.5622,-3.5622,-3.5622,-3.5728,-3.5773,-3.5773,-3.5905,-3.5949,-3.5958,-3.5805,-3.5446,-3.4943,-3.4541,-3.4882,-3.5338,-3.4695,-3.4022,-3.3473,-3.3462,-3.3509,-3.3404,-3.3019,-3.3178,-3.3334,-3.2988,-3.2957,-3.2862,-3.2486,-3.2127,-3.1785,-3.1504,-3.1524,-3.1562,-3.1466,-3.1846,-3.2172,-3.2272,-3.2514,-3.2697,-3.2685,-3.2144,-3.2409,-3.4085,-3.4135,-3.3939,-3.3737,-3.3651,-3.3184,-3.2234,-3.2073,-3.1719,-3.1021,-3.0985,-3.1292,-3.1926,-3.1926,-3.2343,-3.314,-3.314,-3.323,-3.3429,-3.4878,-3.5657,-3.4851,-3.4711,-3.4583,-3.434,-3.4269,-3.4269,-3.4269,0.0,0.0,-3.3842,-3.3615,-3.3422,-3.3393,-3.3055,-3.2766,0.0,0.0,-3.2231,0.0,0.0,0.0,0.0,0.0,0.0,0.0,0.0,0.0,0.0,0.0,0.0,0.0,-3.4151,-3.4101,-3.4101,-3.4448,-3.4818,-3.5131,-3.5379,-3.5711,-3.6165,-3.6019,-3.5975,-3.6019,-3.5905,-3.5817,-3.5773,0.0,0.0,0.0,-3.5622,-3.5622,-3.5622,-3.5622,-3.5622,-3.5622,-3.5773,-3.5817,-3.5715,-3.5181,-3.5191,-3.5183,-3.3668,-3.3276,-3.3424,-3.3563,-3.3411,-3.319,-3.3364,-3.3452,-3.3481,-3.3364,-3.3364,-3.3393,-3.3364,-3.3068,-3.2813,-3.2763,-3.2231,-3.1823,-3.2144,-3.1674,-3.1428,-3.2074,-3.1686,-3.1426,-3.1791,-3.1562,-3.1354,-3.1354,-3.13,-3.1336,-3.1528,-3.1022,-3.0893,-3.1544,-3.1194,-3.1172,-3.1709,-3.1379,-3.1084,-3.0985,-3.0985,-3.1021,-3.1111,-3.1111,-3.151,-3.2306,-3.2306,-3.2687,-3.3429,-3.4298,-3.5113,-3.4735,-3.4628,-3.4539,-3.4269,-3.4197,-3.4197,-3.4197,0.0,-3.3807,-3.3807,-3.3577,-3.3304,-3.3024,-3.3024,-3.2848,-3.2265,-3.2283,0.0,0.0,0.0,0.0,0.0,0.0,0.0,0.0,0.0,0.0,0.0,0.0,0.0,0.0,-3.4546,-3.4497,-3.4101,-3.4546,-3.4818,-3.4833,-3.527,-3.5694,-3.6079,-3.6019,-3.5975,-3.5905,-3.5817,-3.5773,-3.5684,0.0,0.0,0.0,-3.5622,-3.5622,-3.5622,-3.5622,-3.5622,-3.5571,-3.5159,-3.5033,-3.4931,-3.4245,-3.3792,-3.3482,-3.3076,-3.2483,-3.2053,-3.2608,-3.2844,-3.2939,-3.3019,-3.3238,-3.3393,-3.3099,-3.3019,-3.3099,-3.3334,-3.3286,-3.3099,-3.2827,-3.2401,-3.1899,-3.1394,-3.1041,-3.0759,-3.0578,-3.0501,-3.06,-3.0945,-3.0872,-3.0856,-3.1048,-3.0656,-3.0366,-3.0366,-3.0631,-3.071,-3.0463,-3.0305,-3.008,-2.9863,-2.9656,-2.9572,-2.9572,-2.9572,-2.9771,-3.026,-3.026,-3.0659,-3.1473,-3.1962,-3.2361,-3.2705,-3.3948,-3.4695,-3.4574,-3.4416,-3.4293,-3.4023,-3.3972,-3.3947,0.0,0.0,-3.3671,-3.3661,-3.3491,-3.3226,-3.2766,-3.2784,-3.2603,-3.1789,-3.1842,-3.186,-3.1528,0.0,0.0,0.0,0.0,0.0,0.0,0.0,0.0,0.0,0.0,0.0,0.0,-3.4883,-3.4787,-3.4101,-3.4739,-3.4961,-3.4833,-3.527,-3.5667,-3.5932,-3.5888,-3.5844,-3.5728,-3.5728,-3.5684,-3.5622,0.0,0.0,0.0,-3.5368,-3.5284,-3.5267,-3.5047,-3.4962,-3.4912,-3.437,-3.4167,-3.4066,-3.3322,-3.273,-3.232,-3.2376,-3.1832,-3.1308,-3.1804,-3.2299,-3.2666,-3.2763,-3.3099,-3.3304,-3.2908,-3.2876,-3.3019,-3.3178,-3.3316,-3.3262,-3.2732,-3.2328,-3.1804,-3.0765,-3.0387,-3.011,-2.9643,-2.9597,-2.9775,-3.0095,-3.0023,-3.0004,-3.027,-2.9789,-2.9445,-2.9445,-3.0039,-3.0173,-2.9577,-2.9515,-2.9261,-2.8623,-2.8587,-2.8587,-2.8587,-2.8587,-2.8884,-2.9427,-2.9445,-2.9826,-3.064,-3.1202,-3.1727,-3.2206,-3.3286,-3.4001,-3.4265,-3.3993,-3.3753,-3.3481,-3.3411,-3.3411,0.0,-3.3352,-3.3382,-3.3322,-3.3292,-3.3183,-3.2766,-3.2231,-3.1679,-3.1355,-3.0861,0.0,0.0,0.0,0.0,0.0,0.0,0.0,0.0,0.0,0.0,0.0,0.0,0.0,0.0,-3.5021,-3.469,-3.4101,-3.4944,-3.5379,-3.5379,-3.5667,-3.5817,-3.5817,-3.5667,-3.5622,-3.5622,-3.5622,-3.5622,0.0,0.0,0.0,0.0,-3.481,-3.4506,-3.4438,-3.3711,-3.3423,-3.3423,-3.3423,-3.3423,-3.3322,-3.256,-3.233,-3.2195,-3.1444,-3.1207,-3.119,-3.119,-3.1731,-3.2368,-3.2699,-3.3099,-3.3304,-3.2908,-3.3099,-3.3286,-3.2908,-3.3099,-3.3176,-3.2379,-3.1882,-3.139,-3.0647,-2.9922,-2.954,-2.9919,-2.9351,-2.8916,-2.9269,-2.8918,-2.8623,-2.8605,-2.8605,-2.8605,-2.8605,-2.8605,-2.8605,-2.8605,-2.8605,-2.8605,-2.8587,-2.8587,-2.8587,-2.8587,-2.8587,-2.8587,-2.8605,-2.8605,-2.9011,-2.9789,-2.9834,-3.0613,-3.2101,-3.2119,-3.2907,-3.3828,-3.3688,-3.3532,-3.3268,-3.3196,-3.3196,-3.3165,-3.3165,-3.3196,-3.3165,-3.2979,-3.2654,-3.2196,-3.1933,-3.1568,-3.0861,-3.0861,-3.0821,0.0,0.0,0.0,0.0,0.0,0.0,0.0,0.0,0.0,0.0,0.0,0.0,0.0,-3.4052,-3.3917,-3.3527,-3.448,-3.4816,-3.4431,-3.527,-3.5667,-3.5667,-3.5549,-3.5549,-3.5605,-3.4992,0.0,0.0,0.0,0.0,0.0,-3.3846,-3.3744,-3.3728,-3.3491,-3.3406,-3.3339,-3.2831,-3.2645,-3.2527,-3.1799,-3.1546,-3.1495,-3.1275,-3.119,-3.119,-3.119,-3.1524,-3.1967,-3.2334,-3.2553,-3.2636,-3.2468,-3.2553,-3.2651,-3.2781,-3.2465,-3.2188,-3.2206,-3.1487,-3.0624,-2.9833,-2.9316,-2.8924,-2.8741,-2.8497,-2.8439,-2.8774,-2.8699,-2.8587,-2.8587,-2.8587,-2.8587,-2.8587,-2.8587,-2.8587,-2.8587,-2.8587,-2.8587,-2.8587,-2.8587,-2.8587,-2.8587,-2.8587,-2.8587,-2.8587,-2.8562,-2.8662,-2.8923,-2.9413,-3.044,-3.1918,-3.2445,-3.3257,0.0,-3.3033,-3.2885,-3.2716,-3.2816,0.0,0.0,-3.288,-3.293,-3.3024,-3.2636,-3.2214,-3.1861,-3.1642,-3.1321,-3.0634,-3.0716,0.0,0.0,0.0,0.0,0.0,0.0,0.0,0.0,0.0,0.0,0.0,0.0,0.0,0.0,0.0,-3.3224,-3.2572,-3.3824,-3.43,-3.3876,-3.4559,-3.4869,-3.4793,-3.4695,-3.4695,-3.4776,-3.4112,0.0,0.0,0.0,0.0,0.0,-3.3102,-3.2983,-3.2949,-3.2679,-3.2577,-3.251,-3.2036,-3.1867,-3.1799,-3.136,-3.119,-3.119,-3.119,-3.119,-3.119,-3.119,-3.1411,-3.1787,-3.2179,-3.2317,-3.2283,-3.2092,-3.2179,-3.2281,-3.2181,-3.188,-3.1548,-3.1345,-3.0756,-2.9994,-2.9197,-2.8767,-2.8446,-2.8146,-2.8102,-2.8156,-2.8396,-2.8518,-2.8587,-2.8587,-2.8587,-2.8587,-2.8587,-2.8587,-2.8587,-2.8587,-2.8587,-2.8587,-2.8587,-2.8587,-2.8587,-2.8562,-2.8562,-2.8562,-2.8528,-2.8484,-2.8458,-2.8458,-2.9521,-3.0489,-3.1416,-3.2478,-3.3216,0.0,-3.2092,-3.1967,0.0,0.0,0.0,-3.2385,-3.2437,0.0,-3.2852,-3.2283,-3.1752,-3.1752,-3.1359,-3.0925,-3.0551,-3.0443,0.0,0.0,0.0,0.0,0.0,0.0,0.0,0.0,0.0,0.0,0.0,0.0,0.0,0.0,0.0,-3.2572,-3.1451,-3.2911,-3.3714,-3.3548,-3.3594,-3.3551,-3.3406,-3.3313,-3.3313,-3.3364,-3.3143,0.0,0.0,0.0,0.0,0.0,-3.2493,-3.2205,-3.2138,-3.1461,-3.119,-3.119,-3.119,-3.119,-3.119,-3.119,-3.119,-3.119,-3.119,-3.119,-3.119,-3.119,-3.1428,-3.175,-3.2109,-3.2214,-3.2144,-3.175,-3.188,-3.1951,-3.125,-3.1232,-3.1094,-2.9999,-2.9735,-2.9481,-2.8757,-2.8352,-2.8129,-2.8129,-2.8129,-2.8129,-2.8129,-2.8396,-2.8587,-2.8587,-2.8587,-2.8587,-2.8587,-2.8587,-2.8587,-2.8587,-2.8587,-2.8587,-2.8587,-2.8587,-2.8562,-2.851,-2.8492,-2.8458,-2.8398,-2.8398,-2.8416,-2.847,-2.9948,-3.0724,-3.0814,-3.2237,-3.2916,-3.0041,0.0,-3.175,-3.175,-3.1823,-3.1896,0.0,-3.1896,-3.1932,-3.2003,-3.1603,-3.1261,-3.1261,-3.0925,-3.0593,-3.0443,-3.0417,0.0,0.0,0.0,0.0,0.0,0.0,0.0,0.0,0.0,0.0,0.0,0.0,0.0,0.0,0.0,-3.1696,-3.1397,-3.1306,-3.1571,-3.2329,-3.276,-3.3094,-3.3406,-3.3227,-3.3201,-3.3313,-3.2495,0.0,0.0,0.0,0.0,-3.1496,-3.1489,-3.1404,-3.1308,-3.1219,-3.119,-3.119,-3.119,-3.119,-3.119,-3.119,-3.119,-3.119,-3.119,-3.119,-3.119,-3.119,-3.1269,-3.1329,-3.1428,-3.1466,-3.1428,-3.1329,-3.098,-3.0634,-3.0698,-3.0082,-2.946,-2.9426,-2.9125,-2.8848,-2.8623,-2.8543,-2.8492,-2.8492,-2.8492,-2.8492,-2.8492,-2.8562,-2.8587,-2.8587,-2.8587,-2.8587,-2.8587,-2.8562,-2.8518,-2.8518,-2.8518,-2.8518,-2.8518,-2.8484,-2.8432,-2.8406,-2.8406,-2.8406,-2.8398,-2.8353,-2.8604,-2.9175,-3.0094,-3.0862,-3.1487,-3.2451,-3.2916,-2.9042,-2.9729,-3.0534,-3.0534,-3.0818,-3.1094,-3.1094,-3.1283,-3.149,0.0,0.0,0.0,0.0,0.0,0.0,0.0,0.0,0.0,0.0,0.0,0.0,0.0,0.0,0.0,0.0,0.0,0.0,0.0,0.0,0.0,0.0,0.0,-3.0744,-3.0489,-3.0084,-3.0258,-3.1085,-3.1366,-3.1659,-3.1968,-3.1848,-3.1907,-3.2161,-3.1533,-3.1291,0.0,0.0,0.0,-3.0912,-3.1032,-3.1032,-3.1015,-3.1032,-3.1072,-3.1112,-3.1072,-3.1072,-3.1112,-3.1112,-3.1151,-3.119,-3.119,-3.119,-3.119,-3.119,-3.119,-3.119,-3.119,-3.119,-3.119,-3.119,-3.0649,-3.0156,-3.0266,-2.9525,-2.884,-2.8963,-2.8773,-2.8587,-2.8587,-2.8587,-2.8587,-2.8587,-2.8587,-2.8587,-2.8587,-2.8587,-2.8587,-2.8587,-2.8587,-2.8587,-2.8562,-2.8518,-2.8484,-2.8458,-2.8432,-2.8414,-2.8458,-2.8406,-2.8398,-2.8353,-2.8353,-2.8345,-2.8318,-2.8291,-2.8629,-2.9405,-3.0083,-3.0818,-3.1582,-3.2299,-3.2672,-2.8227,-2.8401,-2.867,-2.9028,-2.9657,-3.0201,-3.0201,0.0,0.0,0.0,0.0,0.0,0.0,0.0,0.0,0.0,0.0,0.0,0.0,0.0,0.0,0.0,0.0,0.0,0.0,0.0,0.0,0.0,0.0,0.0,0.0,0.0,0.0,-2.9327,-2.9239,-2.941,-2.9911,-2.9959,-3.006,-3.0293,-3.0215,-3.0443,-3.0871,-3.0609,-3.0609,0.0,0.0,0.0,-3.0831,-3.0871,-3.0912,-3.0935,-3.0912,-3.0935,-3.0975,-3.0912,-3.0952,-3.0975,-3.0975,-3.1072,-3.1151,-3.1151,-3.119,-3.119,-3.119,-3.119,-3.119,-3.119,-3.119,-3.1173,-3.1055,-3.048,-2.9884,-2.9708,-2.9117,-2.8623,-2.8558,-2.8562,-2.8587,-2.8587,-2.8587,-2.8587,-2.8587,-2.8587,-2.8587,-2.8587,-2.8587,-2.8587,-2.8587,-2.8587,-2.8587,-2.851,-2.8492,-2.8458,-2.838,-2.8327,-2.83,-2.8371,-2.8371,-2.8327,-2.8273,-2.8273,-2.8264,-2.8182,-2.8182,-2.8645,-2.9525,-3.0034,-3.0733,-3.155,-3.2036,-3.2386,-2.6477,-2.6332,-2.6753,-2.8622,-2.9212,-2.9287,-2.9287,-2.9377,0.0,0.0,0.0,0.0,0.0,0.0,0.0,0.0,0.0,0.0,0.0,0.0,0.0,0.0,0.0,0.0,0.0,0.0,0.0,0.0,0.0,0.0,0.0,0.0,0.0,-2.9057,-2.9007,-2.8967,-2.9061,-2.9201,-2.9624,-3.0293,-3.0215,-3.0401,-3.0733,-3.0568,-3.0526,0.0,0.0,-3.0651,-3.0568,-3.0831,-3.0831,-3.0773,-3.0871,-3.0912,-3.0912,-3.0912,-3.0912,-3.0912,-3.0912,-3.0992,-3.1015,-3.1015,-3.1112,-3.119,-3.119,-3.119,-3.119,-3.119,-3.119,-3.1055,-3.0429,-2.9719,-2.9049,-2.8645,-2.8206,-2.7912,-2.8138,-2.8396,-2.8587,-2.8587,-2.8587,-2.8587,-2.8587,-2.8587,-2.8587,-2.8587,-2.8587,-2.8587,-2.8587,-2.8587,-2.8587,-2.851,-2.8458,-2.838,-2.8327,-2.8246,-2.8209,-2.8237,-2.8237,-2.8237,-2.8209,-2.8209,-2.8209,-2.8182,-2.8182,-2.8856,-3.0145,-3.0269,-3.0953,-3.2176,-3.2265,-3.2318,-2.57,-2.5356,-2.5425,-2.6931,-2.7769,-2.8321,-2.8575,-2.8889,0.0,0.0,0.0,0.0,0.0,0.0,0.0,0.0,0.0,0.0,0.0,0.0,0.0,0.0,0.0,0.0,0.0,0.0,0.0,0.0,0.0,0.0,0.0,0.0,0.0,0.0,-2.8616,-2.8716,-2.8795,-2.9136,-2.9633,-3.0241,-2.987,-3.0,-3.0609,-3.0526,-3.0526,-3.051,0.0,-3.0568,-3.0526,-3.0651,-3.0692,-3.0692,-3.0692,-3.0733,-3.0773,-3.0773,-3.0773,-3.079,-3.0871,-3.0912,-3.0952,-3.0975,-3.1015,-3.1112,-3.119,-3.119,-3.119,-3.119,-3.119,-3.1021,-3.0294,-2.955,-2.8915,-2.8637,-2.8124,-2.7829,-2.8273,-2.8492,-2.8587,-2.8587,-2.8587,-2.8587,-2.8587,-2.8587,-2.8587,-2.8562,-2.8562,-2.8536,-2.8502,-2.8484,-2.8458,-2.8406,-2.8353,-2.83,-2.8264,-2.8209,-2.8182,-2.8182,-2.8182,-2.8182,-2.8182,-2.8182,-2.8154,-2.8099,-2.8479,-2.9184,-3.0131,-3.0457,-3.1147,-3.2197,-3.2091,-3.2091,-2.4741,-2.4372,-2.416,-2.4953,0.0,-2.7136,-2.7784,-2.824,0.0,0.0,0.0,0.0,0.0,0.0,0.0,0.0,0.0,0.0,0.0,0.0,0.0,0.0,0.0,0.0,0.0,0.0,0.0,0.0,0.0,0.0,0.0,0.0,0.0,0.0,-2.8286,-2.8559,-2.8638,-2.9166,-2.9677,-3.0146,-2.971,-2.9826,-3.0526,-3.0526,-3.0526,-3.0526,-3.0526,-3.0526,-3.0526,-3.0526,-3.0568,-3.0651,-3.0526,-3.0568,-3.0651,-3.0651,-3.0651,-3.0651,-3.0773,-3.0831,-3.0871,-3.0895,-3.0975,-3.1015,-3.1112,-3.119,-3.1157,-3.0987,-3.0937,-3.0768,-3.0023,-2.9279,-2.8679,-2.8551,-2.8122,-2.7876,-2.8466,-2.8587,-2.8587,-2.8587,-2.8587,-2.8587,-2.8587,-2.8587,-2.8562,-2.8492,-2.8484,-2.8458,-2.8424,-2.8398,-2.838,-2.83,-2.83,-2.8273,-2.8209,-2.8182,-2.8182,-2.8182,-2.8182,-2.82,-2.8154,-2.8154,-2.8099,-2.794,-2.867,-2.9339,-2.9937,-3.0609,-3.1289,-3.2054,-3.1873,-3.1856,-2.2895,-2.2761,-2.2809,-2.3119,-2.4262,0.0,-2.6587,-2.6826,0.0,-2.761,0.0,0.0,0.0,0.0,0.0,0.0,0.0,0.0,0.0,0.0,0.0,0.0,0.0,0.0,0.0,0.0,0.0,0.0,0.0,0.0,0.0,0.0,0.0,0.0,0.0,-2.8511,-2.8511,-2.898,-2.9496,-3.0017,-2.9973,-3.0146,-3.0526,-3.0526,-3.0526,-3.0526,-3.0526,-3.0526,-3.0526,-3.0526,-3.0526,-3.051,-3.051,-3.0526,-3.051,-3.051,-3.051,-3.0526,-3.0526,-3.0609,-3.0692,-3.0733,-3.0855,-3.1015,-3.1015,-3.1112,-3.1055,-3.0378,-3.0192,-3.0023,-2.9262,-2.8484,-2.7879,-2.7814,-2.7736,-2.7876,-2.8466,-2.8587,-2.8587,-2.8587,-2.8587,-2.8587,-2.8587,-2.8562,-2.851,-2.8492,-2.8458,-2.8424,-2.8398,-2.8398,-2.838,-2.83,-2.83,-2.8273,-2.8209,-2.8182,-2.8182,-2.8182,-2.8182,-2.8154,-2.8014,-2.7996,-2.794,-2.773,-2.8521,-2.9218,-2.981,-3.0559,-3.1219,-3.1837,-3.18,-3.18,-2.2286,-2.2002,-2.1815,-2.2077,-2.2494,0.0,0.0,-2.5577,-2.596,-2.6162,-2.6443,0.0,0.0,0.0,0.0,0.0,0.0,0.0,0.0,0.0,0.0,0.0,0.0,0.0,0.0,0.0,0.0,0.0,0.0,0.0,0.0,0.0,0.0,0.0,0.0,-2.84,-2.84,-2.8857,-2.9241,-2.9454,-2.9722,-3.007,-3.0526,-3.0526,-3.0526,-3.0526,-3.0526,-3.0526,-3.0526,-3.0526,-3.0526,-3.0526,-3.0526,-3.0526,-3.0526,-3.0526,-3.0526,-3.0526,-3.0526,-3.051,-3.0609,-3.0692,-3.0733,-3.0814,-3.0895,-3.0633,-3.0292,-3.0044,-2.934,-2.8564,-2.826,-2.8009,-2.7725,-2.7385,-2.7522,-2.78,-2.8201,-2.8448,-2.8587,-2.8587,-2.8562,-2.8536,-2.8536,-2.8484,-2.8432,-2.838,-2.8353,-2.8327,-2.8291,-2.8264,-2.8264,-2.8237,-2.8237,-2.8237,-2.8209,-2.8182,-2.8182,-2.8182,-2.8182,-2.8126,-2.8014,-2.8014,-2.8065,-2.8268,-2.9054,-2.9758,-3.0352,-3.1114,-3.1579,-3.18,-3.18,-3.18,-2.1353,-2.106,-2.0764,0.0,0.0,0.0,-2.3034,-2.4116,-2.4924,-2.5342,-2.5618,0.0,0.0,0.0,0.0,0.0,0.0,0.0,0.0,0.0,0.0,0.0,0.0,0.0,0.0,0.0,0.0,0.0,0.0,0.0,0.0,0.0,0.0,0.0,0.0,-2.7435,-2.7435,-2.7969,-2.8355,-2.8559,-2.9013,-2.9626,-3.03,-3.0426,-3.0526,-3.0526,-3.0526,-3.0526,-3.0526,-3.0526,-3.0526,-3.0526,-3.0526,-3.0526,-3.0526,-3.0526,-3.0526,-3.0526,-3.0526,-3.0526,-3.0477,-3.0344,-3.0301,-3.0349,-3.0195,-2.9833,-2.9437,-2.9227,-2.8474,-2.7597,-2.7379,-2.7382,-2.7419,-2.7302,-2.7474,-2.7754,-2.8147,-2.8396,-2.8562,-2.8536,-2.851,-2.8484,-2.8484,-2.8406,-2.8353,-2.83,-2.8273,-2.8246,-2.8209,-2.8182,-2.8182,-2.8182,-2.8182,-2.8182,-2.8182,-2.8182,-2.8182,-2.8126,-2.8126,-2.8071,-2.7911,-2.7853,-2.8057,-2.8514,-2.9294,-3.004,-3.0696,-3.1438,-3.18,-3.18,-3.18,-3.18,-1.9901,-1.9857,-1.9671,0.0,0.0,0.0,-2.0996,-2.2299,-2.3839,-2.5092,0.0,0.0,0.0,0.0,0.0,0.0,0.0,0.0,0.0,0.0,0.0,0.0,0.0,0.0,0.0,0.0,0.0,0.0,0.0,0.0,0.0,0.0,0.0,0.0,-2.5944,-2.5615,-2.5615,-2.6108,-2.6702,-2.7272,-2.7837,-2.8662,-2.981,-3.0284,-3.0485,-3.0485,-3.0485,-3.0485,-3.0485,-3.0468,-3.0468,-3.0468,-3.0526,-3.0526,-3.051,-3.051,-3.051,-3.0493,-3.0493,-3.0493,-3.0377,-2.9648,-2.948,-2.9443,-2.8727,-2.8603,-2.8548,-2.7866,-2.7664,-2.7425,-2.6669,-2.6554,-2.6792,-2.7504,-2.7589,-2.7672,-2.8344,-2.8492,-2.8484,-2.8406,-2.8398,-2.8398,-2.8398,-2.8353,-2.83,-2.83,-2.8237,-2.8182,-2.8182,-2.8182,-2.8182,-2.8182,-2.8182,-2.8182,-2.8182,-2.8182,-2.8126,-2.8014,-2.8014,-2.7911,-2.7701,-2.7587,-2.7799,-2.8403,-2.9144,-2.9903,-3.0696,-3.1438,-3.18,-3.18,-3.18,-3.18,-1.8844,-1.9187,0.0,-1.8931,0.0,0.0,0.0,-2.1479,0.0,0.0,0.0,0.0,0.0,0.0,0.0,0.0,0.0,0.0,0.0,0.0,0.0,0.0,0.0,0.0,0.0,0.0,0.0,0.0,0.0,0.0,0.0,0.0,0.0,0.0,-2.5968,-2.5816,-2.577,-2.5894,-2.6031,-2.6104,-2.6671,-2.7774,-2.9303,-2.9438,-2.9528,-2.9528,-2.9528,-2.9528,-2.9528,-2.9897,-3.0027,-3.0027,-3.0384,-3.0195,-2.9748,-2.9748,-2.9433,-2.9019,-2.9019,-2.9019,-2.8986,-2.8754,-2.8727,-2.8733,-2.8478,-2.8085,-2.7694,-2.7534,-2.71,-2.6649,-2.6535,-2.6434,-2.6435,-2.6674,-2.7255,-2.7765,-2.7736,-2.8101,-2.8406,-2.8406,-2.8353,-2.8327,-2.8327,-2.8273,-2.8237,-2.8237,-2.8209,-2.8182,-2.8182,-2.8182,-2.8182,-2.8182,-2.8182,-2.8182,-2.8182,-2.8126,-2.8042,-2.7996,-2.7766,-2.7617,-2.7569,-2.8032,-2.8548,-2.9161,-2.9937,-3.0713,-3.1472,-3.1679,-3.18,-3.18,-3.18,-3.18,-1.8037,-1.8519,0.0,-1.8674,-1.9008,-1.966,-2.0484,0.0,0.0,0.0,0.0,0.0,0.0,0.0,0.0,0.0,0.0,0.0,0.0,0.0,0.0,0.0,0.0,0.0,0.0,0.0,0.0,0.0,0.0,0.0,0.0,0.0,0.0,0.0,-2.5348,-2.5167,-2.5017,-2.5017,-2.5047,-2.5226,-2.5531,-2.6397,-2.7721,-2.84,-2.8958,-2.9393,-2.9572,-2.9677,-2.9645,-2.9675,-2.9629,-2.9655,-2.9642,-2.94,-2.9003,-2.9003,-2.8738,-2.8412,-2.8412,-2.8412,-2.8362,-2.808,-2.798,-2.7931,-2.7595,-2.7214,-2.6886,-2.6925,-2.6609,-2.6293,-2.6399,-2.6538,-2.6657,-2.6573,-2.7002,-2.7487,-2.7547,-2.7876,-2.8174,-2.8318,-2.8291,-2.8246,-2.8246,-2.8237,-2.8182,-2.8182,-2.8182,-2.8182,-2.8182,-2.8182,-2.8182,-2.8182,-2.8182,-2.8182,-2.8182,-2.8071,-2.7968,-2.7911,-2.763,-2.7604,-2.7855,-2.8288,-2.883,-2.9489,-3.0282,-3.1058,-3.18,-3.18,-3.18,-3.18,-3.18,-3.18,-1.7413,0.0,0.0,-1.8808,-1.9065,0.0,0.0,0.0,0.0,0.0,0.0,0.0,0.0,0.0,0.0,0.0,0.0,0.0,0.0,0.0,0.0,0.0,0.0,0.0,0.0,0.0,0.0,0.0,0.0,0.0,0.0,0.0,0.0,0.0,-2.4344,-2.3982,-2.3839,-2.3839,-2.4055,0.0,-2.4537,-2.4881,-2.554,-2.7146,-2.8418,-2.9424,-2.9874,-3.0086,-3.0037,-2.9461,-2.918,-2.9171,-2.8622,-2.8379,-2.8312,-2.8312,-2.8279,-2.8174,-2.8174,-2.8174,-2.8113,-2.7433,-2.7218,-2.7048,-2.6402,-2.622,-2.6203,-2.6277,-2.6258,-2.6274,-2.633,-2.6758,-2.7132,-2.697,-2.6889,-2.7036,-2.7654,-2.7789,-2.7876,-2.8154,-2.8182,-2.8182,-2.8182,-2.8182,-2.8182,-2.8182,-2.8182,-2.8182,-2.8182,-2.8182,-2.8182,-2.8182,-2.8182,-2.8182,-2.8182,-2.8042,-2.7882,-2.7701,-2.7609,-2.782,-2.8368,-2.8472,-2.8851,-2.9592,-3.0386,-3.1127,-3.18,-3.18,-3.18,-3.18,-3.18,-3.18,-1.6018,-1.701,0.0,0.0,-1.8977,0.0,0.0,0.0,0.0,0.0,0.0,0.0,0.0,0.0,0.0,0.0,0.0,0.0,0.0,0.0,0.0,0.0,0.0,0.0,0.0,0.0,0.0,0.0,0.0,0.0,0.0,0.0,0.0,-2.4449,-2.4296,-2.4193,-2.4124,-2.4024,-2.3958,0.0,-2.3863,-2.4178,-2.4866,-2.5742,-2.6244,-2.652,-2.6597,-2.6854,-2.7136,-2.7386,-2.7718,-2.803,-2.8289,-2.8063,-2.7549,-2.7549,-2.7164,-2.6684,-2.6684,-2.6684,-2.6651,-2.6501,-2.6452,-2.6419,-2.627,-2.622,-2.6203,-2.6203,-2.6382,-2.6607,-2.659,-2.6923,-2.7181,-2.7149,-2.7321,-2.7535,-2.7701,-2.773,-2.7836,-2.8154,-2.8182,-2.8182,-2.8182,-2.8182,-2.8182,-2.8182,-2.8182,-2.8182,-2.8182,-2.8182,-2.8182,-2.8182,-2.8099,-2.8042,-2.8042,-2.7766,-2.7587,-2.7557,-2.7976,-2.8246,-2.8385,-2.8954,-2.9644,-3.042,-3.1179,-3.1627,-3.18,-3.18,-3.18,-3.18,-3.18,-3.18,-1.5471,0.0,0.0,-1.7774,0.0,0.0,0.0,0.0,0.0,0.0,0.0,0.0,0.0,0.0,0.0,0.0,0.0,0.0,0.0,0.0,0.0,0.0,0.0,0.0,0.0,0.0,0.0,0.0,0.0,0.0,0.0,-2.4502,-2.4302,-2.4302,-2.4302,-2.4276,-2.4223,-2.4124,-2.4024,-2.3882,-2.3739,-2.3833,-2.4163,-2.5425,-2.5971,-2.6016,-2.6228,-2.6437,-2.6654,-2.6751,-2.6937,-2.7145,-2.7295,-2.7098,-2.6766,-2.6766,-2.6535,-2.622,-2.622,-2.622,-2.622,-2.622,-2.622,-2.622,-2.622,-2.622,-2.6239,-2.6382,-2.6572,-2.6725,-2.6891,-2.7181,-2.743,-2.743,-2.7461,-2.7504,-2.7672,-2.7701,-2.7789,-2.8126,-2.8182,-2.8182,-2.8182,-2.8182,-2.8182,-2.8182,-2.8182,-2.8182,-2.8182,-2.8182,-2.82,-2.8099,-2.8042,-2.7968,-2.7864,-2.7962,-2.8035,-2.8035,-2.8605,-2.9092,-2.9489,-2.9868,-3.0265,-3.0679,-3.142,-3.18,-3.18,-3.18,-3.18,-3.18,-3.18,-3.18,-1.5037,0.0,-1.641,-1.7978,0.0,0.0,0.0,0.0,0.0,0.0,0.0,0.0,0.0,0.0,0.0,0.0,0.0,0.0,0.0,0.0,0.0,0.0,0.0,0.0,0.0,0.0,0.0,0.0,0.0,0.0,-2.4343,-2.4343,-2.4343,-2.4302,-2.4302,-2.4276,-2.4208,-2.4223,-2.4124,-2.4024,-2.3882,-2.3739,-2.364,-2.5194,-2.5935,-2.5935,-2.6342,-2.6598,-2.6677,-2.6415,-2.6409,-2.6515,-2.6274,-2.622,-2.622,-2.622,-2.622,-2.622,-2.622,-2.622,-2.622,-2.622,-2.622,-2.622,-2.622,-2.622,-2.6274,-2.6555,-2.6691,-2.6858,-2.7117,-2.7491,-2.7789,-2.7789,-2.7582,-2.7461,-2.773,-2.773,-2.7789,-2.8126,-2.8182,-2.8182,-2.8182,-2.8182,-2.8182,-2.8182,-2.8182,-2.8182,-2.8182,-2.8182,-2.8126,-2.8014,-2.794,-2.7853,-2.7672,-2.8237,-2.8563,-2.8563,-2.9281,-3.0006,-3.0662,-3.0817,-3.0886,-3.0886,-3.1489,-3.18,-3.18,-3.18,-3.18,-3.18,-3.18,-3.18,0.0,0.0,-1.7628,0.0,0.0,0.0,0.0,0.0,0.0,0.0,0.0,0.0,0.0,0.0,0.0,0.0,0.0,0.0,0.0,0.0,0.0,0.0,0.0,0.0,0.0,0.0,0.0,0.0,0.0,0.0,-2.4589,-2.4549,-2.4467,-2.4302,-2.4302,-2.4317,-2.4276,-2.425,-2.4181,-2.4166,-2.3925,-2.3739,-2.361,-2.3861,-2.3995,-2.3995,-2.4038,-2.4491,-2.5187,-2.5156,-2.5567,-2.6264,-2.6201,-2.622,-2.622,-2.622,-2.622,-2.622,-2.622,-2.622,-2.622,-2.622,-2.622,-2.622,-2.622,-2.622,-2.6203,-2.6239,-2.6674,-2.7149,-2.7181,-2.7642,-2.8126,-2.8126,-2.8099,-2.8099,-2.8126,-2.7893,-2.7789,-2.8126,-2.8182,-2.8182,-2.8182,-2.8182,-2.8182,-2.8182,-2.8182,-2.8182,-2.8182,-2.8099,-2.8014,-2.8014,-2.7736,-2.7557,-2.7526,-2.8083,-2.8435,-2.8435,-2.9782,-3.0575,-3.0696,-3.13,-3.1645,-3.1645,-3.1748,-3.18,-3.18,-3.18,-3.18,-3.18,-3.18,-3.18,-1.4854,-1.6262,-1.759,0.0,0.0,0.0,0.0,0.0,0.0,0.0,0.0,0.0,0.0,0.0,0.0,0.0,0.0,0.0,0.0,0.0,0.0,0.0,0.0,0.0,0.0,0.0,0.0,0.0,0.0,-2.5005,-2.463,-2.4589,-2.4508,-2.4302,-2.4302,-2.4302,-2.4302,-2.4276,-2.4193,-2.4082,-2.3982,-2.3797,-2.3595,-2.3595,-2.3595,-2.3595,-2.3595,-2.3809,-2.4214,-2.4704,-2.5153,-2.5513,-2.6007,-2.622,-2.622,-2.622,-2.622,-2.622,-2.622,-2.622,-2.622,-2.622,-2.622,-2.622,-2.622,-2.622,-2.6274,-2.6657,-2.6956,-2.7276,-2.7659,-2.7968,-2.8182,-2.8182,-2.8182,-2.8182,-2.8182,-2.8081,-2.8025,-2.8182,-2.8182,-2.8182,-2.8182,-2.8182,-2.8182,-2.8182,-2.8126,-2.8099,-2.8099,-2.794,-2.7806,-2.7736,-2.7587,-2.7639,-2.7979,-2.8625,-2.9213,-2.9661,-3.0713,-3.1317,-3.1317,-3.1627,-3.18,-3.18,-3.18,-3.18,-3.18,-3.18,-3.18,-3.18,-3.1709,-3.1709,0.0,0.0,0.0,0.0,0.0,0.0,0.0,0.0,0.0,0.0,0.0,0.0,0.0,0.0,0.0,0.0,0.0,0.0,0.0,0.0,0.0,0.0,0.0,0.0,0.0,0.0,0.0,0.0,0.0,-2.5472,-2.5042,-2.4804,-2.4589,-2.4385,-2.4343,-2.4302,-2.4302,-2.4302,-2.4177,-2.3982,-2.3982,-2.3839,-2.3595,-2.3595,-2.3595,-2.3595,-2.3595,-2.3724,-2.3964,-2.4623,-2.502,-2.5307,-2.597,-2.622,-2.622,-2.622,-2.622,-2.622,-2.622,-2.622,-2.622,-2.622,-2.622,-2.622,-2.622,-2.622,-2.631,-2.6808,-2.7053,-2.7307,-2.7806,-2.8053,-2.8182,-2.8182,-2.8182,-2.8182,-2.8182,-2.8182,-2.8182,-2.8182,-2.8182,-2.8182,-2.8182,-2.8182,-2.8182,-2.8154,-2.8071,-2.7968,-2.794,-2.7777,-2.763,-2.7526,-2.7639,-2.7892,-2.8351,-2.9265,-3.0058,-3.0644,-3.1386,-3.18,-3.18,-3.18,-3.18,-3.18,-3.18,-3.18,-3.18,-3.18,-3.18,-3.18,-3.1709,-3.1709,0.0,0.0,0.0,0.0,0.0,0.0,0.0,0.0,0.0,0.0,0.0,0.0,0.0,0.0,0.0,0.0,0.0,0.0,0.0,0.0,0.0,0.0,0.0,0.0,0.0,0.0,0.0,0.0,0.0,-2.6502,-2.6238,-2.5433,-2.4846,-2.4589,-2.4385,-2.4302,-2.4302,-2.4302,-2.4177,-2.3982,-2.3982,-2.3839,-2.3595,-2.3595,-2.3595,-2.3595,-2.3595,-2.4048,-2.4823,-2.4863,-2.54,-2.6132,-2.6168,-2.622,-2.622,-2.622,-2.622,-2.622,-2.622,-2.622,-2.622,-2.622,-2.622,-2.622,-2.622,-2.622,-2.622,-2.6239,-2.6708,-2.7213,-2.7244,-2.7719,-2.8182,-2.8182,-2.8182,-2.8182,-2.8182,-2.8182,-2.8182,-2.8182,-2.8182,-2.8182,-2.8182,-2.8182,-2.8154,-2.8042,-2.7996,-2.794,-2.773,-2.76,-2.7496,-2.7496,-2.7999,-2.8368,-2.8403,-2.9782,-3.0644,-3.0696,-3.1386,-3.18,-3.18,-3.18,-3.18,-3.18,-3.18,-3.18,-3.18,-3.18,-3.18,-3.18,-3.18,-3.1709,0.0,0.0,0.0,0.0,0.0,0.0,0.0,0.0,0.0,0.0,0.0,0.0,0.0,0.0,0.0,0.0,0.0,0.0,0.0,0.0,0.0,0.0,0.0,0.0,0.0,0.0,0.0,0.0,0.0,0.0,-2.7016,-2.657,-2.5989,-2.5316,-2.4863,-2.4306,-2.3668,-2.3867,-2.3925,-2.3739,-2.3925,-2.3882,-2.3739,-2.3653,-2.3595,-2.3595,-2.3909,-2.4078,-2.4131,-2.4664,-2.5059,-2.5438,-2.597,-2.622,-2.622,-2.622,-2.622,-2.6239,-2.6452,-2.6504,-2.6538,-2.6775,-2.6842,-2.6842,-2.6842,-2.6842,-2.6908,-2.7117,-2.7338,-2.7582,-2.7777,-2.8025,-2.8182,-2.8182,-2.8182,-2.8182,-2.8182,-2.8182,-2.8182,-2.8182,-2.8182,-2.8182,-2.8182,-2.8126,-2.8071,-2.8014,-2.7824,-2.7647,-2.7569,-2.7434,-2.7376,-2.7376,-2.7555,-2.7885,-2.8368,-2.8903,-2.942,-2.9903,-3.0179,-3.0558,-3.1058,-3.1076,-3.1317,-3.1783,-3.18,-3.18,-3.18,-3.18,-3.18,-3.18,-3.1709,-3.1671,-1.7522,0.0,0.0,0.0,0.0,0.0,0.0,0.0,0.0,0.0,0.0,0.0,0.0,0.0,0.0,0.0,0.0,0.0,0.0,0.0,0.0,0.0,0.0,0.0,0.0,0.0,0.0,0.0,0.0,0.0,-2.7895,-2.7386,-2.6799,-2.6076,-2.5656,-2.4969,-2.3998,-2.4215,-2.4094,-2.3739,-2.3925,-2.3925,-2.3739,-2.3824,-2.3809,-2.3867,-2.4162,-2.4204,-2.409,-2.4808,-2.5176,-2.5384,-2.597,-2.622,-2.622,-2.622,-2.622,-2.6239,-2.6452,-2.6607,-2.6725,-2.6956,-2.7117,-2.7213,-2.7213,-2.7213,-2.7244,-2.743,-2.7552,-2.7689,-2.7806,-2.7996,-2.8154,-2.8182,-2.8182,-2.8182,-2.8182,-2.8182,-2.8182,-2.8182,-2.8154,-2.8126,-2.8126,-2.7996,-2.7882,-2.7824,-2.7647,-2.7465,-2.7452,-2.7345,-2.7299,-2.7299,-2.7523,-2.7868,-2.8368,-2.8627,-2.8989,-2.9472,-2.9506,-2.9748,-3.0282,-3.03,-3.0524,-3.1024,-3.1024,-3.1024,-3.1024,-3.1541,-3.18,-3.18,-3.1671,-3.1617,0.0,0.0,0.0,0.0,0.0,0.0,0.0,0.0,0.0,0.0,0.0,0.0,0.0,0.0,0.0,0.0,0.0,0.0,0.0,0.0,0.0,0.0,0.0,0.0,0.0,0.0,0.0,0.0,0.0,-2.8822,-2.8822,-2.7959,-2.7222,-2.672,-2.6704,-2.6231,-2.5305,-2.5305,-2.4897,-2.4043,-2.407,-2.3912,-2.3668,-2.4094,-2.4302,-2.4302,-2.4302,-2.4533,-2.4942,-2.5313,-2.5775,-2.6168,-2.6168,-2.622,-2.622,-2.622,-2.6203,-2.617,-2.617,-2.6401,-2.6657,-2.6657,-2.6905,-2.7178,-2.7178,-2.7195,-2.7213,-2.707,-2.7261,-2.7465,-2.7276,-2.76,-2.8042,-2.8154,-2.8182,-2.8182,-2.8182,-2.82,-2.8182,-2.8182,-2.8099,-2.8014,-2.7996,-2.7836,-2.7642,-2.7526,-2.7496,-2.7452,-2.733,-2.7299,-2.7299,-2.7299,-2.7937,-2.8368,-2.8368,-2.9023,-2.9437,-2.9437,-2.9437,-2.9455,-2.9472,-2.9472,-2.9489,-2.9506,-2.9506,-2.9506,-2.9506,-3.1007,-3.1748,-3.1765,-3.1691,-3.1617,-1.869,0.0,0.0,0.0,0.0,0.0,0.0,0.0,0.0,0.0,0.0,0.0,0.0,0.0,0.0,0.0,0.0,0.0,0.0,0.0,0.0,0.0,0.0,0.0,0.0,0.0,0.0,0.0,-2.9724,-2.961,-2.961,-2.8716,-2.7838,-2.7088,-2.6291,-2.5712,-2.5315,-2.5254,-2.5211,-2.5153,-2.5155,-2.4925,-2.4476,-2.4365,-2.4302,-2.4317,-2.4614,-2.4981,-2.5313,-2.5121,-2.5329,-2.5721,-2.6079,-2.622,-2.622,-2.622,-2.5995,-2.5731,-2.5959,-2.5884,-2.5715,-2.5971,-2.6496,-2.7055,-2.7055,-2.7462,-2.7911,-2.7748,-2.7795,-2.7853,-2.7777,-2.7968,-2.8154,-2.8182,-2.8182,-2.8182,-2.8182,-2.8126,-2.8071,-2.8071,-2.8042,-2.794,-2.7806,-2.7659,-2.7539,-2.7496,-2.7421,-2.7345,-2.7282,-2.7299,-2.7299,-2.7299,-2.7471,-2.7592,-2.7592,-2.7782,-2.7902,-2.7902,-2.7902,-2.8144,-2.8678,-2.8696,-2.8954,-2.9489,-2.9506,-2.9506,-2.9506,-2.9937,-3.0525,-3.1324,-3.2004,-3.2352,0.0,0.0,0.0,0.0,0.0,0.0,0.0,-2.3242,0.0,0.0,0.0,0.0,0.0,0.0,0.0,0.0,0.0,0.0,0.0,0.0,0.0,0.0,0.0,0.0,0.0,0.0,0.0,-3.0172,-3.0017,-2.9946,-2.9918,-2.9399,-2.879,-2.8154,-2.7442,-2.6826,-2.6319,-2.6193,-2.5875,-2.544,-2.54,-2.5106,-2.463,-2.4596,-2.4639,-2.4823,-2.5059,-2.5406,-2.5775,-2.5329,-2.5406,-2.5811,-2.6079,-2.622,-2.617,-2.5855,-2.5562,-2.5313,-2.5329,-2.5252,-2.5174,-2.55,-2.6001,-2.6496,-2.6496,-2.6835,-2.7228,-2.7374,-2.7606,-2.7795,-2.7864,-2.7996,-2.8126,-2.82,-2.8182,-2.8182,-2.8182,-2.8099,-2.8014,-2.8014,-2.7882,-2.7766,-2.763,-2.7496,-2.7421,-2.7421,-2.7345,-2.7299,-2.7299,-2.7299,-2.7299,-2.7299,-2.7299,-2.7299,-2.7299,-2.7299,-2.7299,-2.7299,-2.7299,-2.7489,-2.792,-2.7937,-2.8144,-2.8575,-2.8689,-2.8784,-2.8924,-2.928,-2.9765,-3.0335,-3.0974,-3.1544,0.0,0.0,0.0,0.0,0.0,0.0,-2.4213,-2.4456,0.0,0.0,0.0,0.0,0.0,0.0,0.0,0.0,0.0,0.0,0.0,0.0,0.0,0.0,0.0,0.0,0.0,-3.0535,-3.0452,-3.0666,-3.0284,-3.0017,-2.9918,-2.9918,-2.977,-2.9515,-2.9213,-2.8683,-2.7827,-2.7504,-2.6719,-2.5477,-2.5264,-2.4937,-2.4585,-2.4855,-2.5176,-2.5503,-2.5503,-2.5775,-2.6168,-2.5758,-2.5848,-2.6239,-2.6156,-2.6158,-2.6094,-2.5345,-2.5046,-2.4946,-2.4529,-2.4543,-2.4791,-2.5022,-2.5358,-2.5676,-2.5676,-2.5722,-2.5885,-2.6317,-2.6848,-2.7295,-2.7408,-2.76,-2.7804,-2.7914,-2.7986,-2.8057,-2.8057,-2.8,-2.7968,-2.794,-2.7707,-2.7496,-2.7465,-2.7376,-2.7299,-2.7299,-2.7299,-2.7299,-2.7299,-2.7299,-2.7299,-2.7299,-2.7299,-2.7299,-2.7299,-2.7299,-2.7299,-2.7299,-2.7299,-2.7299,-2.7299,-2.7313,-2.7345,-2.7345,-2.76,-2.784,-2.8102,-2.8969,-2.9334,-2.9283,-2.9573,-3.0241,0.0,0.0,0.0,0.0,0.0,0.0,-2.5952,-2.6193,-2.6457,0.0,0.0,0.0,0.0,0.0,0.0,0.0,0.0,0.0,0.0,0.0,0.0,0.0,0.0,0.0,0.0,-3.1072,-3.1266,-3.1244,-3.0788,-3.0326,-2.9902,-2.9918,-2.977,-2.9515,-2.9152,-2.881,-2.8482,-2.7611,-2.7196,-2.7281,-2.6483,-2.5989,-2.5693,-2.5587,-2.5519,-2.5503,-2.5503,-2.5775,-2.6168,-2.6079,-2.6277,-2.6539,-2.5883,-2.5778,-2.5962,-2.5132,-2.466,-2.4351,-2.4267,-2.4024,-2.3779,-2.3827,-2.4343,-2.4908,-2.4908,-2.528,-2.5685,-2.5512,-2.5642,-2.5803,-2.5858,-2.6047,-2.6257,-2.6257,-2.6764,-2.7201,-2.7085,-2.7423,-2.7748,-2.7617,-2.7557,-2.7483,-2.7345,-2.733,-2.7299,-2.7299,-2.7299,-2.7299,-2.7299,-2.7299,-2.7299,-2.7299,-2.7299,-2.7299,-2.7299,-2.7299,-2.7299,-2.7299,-2.7299,-2.7299,-2.7299,-2.7496,-2.763,-2.763,-2.7897,-2.802,-2.801,-2.8794,-2.9313,-2.9622,-3.0531,-3.1392,0.0,0.0,0.0,-2.4983,0.0,0.0,0.0,-2.8013,-2.8342,0.0,0.0,0.0,0.0,0.0,0.0,0.0,0.0,0.0,0.0,0.0,0.0,0.0,0.0,0.0,0.0,-3.1397,-3.1167,-3.0845,-3.0642,-3.041,-3.013,-3.0087,-3.0044,-2.9881,-2.9454,-2.8932,-2.8418,-2.795,-2.7418,-2.6859,-2.6566,-2.6237,-2.5999,-2.5772,-2.5758,-2.5905,-2.5848,-2.599,-2.6187,-2.5963,-2.605,-2.6292,-2.571,-2.537,-2.5115,-2.4494,-2.4102,-2.3902,-2.3727,-2.351,-2.3313,-2.3471,-2.3784,-2.4105,-2.4105,-2.4495,-2.4918,-2.4742,-2.5049,-2.5401,-2.5401,-2.5596,-2.58,-2.58,-2.6356,-2.6863,-2.6827,-2.7232,-2.7569,-2.7526,-2.7452,-2.7376,-2.7313,-2.7299,-2.7299,-2.7299,-2.7299,-2.7299,-2.7299,-2.7299,-2.7299,-2.7299,-2.7299,-2.7299,-2.7299,-2.7299,-2.7299,-2.7299,-2.7299,-2.7299,-2.7299,-2.7421,-2.7569,-2.7701,-2.78,-2.801,-2.8299,-2.8595,-2.8792,-2.8873,-2.9837,-3.0839,0.0,0.0,0.0,0.0,0.0,-2.814,0.0,0.0,0.0,-3.0746,0.0,0.0,0.0,0.0,0.0,0.0,0.0,0.0,0.0,0.0,0.0,0.0,0.0,0.0,0.0,-3.1714,-3.1106,-3.0601,-3.0617,-3.0576,-3.0377,-3.0335,-3.0267,-3.0225,-2.968,-2.899,-2.8255,-2.804,-2.7364,-2.6174,-2.6285,-2.6238,-2.6118,-2.5937,-2.601,-2.6295,-2.6293,-2.6227,-2.6044,-2.573,-2.5561,-2.5532,-2.5323,-2.4917,-2.4406,-2.386,-2.3675,-2.3614,-2.3288,-2.3168,-2.3217,-2.3448,-2.3494,-2.3471,-2.3448,-2.3664,-2.3937,-2.3937,-2.4419,-2.4963,-2.4989,-2.5171,-2.5372,-2.5372,-2.5984,-2.657,-2.6533,-2.7058,-2.7496,-2.7465,-2.7359,-2.7299,-2.7299,-2.7299,-2.7299,-2.7299,-2.7299,-2.7299,-2.7299,-2.7299,-2.7299,-2.7299,-2.7299,-2.7299,-2.7299,-2.7299,-2.7299,-2.7299,-2.7299,-2.7313,-2.7359,-2.7483,-2.7689,-2.7943,-2.7886,-2.8138,-2.8694,-2.8583,-2.8412,-2.8192,-2.9062,-3.0062,0.0,0.0,0.0,0.0,-2.8894,0.0,0.0,0.0,-3.1514,-3.1987,0.0,0.0,0.0,0.0,0.0,0.0,0.0,0.0,0.0,0.0,0.0,0.0,0.0,0.0,0.0,0.0,-3.2074,-3.188,-3.1435,-3.1004,-3.0584,-3.0377,-3.0199,-2.9946,-2.9243,-2.8838,-2.8709,-2.7437,-2.6899,-2.7123,-2.6462,-2.6274,-2.6537,-2.645,-2.6364,-2.633,-2.6521,-2.6252,-2.5612,-2.5829,-2.5171,-2.3977,-2.4249,-2.4479,-2.4566,-2.3809,-2.3508,-2.3531,-2.3465,-2.3453,-2.3471,-2.3494,-2.3407,-2.3289,-2.3193,-2.3098,-2.3041,-2.3041,-2.3212,-2.3407,-2.3506,-2.365,-2.3743,-2.3743,-2.4768,-2.5703,-2.5587,-2.6574,-2.7465,-2.7345,-2.7313,-2.7299,-2.7299,-2.7299,-2.7299,-2.7299,-2.7299,-2.7299,-2.7299,-2.7299,-2.7299,-2.7299,-2.7299,-2.7299,-2.7299,-2.7299,-2.7299,-2.7299,-2.7299,-2.7421,-2.7642,-2.8165,-2.8576,-2.8858,-2.8839,-2.8881,-2.8952,-2.8929,-2.8905,-2.89,-2.9728,-3.054,0.0,0.0,0.0,0.0,0.0,0.0,0.0,0.0,-3.3299,0.0,0.0,0.0,0.0,0.0,0.0,0.0,0.0,0.0,0.0,0.0,0.0,0.0,0.0,0.0,0.0,0.0,0.0,0.0,0.0,-3.1565,-3.1223,-3.1106,-3.0683,-2.9873,-2.9354,-2.8617,-2.7671,-2.7279,-2.6958,-2.6709,-2.6759,-2.6856,-2.694,-2.7036,-2.7019,-2.692,-2.6524,-2.6133,-2.5743,-2.5196,-2.4572,-2.3972,-2.3921,-2.3851,-2.3749,-2.3572,-2.3494,-2.3494,-2.3494,-2.3494,-2.3499,-2.3576,-2.3576,-2.3513,-2.3468,-2.3422,-2.3307,-2.3077,-2.3175,-2.3319,-2.3217,-2.3336,-2.3494,-2.3494,-2.4573,-2.5553,-2.5437,-2.6504,-2.7465,-2.7313,-2.7299,-2.7299,-2.7299,-2.7299,-2.7299,-2.7299,-2.7299,-2.7299,-2.7299,-2.7299,-2.7299,-2.7299,-2.7299,-2.7299,-2.7299,-2.7299,-2.7299,-2.7299,-2.7452,-2.7642,-2.7926,-2.8174,-2.836,-2.8482,-2.8676,-2.8767,-2.8767,-2.8929,-2.9232,-2.9732,-3.0522,-3.1072,-2.8561,0.0,0.0,0.0,0.0,0.0,0.0,0.0,0.0,0.0,0.0,0.0,0.0,0.0,0.0,0.0,0.0,0.0,0.0,0.0,0.0,0.0,0.0,0.0,0.0,0.0,0.0,0.0,-3.2109,-3.2021,-3.177,-3.1396,-3.0717,-2.9688,-2.9036,-2.8168,-2.7022,-2.7158,-2.6971,-2.6504,-2.6989,-2.7195,-2.7213,-2.7317,-2.7391,-2.7344,-2.6561,-2.608,-2.5744,-2.4734,-2.4247,-2.4038,-2.3795,-2.3558,-2.3389,-2.3567,-2.3634,-2.3634,-2.3634,-2.3611,-2.3571,-2.3667,-2.3649,-2.3602,-2.3628,-2.361,-2.3562,-2.3348,-2.344,-2.3553,-2.3371,-2.3458,-2.3549,-2.3549,-2.4604,-2.5553,-2.5437,-2.6504,-2.7465,-2.7313,-2.7376,-2.7421,-2.7421,-2.7345,-2.7299,-2.7299,-2.7299,-2.7299,-2.7299,-2.7299,-2.7299,-2.7299,-2.7299,-2.7299,-2.7299,-2.7299,-2.7299,-2.7299,-2.763,-2.7897,-2.8102,-2.8264,-2.836,-2.836,-2.8601,-2.8718,-2.8718,-2.8905,-2.942,-3.0228,-3.1017,-3.1513,0.0,0.0,0.0,-3.2155,0.0,0.0,0.0,0.0,-3.4965,0.0,0.0,0.0,0.0,0.0,-3.5009,-3.4174,0.0,0.0,0.0,0.0,0.0,0.0,0.0,0.0,0.0,0.0,0.0,-3.3484,-3.2809,-3.2332,-3.2195,-3.0829,-2.9816,-2.9353,-2.7904,-2.7259,-2.7467,-2.6994,-2.6809,-2.6992,-2.6926,-2.7023,-2.7213,-2.7149,-2.7227,-2.7374,-2.6823,-2.6096,-2.5295,-2.485,-2.4306,-2.3707,-2.3692,-2.3816,-2.3976,-2.3976,-2.3976,-2.3976,-2.3976,-2.3855,-2.3692,-2.3692,-2.3513,-2.3342,-2.3473,-2.3414,-2.3369,-2.3692,-2.3774,-2.3816,-2.3955,-2.3816,-2.3692,-2.3692,-2.4682,-2.5553,-2.5437,-2.6504,-2.7465,-2.7313,-2.7496,-2.7701,-2.7701,-2.7465,-2.7299,-2.7299,-2.7299,-2.7299,-2.7299,-2.7299,-2.7299,-2.7299,-2.7299,-2.7299,-2.7299,-2.7299,-2.7299,-2.7299,-2.78,-2.8102,-2.8102,-2.8676,-2.8952,-2.8952,-2.8994,-2.8994,-2.8994,-2.8994,-2.942,-3.0228,-3.1017,-3.1825,0.0,0.0,-3.2724,-3.3117,0.0,0.0,0.0,0.0,0.0,0.0,0.0,0.0,0.0,0.0,-3.5059,-3.4792,-3.5021,-3.51,0.0,0.0,0.0,0.0,0.0,0.0,0.0,0.0,0.0,-3.3615,-3.2814,-3.2145,0.0,-3.0771,-2.9678,-2.8494,-2.7952,-2.7483,-2.7029,-2.6843,-2.6989,-2.7417,-2.7504,-2.7666,-2.7851,-2.8027,-2.7825,-2.7299,-2.6565,-2.5835,-2.5121,-2.4406,-2.4049,-2.3961,-2.4019,-2.4058,-2.4115,-2.4036,-2.3996,-2.3996,-2.3996,-2.3955,-2.3917,-2.3999,-2.3959,-2.3899,-2.3941,-2.3883,-2.3801,-2.3631,-2.3714,-2.3837,-2.3692,-2.3795,-2.3896,-2.3896,-2.4956,-2.5868,-2.5596,-2.6623,-2.7569,-2.7345,-2.7376,-2.7452,-2.7452,-2.7496,-2.7612,-2.78,-2.7829,-2.7829,-2.7829,-2.7672,-2.7569,-2.7569,-2.7569,-2.7569,-2.7569,-2.773,-2.7915,-2.8156,-2.8326,-2.8507,-2.87,-2.8905,-2.8994,-2.8994,-2.8994,-2.8994,-2.8994,-2.8994,-2.9696,-3.0999,-3.1256,-3.1825,-3.2456,-3.3092,0.0,-3.3931,-3.4398,0.0,-3.5245,0.0,0.0,0.0,0.0,0.0,0.0,0.0,-3.4521,-3.4521,-3.4465,-3.441,0.0,-3.4287,0.0,0.0,0.0,0.0,0.0,0.0,-3.3751,-3.3449,-3.2607,-3.184,0.0,0.0,-2.9285,-2.8234,-2.7793,-2.7385,-2.6971,-2.6973,-2.7135,-2.743,-2.7683,-2.7936,-2.8174,-2.8386,-2.8123,-2.745,-2.653,-2.5782,-2.5155,-2.4247,-2.3999,-2.4192,-2.4302,-2.4374,-2.4374,-2.4229,-2.4172,-2.4172,-2.4172,-2.4134,-2.4095,-2.4173,-2.4173,-2.4135,-2.4192,-2.4173,-2.4152,-2.4249,-2.4198,-2.4112,-2.4145,-2.4096,-2.4069,-2.4363,-2.5266,-2.6135,-2.6222,-2.7157,-2.7904,-2.7659,-2.7689,-2.7748,-2.7748,-2.7989,-2.811,-2.7982,-2.8047,-2.8102,-2.8102,-2.7954,-2.784,-2.784,-2.784,-2.784,-2.784,-2.7992,-2.8183,-2.8404,-2.8533,-2.8694,-2.8858,-2.8952,-2.8994,-2.8994,-2.8994,-2.8994,-2.8994,-2.8994,-2.9843,-3.1384,-3.1384,-3.1971]}]]